     2              OBSERVATION DATA    GPS                 RINEX VERSION / TYPE
teqc 1997Jul24 19970814                                     PGM / RUN BY / DATE
                                                            COMMENT
BIT 2 OF LLI FLAGS DATA COLLECTED UNDER A-S CONDITION       COMMENT
BIT 2 OF LLI FLAGS DATA COLLECTED UNDER A-S CONDITION       COMMENT
Original Marker Name: 1109                                  COMMENT
Campaign Name: hpgn ca 1991                                 COMMENT
4-Character Station Name: 1109                              COMMENT
6-Character Antenna Code: TRMSST                            COMMENT
Vertical Measurement Point: BPA                             COMMENT
Vertical Offset to Rinex Ref. Point: 0.0000                 COMMENT
Radial Measurement Point: RRP                               COMMENT
Radial Offset to Rinex Ref. Point: 0.0000                   COMMENT
Antenna Height from Field Measurement: 2.2200 m             COMMENT
Original XYZ: -2363769.9680 -4793884.4756 3468923.8016      COMMENT
New XYZ position is based on association with SCEC monument COMMENT
E1D0G8H0+0011. Position of that monument is believed to be  COMMENT
valid to within 1 m horizontally; vertical accuracy         COMMENT
should be no worse than 3-times this value.                 COMMENT
                                                            COMMENT
Revised Rinex header created by UCSD GPS archive for        COMMENT
GSAC on 12-Apr-1999 (1999:102) 04:53:08 GMT                 COMMENT
For assistance contact dagnew@ucsd.edu or hjohnson@ucsd.edu COMMENT
                                                            COMMENT
HPGN CALIF STA 11-09 1990                                   MARKER NAME
unknown NATIONAL GEODETIC SURVEY                            OBSERVER / AGENCY
485 TRIMBLE 4000 SST NP 4.30 / SP 4.20                      REC # / TYPE / VERS
16 TR 4000SST L1/L2 GEO                                     ANT # / TYPE
 -2363770.0000 -4793879.0000  3468920.0000                  APPROX POSITION XYZ
        2.2200        0.0000        0.0000                  ANTENNA: DELTA H/E/N
     1     1     0                                          WAVELENGTH FACT L1/2
     3    C1    L1    L2                                    # / TYPES OF OBSERV
     0                                                      INTERVAL
  1991     4     6    20    28   45.000000                  TIME OF FIRST OBS
  1991     4     7     3    29   60.000000                  TIME OF LAST OBS
     0                                                      # OF SATELLITES
                                                            END OF HEADER
 91  4  6 20 28 45.0000000  0  4G18G11G14G19
  20505987.4064         -0.11758        -0.39372
  24647146.234          -0.68414        -0.25431
  23686608.9224         -0.83155        -0.49671
  21275493.5234         -0.49256        -0.27072
 91  4  6 20 29  0.0000000  0  4G18G11G14G19
  20503164.6724     -14832.52548    -11558.11062
  24636747.4844     -54637.83944    -42574.44461
  23694078.563       39253.720 5     30587.26621
  21270816.4924     -24595.43646    -19165.13162
 91  4  6 20 29 15.0000000  0  4G18G11G14G19
  20500354.1334     -29602.20648    -23066.95562
  24626349.1804    -109275.89744    -85149.32661
  23701544.7034      78481.41845     61154.09061
  21266135.0634     -49190.92146    -38330.41562
 91  4  6 20 29 30.0000000  0  4G18G11G14G19
  20497558.9614     -44291.20648    -34512.92662
  24615956.7194    -163896.51445   -127710.62061
  23709009.578      117699.499 5     91713.41521
  21261453.352      -73769.069 6    -57482.19222
 91  4  6 20 29 45.0000000  0  4G18G11G14G19
  20494779.6094     -58896.09448    -45893.36162
  24605567.3754    -218496.03344   -170255.46361
  23716468.641      156910.792 5    122267.47721
  21256785.1484     -98326.67646    -76617.95862
 91  4  6 20 30  0.0000000  0  4G18G11G14G19
  20492016.7194     -73415.82748    -57207.44363
  24595178.742     -273072.692 4   -212782.50021
  23723929.266      196116.219 5    152816.95821
  21252114.3364    -122862.69646    -95736.91162
 91  4  6 20 30 15.0000000  0  4G18G11G14G19
  20489270.5234     -87847.45148    -68452.86562
  24584798.2034    -327623.00844   -255288.98661
  23731391.820      235318.470 5    183363.95821
  21247452.3834    -147373.98846   -114836.59062
 91  4  6 20 30 30.0000000  0  4G18G11G14G19
  20486542.6644    -102181.81248    -79622.49962
  24574424.594     -382137.981 5   -297767.97521
  23738854.023      274525.918 5    213915.00221
  21242791.4384    -171851.83346   -133910.21163
 91  4  6 20 30 45.0000000  0  4G18G11G14G19
  20483832.7424    -116420.73748    -90717.77162
  24564059.984     -436619.361 5   -340220.78221
  23746312.9064     313736.02745    244468.11661
  21238140.867     -196298.374 6   -152959.43622
 91  4  6 20 31  0.0000000  0  4G18G11G14G19
  20481142.8134    -130560.12448   -101735.47862
  24553696.8444    -491062.35045   -382643.66061
  23753776.070      352952.696 5    275026.34621
  21233493.344     -220709.620 6   -171981.16123
 91  4  6 20 31 15.0000000  0  4G18G11G14G19
  20478471.4924    -144594.73348   -112671.53762
  24543347.7424    -545461.60845   -425032.46261
  23761239.852      392180.395 5    305593.17421
  21228857.703     -245080.635 6   -190971.53922
 91  4  6 20 31 30.0000000  0  4G18G11G14G19
  20475820.1884    -158529.84448   -123530.06462
  24533001.7504    -599821.89645   -467390.90661
  23768707.977      431413.650 5    336164.32521
  21224226.164     -269416.649 6   -209934.64422
 91  4  6 20 31 45.0000000  0  4G18G11G14G19
  20473187.2034    -172366.35348   -134311.76562
  24522662.680     -654143.879 5   -509719.51521
  23776173.3914     470651.11045    366738.75861
  21219603.063     -293718.719 6   -228871.29822
 91  4  6 20 32  0.0000000  0  4G18G11G14G19
  20470572.3284    -186107.10948   -145018.84862
  24512333.391     -708430.282 5   -552020.35421
  23783639.8134     509889.49245    397313.90061
  21214981.055     -317990.084 6   -247784.03123
 91  4  6 20 32 15.0000000  0  4G18G11G14G19
  20467995.6954    -199647.15848   -155569.53962
  24502032.3524    -762575.81545   -594211.44761
  23791128.2664     549232.81345    427970.81161
  21210390.6884    -342125.92746   -266591.15862
 91  4  6 20 32 30.0000000  0  4G18G11G14G19
  20465443.6804    -213058.25448   -166019.75063
  24491739.117     -816651.808 5   -636348.36321
  23798620.7974     588609.06145    458653.39161
  21205807.977     -366197.911 6   -285348.52722
 91  4  6 20 32 45.0000000  0  4G18G11G14G19
  20462910.4614    -226371.45348   -176393.67462
  24481457.773     -870688.910 5   -678454.98621
  23806116.2034     627987.00345    489337.28061
  21201236.586     -390237.293 6   -304080.49023
 91  4  6 20 33  0.0000000  0  4G18G11G14G19
  20460397.6724    -239578.25348   -186684.69562
  24471183.086     -924678.450 5   -720524.54221
  23813609.320      667374.343 5    520028.50721
  21196667.148     -414235.816 6   -322780.61322
 91  4  6 20 33 15.0000000  0  4G18G11G14G19
  20457901.6954    -252688.46648   -196900.45162
  24460917.3054    -978629.85045   -762564.39861
  23821106.938      706760.515 5    550718.81521
  21192108.828     -438203.605 6   -341456.78822
 91  4  6 20 33 30.0000000  0  4G18G11G14G19
  20455426.3054    -265699.37448   -207038.82963
  24450657.727    -1032540.378 5   -804572.36921
  23828602.4144     746147.74445    581409.95161
  21187552.727     -462138.106 6   -360107.02722
 91  4  6 20 33 45.0000000  0  4G18G11G14G19
  20452969.8914    -278611.52248   -217100.24562
  24440407.117    -1086410.078 5   -846548.56321
  23836094.086      785535.347 5    612101.37121
  21183004.953     -486040.034 6   -378731.88722
 91  4  6 20 34  0.0000000  0  4G18G11G14G19
  20450531.3284    -291420.06248   -227080.93362
  24430164.8364   -1140233.73745   -888488.86061
  23843595.078      824927.805 5    642796.56821
  21178461.180     -509904.513 6   -397327.56022
 91  4  6 20 34 15.0000000  0  4G18G11G14G19
  20448113.0634    -304129.31348   -236984.24462
  24419929.289    -1194015.324 5   -930396.36721
  23851087.281      864320.277 5    673491.77821
  21173929.164     -533735.928 6   -415897.47022
 91  4  6 20 34 30.0000000  0  4G18G11G14G19
  20445714.6024    -316735.22348   -246807.03462
  24409704.2584   -1247750.73845   -972267.92961
  23858586.2814     903715.92645    704189.46361
  21169398.984     -557530.674 6   -434438.80922
 91  4  6 20 34 45.0000000  0  4G18G11G14G19
  20443335.8984    -329238.33748   -256549.72162
  24399486.7424   -1301440.07545  -1014103.54961
  23866080.227      943113.795 5    734888.87421
  21164879.430     -581289.534 6   -452952.18222
 91  4  6 20 35  0.0000000  0  4G18G11G14G19
  20440975.2344    -341640.56948   -266213.79962
  24389278.711    -1355084.966 5  -1055904.57021
  23873577.445      982511.591 5    765588.23121
  21160363.563     -605014.424 6   -471439.08722
 91  4  6 20 35 15.0000000  0  4G18G11G14G19
  20438635.4224    -353939.13348   -275797.10062
  24379078.430    -1408681.984 5  -1097668.23821
  23881079.141     1021911.894 5    796289.54821
  21155859.227     -628702.483 6   -489897.28922
 91  4  6 20 35 30.0000000  0  4G18G11G14G19
  20436313.6884    -366135.83648   -285301.02863
  24368888.891    -1462232.909 5  -1139396.05621
  23888575.648     1061312.154 5    826990.82621
  21151354.453     -652355.832 6   -508328.44722
 91  4  6 20 35 45.0000000  0  4G18G11G14G19
  20434012.7424    -378231.19348   -294725.98663
  24358704.7344   -1515737.88945  -1181088.02761
  23896072.922     1100711.590 5    857691.45621
  21146861.781     -675975.054 6   -526733.01222
 91  4  6 20 36  0.0000000  0  4G18G11G14G19
  20431728.9774    -390230.75748   -304076.30062
  24348531.180    -1569202.178 5  -1222748.28521
  23903568.086     1140103.868 5    888386.51121
  21142370.531     -699565.981 6   -545115.53022
 91  4  6 20 36 15.0000000  0  4G18G11G14G19
  20429466.2034    -402125.14848   -313344.66662
  24338369.6414   -1622615.94545  -1264369.21361
  23911066.297     1179498.246 5    919083.21121
  21137890.898     -723119.238 6   -563468.69822
 91  4  6 20 36 30.0000000  0  4G18G11G14G19
  20427222.3134    -413915.44148   -322531.91662
  24328214.2894   -1675979.98545  -1305951.38261
  23918563.398     1218893.293 5    949780.41821
  21133412.766     -746636.032 6   -581793.45422
 91  4  6 20 36 45.0000000  0  4G18G11G14G19
  20424999.4774    -425595.86848   -331633.55162
  24318070.367    -1729288.378 5  -1347490.20321
  23926063.0554    1258293.99345    980482.05361
  21128946.688     -770111.072 6   -600085.66722
 91  4  6 20 37  0.0000000  0  4G18G11G14G19
  20422796.2504    -437176.16848   -340657.16862
  24307933.2504   -1782550.40745  -1388992.86061
  23933558.875     1297690.093 5   1011180.09721
  21124485.555     -793553.774 6   -618352.69122
 91  4  6 20 37 15.0000000  0  4G18G11G14G19
  20420610.9694    -448657.18248   -349603.42162
  24297803.6174   -1835766.50445  -1430459.77761
  23941054.875     1337080.480 5   1041873.66221
  21120032.250     -816965.213 6   -636595.34722
 91  4  6 20 37 30.0000000  0  4G18G11G14G19
  20418445.4844    -460037.09548   -358470.89362
  24287686.953    -1888934.801 5  -1471889.42921
  23948549.2274    1376466.24545   1072563.63261
  21115579.570     -840343.866 6   -654812.45922
 91  4  6 20 37 45.0000000  0  4G18G11G14G19
  20416298.7974    -471316.03848   -367259.68863
  24277579.102    -1942054.846 5  -1513281.47221
  23956041.813     1415846.876 5   1103249.62221
  21111139.859     -863689.804 6   -673004.07322
 91  4  6 20 38  0.0000000  0  4G18G11G14G19
  20414171.8284    -482493.04748   -375969.05362
  24267480.000    -1995125.522 5  -1554635.05321
  23963535.1644    1455222.87845   1133932.00661
  21106703.867     -887002.455 6   -691169.76422
 91  4  6 20 38 15.0000000  0  4G18G11G14G19
  20412064.7194    -493570.40348   -384600.76862
  24257389.3444   -2048148.60745  -1595951.52061
  23971027.500     1494591.783 5   1164608.83621
  21102274.703     -910284.053 6   -709311.25222
 91  4  6 20 38 30.0000000  0  4G18G11G14G19
  20409986.1254    -504490.79348   -393110.17162
  24247318.508    -2101066.622 5  -1637186.14621
  23978529.672     1534010.239 5   1195324.28121
  21097858.383     -933477.453 6   -727384.00722
 91  4  6 20 38 45.0000000  0  4G18G11G14G19
  20407936.9384    -515262.89848   -401504.02762
  24237268.648    -2153887.965 5  -1678345.44321
  23986039.773     1573469.141 5   1226071.23821
  21093461.633     -956591.470 6   -745394.91422
 91  4  6 20 39  0.0000000  0  4G18G11G14G19
  20405905.5704    -525935.18348   -409820.10362
  24227224.828    -2206660.751 5  -1719466.90421
  23993545.617     1612919.348 5   1256811.44721
  21089066.945     -979675.062 6   -763382.10922
 91  4  6 20 39 15.0000000  0  4G18G11G14G19
  20403894.7424    -536502.90248   -418054.69863
  24217193.1414   -2259379.90645  -1760546.57661
  24001050.047     1652365.324 5   1287548.34821
  21084681.602    -1002723.445 6   -781341.87022
 91  4  6 20 39 30.0000000  0  4G18G11G14G19
  20401901.8444    -546973.51648   -426213.62762
  24207170.5784   -2312052.57445  -1801590.02761
  24008556.031     1691799.314 5   1318275.89921
  21080304.141    -1025744.187 6   -799280.09822
 91  4  6 20 39 45.0000000  0  4G18G11G14G19
  20399928.0634    -557342.26248   -434293.17562
  24197156.125    -2364673.868 5  -1842593.42621
  24016057.133     1731225.175 5   1348997.12421
  21075928.680    -1048732.773 6   -817193.26222
 91  4  6 20 40  0.0000000  0  4G18G11G14G19
  20397975.1804    -567611.03048   -442294.82263
  24187152.5554   -2417245.22645  -1883557.93761
  24023559.7274    1770640.61945   1379710.24961
  21071556.6484   -1071691.15946   -835082.90162
 91  4  6 20 40 15.0000000  0  4G18G11G14G19
  20396039.9384    -577780.18748   -450218.84562
  24177159.016    -2469766.459 5  -1924483.38021
  24031057.8444    1810045.25745   1410414.90961
  21067195.742    -1094619.625 6   -852949.21722
 91  4  6 20 40 30.0000000  0  4G18G11G14G19
  20394123.828     -587846.742 8   -458062.92722
  24167173.4064   -2522234.11245  -1965367.06461
  24038553.906     1849441.596 5   1441113.12421
  21062837.2274   -1117515.08346   -870789.82362
 91  4  6 20 40 45.0000000  0  4G18G11G14G19
  20392229.0004    -597806.03648   -465823.42462
  24157199.375    -2574643.674 5  -2006205.49621
  24046052.2894    1888833.49245   1471807.89661
  21058487.820    -1140373.398 6   -888601.48222
 91  4  6 20 41  0.0000000  0  4G18G11G14G19
  20390354.203     -607660.140 8   -473501.95723
  24147237.6564   -2626996.74045  -2046999.90761
  24053544.6804    1928218.74645   1502497.46161
  21054146.289    -1163196.833 6   -906385.96122
 91  4  6 20 41 15.0000000  0  4G18G11G14G19
  20388498.3984    -617408.05348   -481097.74463
  24137284.430    -2679291.880 5  -2087749.16321
  24061042.195     1967597.801 5   1533182.19121
  21049809.578    -1185984.399 6   -924142.49122
 91  4  6 20 41 30.0000000  0  4G18G11G14G19
  20386663.1804    -627055.13348   -488614.95363
  24127345.3984   -2731534.16245  -2128457.25161
  24068533.6644    2006964.73245   1563857.50661
  21045480.3524   -1208741.57546   -941875.34562
 91  4  6 20 41 45.0000000  0  4G18G11G14G19
  20384847.0314    -636599.66148   -496052.25963
  24117414.2344   -2783721.46845  -2169122.49161
  24076022.609     2046321.136 5   1594524.61221
  21041154.734    -1231466.615 6   -959583.15322
 91  4  6 20 42  0.0000000  0  4G18G11G14G19
  20383050.5164    -646037.84148   -503406.69163
  24107495.398    -2835849.718 5  -2209741.72221
  24083511.7504    2085670.13645   1625185.92861
  21036835.672    -1254156.057 6   -977263.22022
 91  4  6 20 42 15.0000000  0  4G18G11G14G19
  20381274.5314    -655376.04548   -510683.22062
  24097583.852    -2887924.826 5  -2250319.51621
  24090993.688     2125004.951 5   1655836.19321
  21032525.813    -1276816.256 6   -994920.50122
 91  4  6 20 42 30.0000000  0  4G18G11G14G19
  20379516.7974    -664606.96448   -517876.15662
  24087686.156    -2939939.246 5  -2290850.04421
  24098478.930     2164332.361 5   1686480.70621
  21028219.867    -1299439.969 6  -1012549.35422
 91  4  6 20 42 45.0000000  0  4G18G11G14G19
  20377780.3054    -673733.64448   -524987.86262
  24077797.859    -2991895.789 5  -2331335.49021
  24105962.0084    2203649.03145   1717116.83561
  21023921.711    -1322030.487 6  -1030152.34222
 91  4  6 20 43  0.0000000  0  4G18G11G14G19
  20376064.5234    -682752.57648   -532015.60963
  24067925.094    -3043790.529 5  -2371772.77421
  24113440.0704    2242957.94045   1747746.93861
  21019626.539    -1344584.339 6  -1047726.75422
 91  4  6 20 43 15.0000000  0  4G18G11G14G19
  20374368.1484    -691666.20148   -538961.29962
  24058056.2974   -3095625.73145  -2412163.63761
  24120917.8444    2282256.01845   1778368.56761
  21015342.945    -1367104.150 6  -1065274.64622
 91  4  6 20 43 30.0000000  0  4G18G11G14G19
  20372691.500     -700477.706 8   -545827.41922
  24048205.141    -3147404.386 5  -2452510.44721
  24128395.148     2321539.537 4   1808978.86121
  21011062.125    -1389593.262 6  -1082798.61422
 91  4  6 20 43 45.0000000  0  4G18G11G14G19
  20371035.523     -709182.179 8   -552610.13122
  24038363.9614   -3199120.65845  -2492808.65661
  24135867.477     2360813.789 5   1839581.93921
  21006790.500    -1412046.595 6  -1100294.69722
 91  4  6 20 44  0.0000000  0  4G18G11G14G19
  20369398.2194    -717782.37548   -559311.59362
  24028535.3914   -3250777.31445  -2533060.41261
  24143340.0944    2400075.28345   1870175.06661
  21002523.734    -1434467.291 6  -1117765.35822
 91  4  6 20 44 15.0000000  0  4G18G11G14G19
  20367782.664     -726271.458 8   -565926.47322
  24018717.2504   -3302367.19545  -2573260.11861
  24150811.0864    2439329.99945   1900762.92661
  20998264.984    -1456848.602 6  -1135205.31722
 91  4  6 20 44 30.0000000  0  4G18G11G14G19
  20366186.711     -734658.393 8   -572461.75722
  24008909.9064   -3353898.81445  -2613414.43961
  24158278.3204    2478568.66744   1931338.27161
  20994012.898    -1479199.608 6  -1152621.67422
 91  4  6 20 44 45.0000000  0  4G18G11G14G19
  20364611.7894    -742938.01648   -578913.42162
  23999114.2274   -3405366.80545  -2653519.21461
  24165739.555     2517796.141 4   1961904.90021
  20989765.242    -1501515.281 6  -1170010.49422
 91  4  6 20 45  0.0000000  0  4G18G11G14G19
  20363057.047     -751108.636 8   -585280.14922
  23989335.242    -3456769.244 5  -2693572.86721
  24173206.2974    2557013.54644   1992463.67961
  20985525.523    -1523794.087 6  -1187370.58622
 91  4  6 20 45 15.0000000  0  4G18G11G14G19
  20361522.4384    -759173.03348   -591564.09963
  23979563.258    -3508108.174 5  -2733577.03521
  24180666.789     2596218.047 4   2023012.39821
  20981294.258    -1546038.686 6  -1204704.01922
 91  4  6 20 45 30.0000000  0  4G18G11G14G19
  20360008.0164    -767132.23148   -597766.07662
  23969808.8594   -3559384.69545  -2773532.58861
  24188125.070     2635407.705 4   2053549.55921
  20977067.406    -1568250.324 6  -1222011.77022
 91  4  6 20 45 45.0000000  0  5G18G11G14G19G 2
  20358513.625     -774982.809 8   -603883.43422
  23960063.836    -3610595.138 5  -2813436.65121
  24195579.125     2674585.588 4   2084077.55521
  20972845.633    -1590425.893 6  -1239291.41522
  24441651.9774         -0.69155
 91  4  6 20 46  0.0000000  0  5G18G11G14G19G 2
  20357051.359     -782667.468 8   -609871.48622
  23950341.7274   -3661681.50745  -2853244.00061
  24203040.6334    2713808.86544   2114640.91761
  20968644.281    -1612507.885 6  -1256498.14322
  24429479.0394     -63968.81145
 91  4  6 20 46 15.0000000  0  5G18G11G14G19G 2
  20355622.320     -790178.997 8   -615724.63622
  23940643.8834   -3712636.19445  -2892948.78561
  24210518.7974    2753084.27244   2145244.88561
  20964462.188    -1634489.210 6  -1273626.42822
  24417324.086     -127842.085 5
 91  4  6 20 46 30.0000000  0  4G18G11G19G 2
  20354214.414     -797580.178 8   -621491.80522
  23930960.1804   -3763521.60245  -2932599.56261
  20960286.836    -1656432.643 6  -1290725.18922
  24405174.727     -191683.067 5
 91  4  6 20 46 45.0000000  0  4G18G11G19G 2
  20352824.281     -804879.003 8   -627179.21722
  23921288.805    -3814345.552 5  -2972202.47221
  20956116.695    -1678346.469 6  -1307800.87922
  24393030.7584    -255499.65545        -0.23971
 91  4  6 20 47  0.0000000  0  4G18G11G19G 2
  20351456.133     -812070.981 8   -632783.37223
  23911631.1024   -3865103.53945  -3011753.97161
  20951950.352    -1700226.471 6  -1324850.22022
  24380892.352     -319287.695 5    -49704.96321
 91  4  6 20 47 15.0000000  0  4G18G11G19G 2
  20350109.227     -819151.458 8   -638300.63922
  23901985.844    -3915790.364 5  -3051250.01521
  20947796.070    -1722067.891 6  -1341869.48322
  24368760.1094    -383042.21945    -99383.57861
 91  4  6 20 47 30.0000000  0  4G18G11G19G 2
  20348781.797     -826124.679 8   -643734.33222
  23892352.7584   -3966409.73745  -3090693.52161
  20943645.5314   -1743874.77946  -1358861.85062
  24356635.867     -446767.079 5   -149039.00521
 91  4  6 20 47 45.0000000  0  4G18G11G19G 2
  20347475.852     -832989.943 8   -649083.90523
  23882734.195    -4016960.714 5  -3130083.72121
  20939502.773    -1765646.800 6  -1375827.04222
  24344514.586     -510461.536 5   -198670.79821
 91  4  6 20 48  0.0000000  0  4G18G11G19G 2
  20346189.938     -839745.369 8   -654347.89323
  23873128.242    -4067440.921 5  -3169418.77521
  20935364.625    -1787382.279 6  -1392763.76022
  24332398.922     -574123.499 5   -248277.29321
 91  4  6 20 48 15.0000000  0  4G18G11G19G 2
  20344926.008     -846391.376 8   -659526.61622
  23863533.8984   -4117850.47445  -3208698.75961
  20931237.492    -1809081.704 6  -1409672.38422
  24320290.1094    -637753.40145   -297858.76161
 91  4  6 20 48 30.0000000  0  4G18G11G19G 2
  20343680.227     -852932.289 8   -664623.44923
  23853954.6484   -4168193.54846  -3247926.96361
  20927113.320    -1830749.462 6  -1426556.33322
  24308186.844     -701355.599 5   -347418.62321
 91  4  6 20 48 45.0000000  0  4G18G11G19G 2
  20342455.867     -859368.137 8   -669638.41422
  23844386.906    -4218469.598 6  -3287102.93521
  20922997.492    -1852385.355 6  -1443415.45222
  24296088.3914    -764929.63445   -396956.61261
 91  4  6 20 49  0.0000000  0  4G18G11G19G 2
  20341253.328     -865691.904 8   -674566.04222
  23834833.008    -4268671.365 5  -3326221.03721
  20918887.016    -1873982.619 6  -1460244.47122
  24283996.391     -828468.449 5   -446467.09021
 91  4  6 20 49 15.0000000  0  4G18G11G19G 2
  20340071.484     -871903.968 8   -679406.63622
  23825293.0784   -4318798.99446  -3365281.36761
  20914784.781    -1895541.928 6  -1477043.91822
  24271912.1804    -891972.33845   -495950.35861
 91  4  6 20 49 30.0000000  0  4G18G11G19G 2
  20338909.133     -878013.560 8   -684167.37622
  23815768.422    -4368861.129 6  -3404290.66921
  20910685.336    -1917072.350 6  -1493820.85522
  24259836.219     -955450.294 5   -545413.50121
 91  4  6 20 49 45.0000000  0  4G18G11G19G 2
  20337765.602     -884016.124 8   -688844.71822
  23806253.766    -4418853.140 5  -3443245.32421
  20906595.883    -1938569.565 6  -1510571.91822
  24247758.953    -1018898.098 5   -594853.05621
 91  4  6 20 50  0.0000000  0  4G18G11G19G 2
  20336642.836     -889915.346 8   -693441.53122
  23796753.352    -4468778.179 5  -3482147.78721
  20902510.578    -1960037.228 6  -1527299.95522
  24235691.2664   -1082319.07045   -644271.73761
 91  4  6 20 50 15.0000000  0  4G18G11G19G 2
  20335541.070     -895705.574 8   -697953.41422
  23787267.2814   -4518630.33145  -3520993.47161
  20898433.625    -1981469.909 6  -1544000.73022
  24223627.508    -1145707.339 5   -693664.95321
 91  4  6 20 50 45.0000000  0  4G18G11G19G 2
  20333718.523       -4281.966 8
  23768652.492      -48415.412 5
  20890611.727      -20073.591 6
  24199838.1484     -62033.02445
 91  4  6 20 51  0.0000000  0  4G18G11G19G 2
  20332924.563       -8450.129 8        -0.46932
  23759455.813      -96751.767 5        -0.43631
  20886800.5314     -40106.70746
  24188038.4534    -124027.47945
 91  4  6 20 51 15.0000000  0  4G18G11G19G 2
  20332151.5394     -12513.00248     -3166.37162
  23750270.805     -145017.623 5    -37610.05321
  20882994.953      -60108.855 6        -0.19532
  24176250.016     -185992.455 5        -0.28731
 91  4  6 20 51 30.0000000  0  4G18G11G19G 2
  20331399.008      -16463.443 8     -6244.66023
  23741100.2344    -193205.20445    -75158.66361
  20879194.3834     -80072.62746    -15556.37562
  24164465.500     -247920.402 5    -48255.60721
 91  4  6 20 51 45.0000000  0  4G18G11G19G 2
  20330668.281      -20303.767 8     -9237.13922
  23731945.6804    -241316.61545   -112647.92061
  20875404.953     -100000.718 6    -31084.74622
  24152686.9384    -309813.73745    -96483.91661
 91  4  6 20 52  0.0000000  0  4G18G11G19G 2
  20329959.367      -24034.023 8    -12143.85122
  23722802.7034    -289351.45045   -150077.51261
  20871617.7814    -119893.20146    -46585.36562
  24140915.688     -371672.183 5   -144685.07721
 91  4  6 20 52 15.0000000  0  4G18G11G19G 2
  20329268.328      -27659.668 8    -14969.04923
  23713679.281     -337315.026 6   -187451.58521
  20867840.1724    -139755.74446    -62062.66862
  24129148.141     -433501.343 5   -192863.41821
 91  4  6 20 52 30.0000000  0  4G18G11G19G 2
  20328600.984      -31175.279 8    -17708.50023
  23704562.977     -385201.528 5   -224765.57921
  20864063.8594    -159582.90246    -77512.39362
  24117390.547     -495295.681 5   -241014.58121
 91  4  6 20 52 45.0000000  0  4G18G11G19G 2
  20327951.352      -34584.035 8    -20364.69923
  23695466.148     -433013.618 5   -262021.62321
  20860300.906     -179377.859 6    -92937.02522
  24105638.750     -557058.080 5   -289140.88421
 91  4  6 20 53  0.0000000  0  4G18G11G19G 2
  20327323.250      -37884.695 8    -22936.66023
  23686382.3524    -480749.72046   -299218.45161
  20856538.2664    -199139.16446   -108335.43662
  24093890.7344    -618787.13545   -337241.22961
 91  4  6 20 53 15.0000000  0  4G18G11G19G 2
  20326716.492      -41073.084 8    -25421.14023
  23677313.563     -528405.372 5   -336352.57121
  20852784.8674    -218863.01746   -123704.66262
  24082151.570     -680478.562 5   -385312.21221
 91  4  6 20 53 30.0000000  0  4G18G11G19G 2
  20326131.727      -44149.659 8    -27818.49223
  23668258.883     -575980.766 5   -373424.15821
  20849036.6564    -238550.02446   -139045.17662
  24070417.586     -742132.750 5   -433354.21321
 91  4  6 20 53 45.0000000  0  4G18G11G19G 2
  20325568.539      -47105.881 8    -30122.06123
  23659226.039     -623467.064 6   -410426.32621
  20845301.000     -258191.763 6   -154350.41822
  24058694.195     -803741.136 5   -481360.52921
 91  4  6 20 54  0.0000000  0  4G18G11G19G 2
  20325027.953      -49947.656 8    -32336.45023
  23650203.2274    -670869.68445   -447363.29761
  20841572.4694    -277793.94346   -169624.83562
  24046979.992     -865309.419 5   -529335.56721
 91  4  6 20 54 15.0000000  0  4G18G11G19G 2
  20324508.414      -52680.968 8    -34466.32523
  23641197.516     -718194.202 5   -484239.40721
  20837848.1094    -297362.62146   -184873.14362
  24035269.539     -926843.288 5   -577283.82121
 91  4  6 20 54 29.9990000  0  4G18G11G19G 2
  20324007.409      -55309.092 8    -36514.23423
  23632206.9724    -765440.47045   -521054.55461
  20834131.1124    -316899.96846   -200097.04262
  24023565.792     -988342.015 5   -625204.68321
 91  4  6 20 54 44.9990000  0  4G18G11G19G 2
  20323528.339      -57829.639 8    -38478.32023
  23623231.3474    -812611.82145   -557811.30661
  20830420.0264    -336406.01346   -215296.54562
  24011868.3154   -1049810.89245   -673102.28161
 91  4  6 20 54 59.9990000  0  4G18G11G19G 2
  20323069.519      -60236.498 8    -40353.81622
  23614271.362     -859698.784 6   -594502.31521
  20826713.5114    -355873.53746   -230466.03962
  24000177.956    -1111239.679 5   -720968.64721
 91  4  6 20 55 14.9990000  0  4G18G11G19G 2
  20322632.1054     -62537.35948    -42146.72263
  23605325.0264    -906708.72346   -631133.29261
  20823014.308     -375310.184 6   -245611.46722
  23988494.0194   -1172635.93545   -768809.66561
 91  4  6 20 55 29.9990000  0  4G18G11G19G 2
  20322214.620      -64732.491 8    -43857.23323
  23596394.597     -953641.578 6   -667704.20621
  20819317.8944    -394716.49546   -260733.25962
  23976818.1364   -1233999.82245   -816625.47961
 91  4  6 20 55 44.9990000  0  4G18G11G19G 2
  20321818.948      -66814.927 8    -45479.93422
  23587477.2374   -1000490.09446   -704209.39761
  20815635.737     -414085.462 6   -275825.94722
  23965148.792    -1295324.147 5   -864410.43121
 91  4  6 20 55 59.9990000  0  4G18G11G19G 2
  20321444.440      -68782.947 8    -47013.47423
  23578578.4014   -1047252.24146   -740647.27461
  20811955.8084    -433415.34546   -290888.17962
  23953487.9564   -1356607.25345   -912163.30061
 91  4  6 20 56 14.9990000  0  4G18G11G19G 2
  20321092.003      -70634.681 8    -48456.40623
  23569696.0814   -1093925.60246   -777015.98461
  20808286.292     -452704.367 6   -305918.57323
  23941833.440    -1417847.100 5   -959882.45821
 91  4  6 20 56 29.9990000  0  4G18G11G19G 2
  20320763.9174     -72363.95948    -49803.92063
  23560833.636    -1140503.728 6   -813310.49621
  20804624.9334    -471946.46546   -320912.40462
  23930186.7614   -1479037.39545  -1007563.00461
 91  4  6 20 56 44.9990000  0  4G18G11G19G 2
  20320453.612      -73986.493 8    -51068.25323
  23551984.722    -1187001.981 6   -849542.76021
  20800970.972     -491157.293 6   -335881.86722
  23918551.440    -1540193.605 5  -1055216.98021
 91  4  6 20 56 59.9990000  0  4G18G11G19G 2
  20320166.2764     -75498.30748    -52246.31563
  23543154.120    -1233415.814 6   -885709.24421
  20797321.2614    -510332.86046   -350823.85362
  23906922.0034   -1601311.30245  -1102840.96061
 91  4  6 20 57 14.9990000  0  4G18G11G19G 2
  20319899.675      -76899.591 8    -53338.24723
  23534336.909    -1279745.140 6   -921809.85421
  20793678.667     -529473.471 6   -365738.59822
  23895298.198    -1662390.716 5  -1150435.10721
 91  4  6 20 57 29.9990000  0  4G18G11G19G 2
  20319655.862      -78184.750 8    -54339.69023
  23525538.8704   -1325984.08546   -957840.07961
  20790043.542     -548573.590 6   -380621.79222
  23883682.7694   -1723426.23745  -1197995.06361
 91  4  6 20 57 44.9990000  0  4G18G11G19G 2
  20319431.526      -79359.462 8    -55255.07423
  23516756.0504   -1372138.07846   -993804.07561
  20786415.917     -567638.841 6   -395477.81722
  23872074.5894   -1784423.42545  -1245525.14061
 91  4  6 20 57 59.9990000  0  4G18G11G19G 2
  20319228.964      -80421.709 8    -56082.82423
  23507988.3084   -1418204.72246  -1029700.01461
  20782796.105     -586667.530 6   -410305.35522
  23860474.0264   -1845380.22245  -1293023.75961
 91  4  6 20 58 14.9990000  0  4G18G11G19G 2
  20319048.8314     -81369.04048    -56821.02763
  23499239.253    -1464181.189 6  -1065525.69021
  20779181.1904    -605657.02346   -425102.35562
  23848881.4174   -1906293.73945  -1340488.64461
 91  4  6 20 58 29.9990000  0  4G18G11G19G 2
  20318890.987      -82205.538 8    -57472.86523
  23490506.815    -1510071.232 6  -1101284.02921
  20775570.909     -624611.599 6   -439872.13822
  23837299.315    -1967168.053 5  -1387922.98821
 91  4  6 20 58 44.9990000  0  4G18G11G19G 2
  20318752.112      -82926.524 8    -58034.69723
  23481790.745    -1555869.602 6  -1136970.91521
  20771974.956     -643526.224 6   -454610.79322
  23825721.870    -2027998.299 5  -1435322.99521
 91  4  6 20 58 59.9990000  0  4G18G11G19G 2
  20318637.597      -83539.803 8    -58512.60123
  23473091.9564   -1601583.73946  -1172592.17561
  20768383.7304    -662408.83046   -469324.50362
  23814153.7224   -2088791.97945  -1482694.51861
 91  4  6 20 59 14.9990000  0  4G18G11G19G 2
  20318538.284      -84038.789 8    -58901.44223
  23464409.690    -1647206.895 6  -1208142.54721
  20764795.526     -681253.332 6   -484008.51622
  23802594.605    -2149542.689 5  -1530032.53421
 91  4  6 20 59 29.9990000  0  4G18G11G19G 2
  20318467.253      -84421.179 8    -59199.42223
  23455746.4954   -1692736.24146  -1243619.80561
  20761216.5114    -700057.00046   -498660.71562
  23791044.3394   -2210247.61945  -1577334.89861
 91  4  6 20 59 44.9990000  0  4G18G11G19G 2
  20318419.956      -84685.325 8    -59405.28223
  23447100.9804   -1738169.90746  -1279022.52161
  20757648.675     -718818.458 6   -513280.02322
  23779498.1674   -2270905.28745  -1624600.42461
 91  4  6 20 59 59.9990000  0  4G18G11G19G 2
  20318388.378      -84834.508 8
  23438472.831    -1783510.640 6  -1314352.82121
  20754083.9874    -737540.92046   -527868.94262
  23767965.3394   -2331518.59245  -1671831.40361
 91  4  6 21  0 14.9990000  0  4G18G11G19G 2
  20318381.605      -84875.335 8
  23429861.6754   -1828764.48446  -1349615.42861
  20750528.855     -756230.593 6   -542432.31322
  23756437.0264   -2392093.62445  -1719032.55061
 91  4  6 21  0 29.9990000  0  4G18G11G19G 2
  20318397.378      -84803.904 8
  23421265.972    -1873927.639 6  -1384807.36121
  20746976.7614    -774884.14046   -556967.53862
  23744918.4724   -2452626.95245  -1766201.18161
 91  4  6 21  0 44.9990000  0  4G18G11G19G 2
  20318430.3314     -84618.92548
  23412689.0654   -1918998.42846  -1419927.32461
  20743434.5344    -793500.22246   -571473.56762
  23733408.8314   -2513116.98645  -1813336.09161
 91  4  6 21  0 59.9990000  0  4G18G11G19G 2
  20318488.980      -84325.567 7
  23404129.3474   -1963981.34246  -1454978.82361
  20739899.433     -812083.891 6   -585954.33822
  23721904.433    -2573568.511 5  -1860440.99921
 91  4  6 21  1 14.9990000  0  4G18G11G19G 2
  20318565.534      -83916.632 8    -58806.43523
  23395587.878    -2008869.080 6  -1489956.14121
  20736371.7844    -830627.94046   -600404.24062
  23710407.7064   -2633974.42745  -1907510.36161
 91  4  6 21  1 29.9990000  0  4G18G11G19G 2
  20318665.972      -83396.043 8    -58400.80623
  23387064.1444   -2053664.95746  -1524861.89861
  20732847.3554    -849136.29946   -614826.32962
  23698920.214    -2694338.215 5  -1954546.90821
 91  4  6 21  1 44.9990000  0  4G18G11G19G 2
  20318785.347      -82756.460 7    -57902.45123
  23378557.300    -2098361.556 6  -1559690.28121
  20729334.4254    -867601.92946   -629215.12962
  23687444.4874   -2754652.65045  -2001544.98161
 91  4  6 21  1 59.9990000  0  4G18G11G19G 2
  20318928.105      -82012.527 8    -57322.78723
  23370068.5504   -2142973.01546  -1594452.33161
  20725824.8394    -886039.53346   -643582.09062
  23675973.5654   -2814932.18645  -2048515.88761
 91  4  6 21  2 14.9990000  0  4G18G11G19G 2
  20319088.003      -81158.670 8    -56657.47023
  23361595.386    -2187493.191 6  -1629143.26221
  20722324.1054    -904443.20446   -657922.60662
  23664509.948    -2875170.903 5  -2095454.94121
 91  4  6 21  2 29.9990000  0  4G18G11G19G 2
  20319273.3314     -80191.05048    -55903.51063
  23353141.026    -2231918.163 6  -1663760.00421
  20718826.3554    -922809.12346   -672233.70962
  23653052.6514   -2935364.89545  -2142359.20261
 91  4  6 21  2 44.9990000  0  4G18G11G19G 2
  20319480.1124     -79106.59148    -55058.50663
  23344705.7844   -2276244.39446  -1698299.80261
  20715342.9174    -941134.29946   -686513.06662
  23641607.3704   -2995510.93645  -2189226.06261
 91  4  6 21  2 59.9990000  0  4G18G11G19G 2
  20319709.4404     -77901.12748    -54119.21263
  23336292.987    -2320467.341 6  -1732759.13021
  20711858.8234    -959414.65346   -700757.49562
  23630171.5424   -3055604.81745  -2236052.27961
 91  4  6 21  3 14.9990000  0  4G18G11G19G 2
  20319960.8784     -76584.31348    -53093.15163
  23327893.980    -2364596.355 6  -1767145.24721
  20708390.0974    -977659.82546   -714974.51362
  23618745.9094   -3115655.93545  -2282845.19161
 91  4  6 21  3 29.9990000  0  4G18G11G19G 2
  20320232.0734     -75153.06948    -51977.92563
  23319515.917    -2408627.926 6  -1801455.45221
  20704925.1754    -995866.66446   -729161.65762
  23607326.534    -3175661.032 5  -2329602.22521
 91  4  6 21  3 44.9990000  0  4G18G11G19G 2
  20320527.331      -73607.516 8    -50773.62523
  23311151.6054   -2452561.78746  -1835689.50761
  20701469.8784   -1014035.38546   -743319.10162
  23595917.5814   -3235619.96545  -2376323.30561
 91  4  6 21  3 59.9990000  0  4G18G11G19G 2
  20320842.7764     -71946.24047    -49479.15763
  23302812.3084   -2496395.96246  -1869845.89061
  20698017.4174   -1032164.41846   -757445.61762
  23584516.6674   -3295531.00745  -2423007.05961
 91  4  6 21  4 14.9990000  0  4G18G11G19G 2
  20321180.3314     -70172.20948    -48096.82563
  23294488.011    -2540133.235 6  -1903926.77121
  20694575.4874   -1050256.79146   -771543.56162
  23573124.230    -3355397.001 5  -2469655.72621
 91  4  6 21  4 29.9990000  0  4G18G11G19G 2
  20321538.7534     -68293.28847    -46632.76363
  23286185.433    -2583781.229 6  -1937938.08321
  20691139.6984   -1068320.39546   -785619.09862
  23561737.800    -3415225.799 5  -2516275.36821
 91  4  6 21  4 44.9990000  0  4G18G11G19G 2
  20321919.3234     -66287.58748    -45069.91363
  23277900.5504   -2627317.54646  -1971862.35861
  20687710.7064   -1086333.47746   -799655.25462
  23550366.3084   -3474995.45045  -2562848.93861
 91  4  6 21  4 59.9990000  0  4G18G11G19G 2
  20322323.9014     -64161.16347    -43412.99163
  23269633.987    -2670747.815 6  -2005704.01921
  20684289.5974   -1104301.95246   -813656.66162
  23539004.347    -3534711.711 5  -2609380.92221
 91  4  6 21  5 14.9990000  0  4G18G11G19G 2
  20322749.4724     -61930.12147    -41674.55263
  23261387.019    -2714087.888 6  -2039475.39321
  20680878.7224   -1122241.88946   -827635.82662
  23527644.308    -3594390.558 5  -2655883.74421
 91  4  6 21  5 29.9990000  0  4G18G11G19G 2
  20323196.2374     -59580.54947    -39843.74663
  23253159.7614   -2757323.35646  -2073165.25761
  20677471.5504   -1140139.51246   -841582.01462
  23516297.964    -3654017.811 5  -2702346.36721
 91  4  6 21  5 44.9990000  0  4G18G11G19G 2
  20323664.4874     -57116.74847    -37923.93563
  23244951.425    -2800458.259 6  -2106776.75821
  20674074.6124   -1157999.09246   -855498.56262
  23504959.620    -3713597.587 5  -2748771.99521
 91  4  6 21  5 59.9990000  0  4G18G11G19G 2
  20324154.7454     -54540.76347    -35916.70663
  23236762.909    -2843494.210 6  -2140311.14521
  20670680.2844   -1175822.47846   -869386.90962
  23493631.3234   -3773131.88545  -2795162.17761
 91  4  6 21  6 14.9990000  0  4G18G11G19G 2
  20324666.5504     -51855.93548    -33824.66663
  23228591.4094   -2886434.18846  -2173770.74361
  20667296.9334   -1193613.08546   -883249.71362
  23482313.042    -3832623.907 5  -2841519.41721
 91  4  6 21  6 29.9990000  0  4G18G11G19G 2
  20325199.7924     -49050.76548    -31638.85563
  23220439.0264   -2929266.37046  -2207146.34461
  20663920.3004   -1211359.47246   -897078.05562
  23470999.417    -3892061.881 5  -2887834.54621
 91  4  6 21  6 44.9990000  0  4G18G11G19G 2
  20325756.7454     -46125.53348    -29359.48863
  23212310.198    -2971990.665 6  -2240437.89321
  20660550.2614   -1229061.85646   -910872.11562
  23459699.347    -3951446.118 5  -2934107.80521
 91  4  6 21  6 59.9990000  0  4G18G11G19G 2
  20326333.4334     -43095.02947    -26998.09163
  23204197.370    -3014621.521 6  -2273656.60721
  20657187.8784   -1246735.03746   -924643.42162
  23448405.925    -4010790.952 5  -2980350.35721
 91  4  6 21  7 14.9990000  0  4G18G11G19G 2
  20326930.3784     -39954.63347    -24551.06563
  23196105.1674   -3057153.75446  -2306798.49661
  20653832.5584   -1264374.36846   -938388.34962
  23437121.3084   -4070091.35445  -3026558.29561
 91  4  6 21  7 29.9990000  0  4G18G11G19G 2
  20327550.3394     -36699.95348    -22014.98563
  23188029.105    -3099582.750 6  -2339859.91921
  20650483.3314   -1281975.43346   -952103.46162
  23425847.034    -4129343.101 5  -3072728.31721
 91  4  6 21  7 44.9990000  0  4G18G11G19G 2
  20328192.1904     -33326.02447    -19385.98463
  23179975.925    -3141903.186 6  -2372836.77421
  20647139.8004   -1299533.09246   -965784.74362
  23414579.9874   -4188541.08245  -3118856.44361
 91  4  6 21  7 59.9990000  0  4G18G11G19G 2
  20328854.2144     -29845.61947    -16674.01563
  23171940.0264   -3184127.57546  -2405738.76761
  20643803.5344   -1317060.30346   -979442.30162
  23403323.847    -4247698.137 5  -3164952.67921
 91  4  6 21  8 14.9990000  0  4G18G11G19G 2
  20329537.2224     -26258.86748    -13879.17763
  23163924.831    -3226255.733 6  -2438565.79621
  20640476.495    -1334557.344 6   -993076.34222
  23392073.308    -4306814.201 5  -3211016.96721
 91  4  6 21  8 29.9990000  0  4G18G11G19G 2
  20330242.7534     -22552.45447    -10991.09963
  23155929.558    -3268273.652 6  -2471306.89521
  20637152.0504   -1352010.63246  -1006676.29762
  23380834.253    -4365875.473 5  -3257038.57321
 91  4  6 21  8 44.9990000  0  4G18G11G19G 2
  20330968.5264     -18738.07348     -8018.88363
  23147951.4874   -3310192.51846  -2503970.82161
  20633839.065    -1369431.530 6  -1020251.01222
  23369605.886    -4424893.100 5  -3303026.16621
 91  4  6 21  8 59.9990000  0  4G18G11G19G 2
  20331715.9804     -14811.82848     -4959.51163
  23139992.7534   -3352008.56346  -2536554.63061
  20630532.331    -1386816.566 6  -1033797.77822
  23358382.675    -4483863.586 5  -3348977.03221
 91  4  6 21  9 14.9990000  0  4G18G11G19G 2
  20332484.7374     -10773.37048     -1812.69563
  23132057.0034   -3393720.88546  -2569057.62361
  20627230.620    -1404165.396 6  -1047316.33522
  23347171.112    -4542786.324 5  -3394890.68621
 91  4  6 21  9 29.9990000  0  4G18G11G19G 2
  20333275.3314      -6614.14548      1428.22763
  23124140.1984   -3435320.32946  -2601472.65061
  20623938.8154   -1421469.18646  -1060799.79562
  23335967.276    -4601652.296 5  -3440760.10721
 91  4  6 21  9 44.9990000  0  4G18G11G19G 2
  20334088.1594      -2344.09648      4755.50463
  23116244.245    -3476816.607 6  -2633807.28221
  20620651.792    -1438738.071 6  -1074256.05222
  23324774.6754   -4660471.29045  -3486592.93361
 91  4  6 21  9 59.9990000  0  4G18G11G19G 2
  20334921.0344       2035.11748      8167.84463
  23108366.5344   -3518211.10646  -2666062.61561
  20617371.011    -1455973.557 6  -1087686.28922
  23313590.4254   -4719245.07245  -3532390.52061
 91  4  6 21 10 14.9990000  0  4G18G11G19G 2
  20335776.6124       6526.67048     11667.72263
  23100509.4724   -3559500.36446  -2698235.93761
  20614098.831    -1473172.601 6  -1101088.13222
  23302415.034    -4777970.369 5  -3578150.33821
 91  4  6 21 10 29.9990000  0  4G18G11G19G 2
  20336652.9564      11134.15748     15257.93963
  23092673.3004   -3600680.07146  -2730323.90461
  20610835.144    -1490331.148 6  -1114458.41222
  23291250.5344   -4836642.93245  -3623869.05861
 91  4  6 21 10 44.9990000  0  4G18G11G19G 2
  20337551.0344      15852.05248     18934.18463
  23084856.933    -3641755.514 6  -2762330.62221
  20607574.558    -1507455.012 6  -1127801.66722
  23280094.7144   -4895268.35845  -3669551.04861
 91  4  6 21 10 59.9990000  0  4G18G11G19G 2
  20338472.2454      20688.62648     22702.90963
  23077061.2534   -3682718.10346  -2794249.40261
  20604321.4804   -1524535.90346  -1141111.44462
  23268948.2304   -4953838.17845  -3715189.70361
 91  4  6 21 11 14.9990000  0  4G18G11G19G 2
  20339412.5504      25634.87948     26557.09963
  23069286.0894   -3723576.57446  -2826087.05661
  20601080.948    -1541582.764 6  -1154394.69722
  23257810.6904   -5012361.34445  -3760792.02061
 91  4  6 21 11 29.9990000  0  4G18G11G19G 2
  20340376.0894      30694.64148     30499.73763
  23061531.0654   -3764326.59346  -2857840.20361
  20597846.206    -1558591.660 6  -1167648.36922
  23246684.0584   -5070833.96346  -3806354.93861
 91  4  6 21 11 44.9990000  0  4G18G11G19G 2
  20341360.6444      35868.99348     34531.66363
  23053798.6594   -3804966.63046  -2889507.63861
  20594615.183    -1575561.495 6  -1180871.60722
  23235566.2064   -5129254.39146  -3851877.19461
 91  4  6 21 11 59.9990000  0  4G18G11G19G 2
  20342365.8554      41158.64848     38653.43863
  23046084.3784   -3845495.63846  -2921088.56961
  20591390.917    -1592491.474 6  -1194063.77922
  23224459.886    -5187621.739 6  -3897358.09021
 91  4  6 21 12 14.9990000  0  4G18G11G19G 2
  20343394.6904      46562.06848     42863.86263
  23038393.4094   -3885914.71146  -2952583.84561
  20588179.394    -1609383.030 6  -1207226.01722
  23213365.019    -5245937.392 6  -3942798.69221
 91  4  6 21 12 29.9990000  0  4G18G11G19G 2
  20344445.9874      52082.83048     47165.71863
  23030723.214    -3926220.327 6  -2983990.70621
  20584972.0034   -1626232.92646  -1220355.79462
  23202276.3624   -5304197.97746  -3988196.39461
 91  4  6 21 12 44.9990000  0  4G18G11G19G 2
  20345519.2694      57722.62847     51560.32963
  23023075.7764   -3966410.26046  -3015307.43061
  20581773.355    -1643039.177 6  -1233451.55722
  23191201.4874   -5362401.28446  -4033549.46061
 91  4  6 21 12 59.9990000  0  4G18G11G19G 2
  20346611.8234      63465.82748     56035.51463
  23015446.901    -4006499.439 6  -3046545.63221
  20578580.487    -1659816.985 6  -1246525.16022
  23180131.5194   -5420562.62246  -4078869.83861
 91  4  6 21 13 14.9990000  0  4G18G11G19G 2
  20347727.8314      69326.23548     60602.02663
  23007839.284    -4046473.773 6  -3077694.35721
  20575397.019    -1676552.621 6  -1259565.89622
  23169074.401    -5478668.071 5  -4124146.63521
 91  4  6 21 13 29.9990000  0  4G18G11G19G 2
  20348861.8624      75294.45748     65252.55663
  23000254.1124   -4086342.44246  -3108760.76161
  20572217.159    -1693255.540 6  -1272581.14222
  23158026.081    -5536726.981 6  -4169387.19721
 91  4  6 21 13 44.9990000  0  4G18G11G19G 2
  20350020.9334      81378.71548     69993.50363
  22992687.4724   -4126096.86946  -3139738.11961
  20569046.964    -1709917.713 6  -1285564.64322
  23146989.644    -5594731.038 6  -4214585.01621
 91  4  6 21 13 59.9990000  0  4G18G11G19G 2
  20351200.6364      87581.05847     74826.46463
  22985144.534    -4165734.516 6  -3170624.48821
  20565885.4014   -1726536.72346  -1298514.50962
  23135962.878    -5652677.933 6  -4259738.27421
 91  4  6 21 14 14.9990000  0  4G18G11G19G 2
  20352402.7614      93894.26248     79745.81363
  22977623.565    -4205262.448 6  -3201425.37021
  20562730.683    -1743119.900 6  -1311436.45122
  23124943.2844   -5710574.75246  -4304852.53361
 91  4  6 21 14 29.9990000  0  4G18G11G19G 2
  20353625.9874     100323.84848     84755.84663
  22970123.9094   -4244674.32746  -3232135.81161
  20559580.3944   -1759661.46846  -1324325.97462
  23113936.2844   -5768415.23346  -4349922.87961
 91  4  6 21 14 44.9990000  0  4G18G11G19G 2
  20354870.2614     106863.91747     89851.96663
  22962645.792    -4283976.045 6  -3262760.42521
  20556441.058    -1776167.628 6  -1337187.90622
  23102939.1204   -5826205.54446  -4394954.13361
 91  4  6 21 14 59.9990000  0  4G18G11G19G 2
  20356139.1984     113523.40548     95041.14463
  22955189.0734   -4323158.07146  -3293291.77561
  20553306.3084   -1792629.09046  -1350015.01362
  23091953.9334   -5883936.38646  -4439939.06361
 91  4  6 21 15 14.9990000  0  4G18G11G19G 2
  20357426.4804     120296.93647    100319.18463
  22947754.3944   -4362225.61046  -3323733.91661
  20550183.378    -1809051.367 6  -1362811.57722
  23080980.2844   -5941613.13346  -4484881.83961
 91  4  6 21 15 29.9990000  0  4G18G11G19G 2
  20358737.2374     127183.11747    105685.00163
  22940341.0424   -4401179.53346  -3354087.54561
  20547063.2224   -1825435.62846  -1375578.52162
  23070012.636    -5999236.807 6  -4529783.24721
 91  4  6 21 15 44.9990000  0  4G18G11G19G 2
  20360068.7614     134180.33347    111137.34163
  22932949.1364   -4440021.22146  -3384353.69561
  20543954.4404   -1841783.44446  -1388317.06762
  23059055.3004   -6056808.98846  -4574644.53861
 91  4  6 21 15 59.9990000  0  4G18G11G19G 2
  20361422.1364     141289.09747    116676.60463
  22925580.4174   -4478749.72046  -3414531.65061
  20540849.073    -1858094.259 6  -1401026.78422
  23048111.667    -6114328.974 6  -4619465.15821
 91  4  6 21 16 14.9990000  0  4G18G11G19G 2
  20362796.6514     148513.19747    122305.73463
  22918233.6834   -4517360.68846  -3444618.03461
  20537754.745    -1874364.063 6  -1413704.54022
  23037174.909    -6171792.597 5  -4664241.86521
 91  4  6 21 16 29.9990000  0  4G18G11G19G 2
  20364192.4644     155847.74747    128020.93363
  22910907.190    -4555858.895 6  -3474616.53721
  20534663.1594   -1890597.91446  -1426354.28462
  23026251.097    -6229204.675 5  -4708978.40221
 91  4  6 21 16 44.9990000  0  4G18G11G19G 2
  20365609.8784     163294.48547    133823.54463
  22903602.6364   -4594242.19646  -3504525.51061
  20531582.1444   -1906793.85746  -1438974.49162
  23015335.081    -6286563.251 6  -4753673.25121
 91  4  6 21 16 59.9990000  0  4G18G11G19G 2
  20367046.2844     170850.67347    139711.44963
  22896321.089    -4632512.893 6  -3534346.75121
  20528507.0344   -1922954.64146  -1451567.29762
  23004432.4254   -6343870.81846  -4798328.36161
 91  4  6 21 17 14.9990000  0  4G18G11G19G 2
  20368507.6444     178526.21847    145692.35863
  22889061.1594   -4670660.75946  -3564072.27161
  20525440.409    -1939070.402 6  -1464125.02022
  22993536.6904   -6401117.25545  -4842935.82861
 91  4  6 21 17 29.9990000  0  4G18G11G19G 2
  20369989.901      186310.354 7    151757.87623
  22881822.190    -4708696.135 6  -3593710.15021
  20522379.9404   -1955151.71246  -1476655.90262
  22982653.808    -6458313.143 6  -4887503.91321
 91  4  6 21 17 44.9990000  0  4G18G11G19G 2
  20371492.3084     194208.53248    157912.25863
  22874605.3004   -4746613.13546  -3623255.77561
  20519327.9334   -1971192.96046  -1489155.56862
  22971779.769    -6515452.750 5  -4932028.14021
 91  4  6 21 17 59.9990000  0  4G18G11G19G 2
  20373016.206      202213.798 7    164150.08823
  22867412.636    -4784418.473 6  -3652714.41221
  20516281.9484   -1987201.04046  -1501629.38762
  22960917.3314   -6572542.94746  -4976513.86761
 91  4  6 21 18 14.9990000  0  4G18G11G19G 2
  20374560.5114     210329.53448    170473.99663
  22860240.440    -4822108.136 6  -3682082.90021
  20513243.1984   -2003172.51246  -1514074.67962
  22950059.026    -6629580.151 5  -5020958.30721
 91  4  6 21 18 29.9990000  0  4G18G11G19G 2
  20376126.6204     218561.17348    176888.22363
  22853091.815    -4859676.342 6  -3711356.75021
  20510208.3004   -2019101.71846  -1526487.04063
  22939219.683    -6686558.658 6  -5065357.00121
 91  4  6 21 18 44.9990000  0  4G18G11G19G 2
  20377714.7534     226907.62647    183391.91363
  22845965.292    -4897124.001 6  -3740536.66021
  20507189.8004   -2034989.75046  -1538867.31462
  22928388.206    -6743479.467 6  -5109710.74921
 91  4  6 21 18 59.9990000  0  4G18G11G19G 2
  20379324.612      235364.806 8    189981.88323
  22838862.9334   -4934454.90446  -3769625.58361
  20504171.8084   -2050840.82446  -1551218.79262
  22917565.362    -6800346.505 6  -5154022.58421
 91  4  6 21 19 14.9990000  0  4G18G11G19G 2
  20380954.409      243931.673 8    196657.31823
  22831780.0734   -4971669.53146  -3798623.92561
  20501162.605    -2066655.652 6  -1563542.02122
  22906754.956    -6857160.401 6  -5198293.01221
 91  4  6 21 19 29.9990000  0  4G18G11G19G 2
  20382607.1594     252617.07448    203425.13063
  22824722.550    -5008758.778 6  -3827524.55721
  20498162.0584   -2082425.51646  -1575830.21163
  22895953.589    -6913912.435 6  -5242515.24021
 91  4  6 21 19 44.9990000  0  4G18G11G19G 2
  20384282.0504     261417.65147    210282.68163
  22817687.948    -5045725.601 6  -3856329.79221
  20495168.9724   -2098153.46746  -1588085.75262
  22885164.644    -6970605.516 6  -5286691.52821
 91  4  6 21 19 59.9990000  0  4G18G11G19G 2
  20385978.7224     270333.81948    217230.31063
  22810675.995    -5082569.275 6  -3885039.08221
  20492183.6674   -2113839.17646  -1600308.37162
  22874388.690    -7027238.976 6  -5330821.36721
 91  4  6 21 20 14.9990000  0  4G18G11G19G 2
  20387697.6284     279369.21047    224270.83463
  22803690.1834   -5119285.86346  -3913649.34861
  20489207.636    -2129478.904 6  -1612495.16122
  22863624.894    -7083809.051 6  -5374901.80821
 91  4  6 21 20 29.9990000  0  4G18G11G19G 2
  20389437.1444     288510.30647    231393.72963
  22796723.9954   -5155888.37746  -3942170.71861
  20486234.3084   -2145086.08747  -1624656.59163
  22852866.526    -7140329.208 6  -5418943.35621
 91  4  6 21 20 44.9990000  0  4G18G11G19G 2
  20391198.9724     297768.77947    238608.08663
  22789783.0584   -5192364.71846  -3970593.76461
  20483276.4564   -2160648.94746  -1636783.48362
  22842127.190    -7196787.280 6  -5462936.52821
 91  4  6 21 20 59.9980000  0  4G18G11G19G 2
  20392984.0614     307142.14447    245911.96863
  22782865.193    -5228714.075 6  -3998917.86021
  20480321.3424   -2176168.15847  -1648876.36363
  22831393.686    -7253181.274 6  -5506879.77221
 91  4  6 21 21 14.9980000  0  4G18G11G19G 2
  20394787.7254     316627.06347    253302.76963
  22775970.107    -5264945.289 6  -4027149.89421
  20477377.7874   -2191650.04646  -1660940.16562
  22820670.779    -7309523.031 6  -5550782.30721
 91  4  6 21 21 29.9980000  0  4G18G11G19G 2
  20396613.6934     326223.61847    260780.56863
  22769099.514    -5301055.097 6  -4055287.32121
  20474438.7954   -2207092.95646  -1672973.58863
  22809961.0844   -7365808.09746  -5594640.65961
 91  4  6 21 21 44.9980000  0  4G18G11G19G 2
  20398462.2404     335936.36447    268348.89863
  22762250.889    -5337038.489 6  -4083326.25021
  20471508.5534   -2222492.23846  -1684973.02462
  22799261.568    -7422031.480 6  -5638450.96321
 91  4  6 21 21 59.9980000  0  4G18G11G19G 2
  20400332.5294     345763.33047    276006.23663
  22755428.873    -5372897.118 6  -4111267.96321
  20468585.9514   -2237849.63446  -1696939.81763
  22788573.959    -7478194.963 6  -5682214.58121
 91  4  6 21 22 14.9980000  0  4G18G11G19G 2
  20402224.912      355703.808 7    283752.01723
  22748627.897    -5408631.365 6  -4139112.76621
  20465670.2324   -2253166.16346  -1708874.77063
  22777897.693    -7534299.063 6  -5725931.93021
 91  4  6 21 22 29.9980000  0  4G18G11G19G 2
  20404136.2174     365756.77847    291585.45763
  22741851.3654   -5444241.73146  -4166861.03061
  20462763.4674   -2268442.51746  -1720778.41062
  22767234.2484   -7590344.57546  -5769603.62961
 91  4  6 21 22 44.9980000  0  4G18G11G19G 2
  20406073.428      375924.972 7    299508.68223
  22735098.795    -5479725.110 6  -4194510.34521
  20459865.639    -2283675.837 6  -1732648.51422
  22756579.186    -7646328.580 6  -5813227.40221
 91  4  6 21 22 59.9980000  0  4G18G11G19G 2
  20408029.037      386205.902 7    307519.74923
  22728371.7954   -5515083.54346  -4222062.30361
  20456976.1234   -2298868.42646  -1744486.89262
  22745936.0144   -7702253.42046  -5856805.08261
 91  4  6 21 23 14.9980000  0  4G18G11G19G 2
  20410007.889      396605.086 7    315622.96723
  22721668.061    -5550311.252 6  -4249512.38421
  20454091.014    -2314014.732 6  -1756289.19622
  22735306.2874   -7758113.35146  -5900332.17461
 91  4  6 21 23 29.9980000  0  4G18G11G19G 2
  20412007.467      407115.698 7    323813.00623
  22714986.9434   -5585414.63846  -4276865.60761
  20451214.8034   -2329121.47846  -1768060.68063
  22724688.0924   -7813914.92446  -5943813.79161
 91  4  6 21 23 44.9980000  0  4G18G11G19G 2
  20414029.451      417741.880 7    332093.10423
  22708332.217    -5620389.102 6  -4304118.34621
  20448350.3504   -2344184.21646  -1779797.87162
  22714081.561    -7869653.741 6  -5987246.50921
 91  4  6 21 23 59.9980000  0  4G18G11G19G 2
  20416074.897      428489.907 7    340468.14223
  22701702.100    -5655228.377 6  -4331265.76621
  20445495.4824   -2359196.94046  -1791496.08762
  22703489.1074   -7925323.56246  -6030625.47261
 91  4  6 21 24 14.9980000  0  4G18G11G19G 2
  20418141.865      439350.047 7    348930.54423
  22695096.7014   -5689941.88446  -4358315.18561
  20442644.7644   -2374169.12546  -1803162.71663
  22692906.006    -7980933.877 6  -6073958.05221
 91  4  6 21 24 29.9980000  0  4G18G11G19G 2
  20420230.123      450323.892 7    357481.54823
  22688513.2564   -5724527.37446  -4385264.84961
  20439801.8574   -2389098.96746  -1814796.35263
  22682332.8264   -8036482.65346  -6117242.70061
 91  4  6 21 24 44.9980000  0  4G18G11G19G 2
  20422339.318      461408.471 7    366118.83523
  22681957.9904   -5758987.45146  -4412116.79361
  20436970.0684   -2403989.46846  -1826399.33562
  22671774.7324   -8091972.74646  -6160481.61061
 91  4  6 21 24 59.9980000  0  4G18G11G19G 2
  20424470.139      472604.693 7    374843.12023
  22675423.701    -5793320.715 6  -4438869.92521
  20434143.0224   -2418839.31746  -1837970.63663
  22661225.8574   -8147402.85646  -6203673.77761
 91  4  6 21 25 14.9980000  0  4G18G11G19G 2
  20426622.100      483915.577 7    383656.74623
  22668914.1544   -5827524.01246  -4465521.77561
  20431326.8504   -2433645.60846  -1849508.00062
  22650691.7404   -8202770.04846  -6246816.92261
 91  4  6 21 25 29.9980000  0  4G18G11G19G 2
  20428797.912      495345.183 7    392562.88823
  22662432.4044   -5861592.69446  -4492068.73861
  20428515.7564   -2448404.09046  -1861008.10962
  22640165.9904   -8258069.74746  -6289907.47961
 91  4  6 21 25 44.9980000  0  4G18G11G19G 2
  20430993.334      506884.811 7    401554.75823
  22655973.600    -5895535.286 6  -4518517.44421
  20425717.2644   -2463123.25146  -1872477.57562
  22629653.053    -8313310.586 6  -6332952.17121
 91  4  6 21 25 59.9980000  0  4G18G11G19G 2
  20433210.959      518533.392 7    410631.53423
  22649537.2644   -5929352.44346  -4544868.40961
  20422921.4284   -2477804.18746  -1883917.25962
  22619153.037    -8368493.525 6  -6375951.74621
 91  4  6 21 26 14.9980000  0  4G18G11G19G 2
  20435447.748      530289.579 7    419792.13723
  22643125.787    -5963045.139 6  -4571122.37521
  20420136.1934   -2492448.12646  -1895328.11162
  22608666.0294   -8423619.64046  -6418907.03761
 91  4  6 21 26 29.9980000  0  4G18G11G19G 2
  20437705.732      542155.994 7    429038.64723
  22636738.6154   -5996610.23846  -4597276.93461
  20417358.3974   -2507052.15646  -1906707.87462
  22598183.3184   -8478685.72046  -6461815.55361
 91  4  6 21 26 44.9980000  0  4G18G11G19G 2
  20439985.639      554135.865 7    438373.55923
  22630375.7404   -6030044.38946  -4623329.44661
  20414587.5064   -2521613.11746  -1918054.06862
  22587718.990    -8533688.746 6  -6504674.94521
 91  4  6 21 26 59.9980000  0  4G18G11G19G 2
  20442285.037      566217.668 7    447787.90323
  22624036.6074   -6063358.54546  -4649288.45961
  20411818.9594   -2536142.17846  -1929375.41162
  22577263.490    -8588639.672 6  -6547493.73421
 91  4  6 21 27 14.9980000  0  4G18G11G19G 2
  20444605.498      578411.493 7    457289.53623
  22617721.498    -6096542.338 6  -4675145.89421
  20409064.1934   -2550629.24946  -1940664.03262
  22566817.732    -8643528.564 6  -6590264.18121
 91  4  6 21 27 29.9980000  0  4G18G11G19G 2
  20446947.475      590719.359 7    466880.03223
  22611433.2174   -6129593.72646  -4700900.15861
  20406314.4904   -2565072.37246  -1951918.41562
  22556382.279    -8698353.287 6  -6632984.63521
 91  4  6 21 27 44.9980000  0  4G18G11G19G 2
  20449309.990      603136.243 7    476555.48023
  22605168.811    -6162517.096 6  -4726554.65921
  20403575.2094   -2579476.24146  -1963142.20162
  22545962.537    -8753118.383 6  -6675658.62621
 91  4  6 21 27 59.9980000  0  4G18G11G19G 2
  20451695.303      615665.680 7    486318.63023
  22598926.4594   -6195308.38046  -4752106.24661
  20400840.2954   -2593836.98546  -1974332.39262
  22535551.701    -8807820.063 6  -6718283.19621
 91  4  6 21 28 14.9980000  0  4G18G11G19G 2
  20454100.826      628310.303 7    496171.53223
  22592713.9824   -6227964.64146  -4777552.61161
  20398119.1934   -2608152.11446  -1985487.03362
  22525155.381    -8862455.306 6  -6760856.00221
 91  4  6 21 28 29.9980000  0  4G18G11G19G 2
  20456528.076      641064.018 7    506109.44023
  22586523.225    -6260491.636 6  -4802898.24221
  20395399.3504   -2622427.55746  -1996610.74662
  22514771.287    -8917030.087 6  -6803381.68821
 91  4  6 21 28 44.9980000  0  4G18G11G19G 2
  20458977.451      653933.595 7    516137.62623
  22580358.912    -6292882.340 6  -4828137.68321
  20392694.3814   -2636656.36346  -2007698.12462
  22504398.8814   -8971537.62946  -6845854.98261
 91  4  6 21 28 59.9980000  0  4G18G11G19G 2
  20461447.467      666920.898 7    526257.55223
  22574222.209    -6325134.339 6  -4853269.03221
  20389994.0294   -2650836.41046  -2018747.50962
  22494038.670    -9025975.838 6  -6888274.25621
 91  4  6 21 29 14.9980000  0  4G18G11G19G 2
  20463941.014      680019.430 7    536464.15223
  22568110.748    -6357253.939 6  -4878297.22121
  20387305.3894   -2664974.21646  -2029763.97362
  22483690.928    -9080350.990 6  -6930644.38721
 91  4  6 21 29 29.9980000  0  4G18G11G19G 2
  20466453.334      693229.801 7    546757.90223
  22562023.3424   -6389240.19046  -4903221.49861
  20384623.7014   -2679069.01346  -2040746.92862
  22473355.662    -9134662.190 6  -6972964.69321
 91  4  6 21 29 44.9980000  0  4G18G11G19G 2
  20468988.654      706546.117 7    557134.20223
  22555961.3264   -6421098.51446  -4928046.09861
  20381948.9434   -2693126.49546  -2051700.80462
  22463032.053    -9188915.025 6  -7015239.51721
 91  4  6 21 29 59.9980000  0  4G18G11G19G 2
  20471543.443      719974.823 7    567598.07223
  22549924.2094   -6452822.14846  -4952765.75061
  20379280.0924   -2707139.90146  -2062620.33862
  22452720.3114   -9243102.90646  -7057463.72861
 91  4  6 21 30 14.9980000  0  4G18G11G19G 2
  20474120.514      733516.106 7    578149.67423
  22543913.3574   -6484410.65146  -4977380.10661
  20376623.8814   -2721109.32246  -2073505.59262
  22442420.5294   -9297225.40446  -7099636.98961
 91  4  6 21 30 29.9980000  0  4G18G11G19G 2
  20476720.498      747176.891 7    588794.38823
  22537929.318    -6515856.535 6  -5001883.31821
  20373974.8264   -2735027.40046  -2084350.84562
  22432137.482    -9351275.254 6  -7141753.64221
 91  4  6 21 30 44.9980000  0  4G18G11G19G 2
  20479340.881      760950.042 7    599526.66123
  22531969.7404   -6547166.56946  -5026280.67861
  20371335.1474   -2748901.05546  -2095161.48062
  22421862.467    -9405259.358 6  -7183819.06421
 91  4  6 21 30 59.9980000  0  4G18G11G19G 2
  20481984.451      774838.862 7    610349.06723
  22526040.865    -6578337.285 6  -5050569.47921
  20368701.8034   -2762726.97346  -2105934.92062
  22411603.3034   -9459174.42246  -7225830.68861
 91  4  6 21 31 14.9980000  0  4G18G11G19G 2
  20484647.428      788836.829 7    621256.51623
  22520132.842    -6609374.496 6  -5074754.24421
  20366080.9594   -2776511.37246  -2116676.00962
  22401356.631    -9513026.432 6  -7267793.17921
 91  4  6 21 31 29.9980000  0  5G18G11G16G19G 2
  20487331.482      802941.840 7    632247.37723
  22514252.139    -6640280.085 6  -5098836.44221
  23727520.4904         -0.65355
  20363466.1314   -2790256.23446  -2127386.28562
  22391119.178    -9566817.215 6  -7309707.96821
 91  4  6 21 31 44.9980000  0  5G18G11G16G19G 2
  20490036.811      817152.032 7    643320.20023
  22508393.373    -6671055.589 6  -5122817.28421
  23720830.7094     -35127.79945
  20360857.0294   -2803963.32646  -2138067.12662
  22380893.7404   -9620548.64546  -7351576.49661
 91  4  6 21 31 59.9980000  0  5G18G11G16G19G 2
  20492758.873      831461.240 7    654470.17623
  22502562.568    -6701707.020 6  -5146701.43921
  23714169.0684     -70140.48745
  20358253.6474   -2817638.93046  -2148723.43662
  22370678.451    -9674226.727 6  -7393403.45821
 91  4  6 21 32 14.9980000  0  5G18G11G16G19G 2
  20495503.787      845882.774 7    665707.68223
  22496755.6704   -6732220.63846  -5170478.21761
  23707533.795     -105024.754 5
  20355661.4364   -2831269.36646  -2159344.54862
  22360476.881    -9727837.901 6  -7435178.28821
 91  4  6 21 32 29.9980000  0  5G18G11G16G19G 2
  20498269.928      860417.451 7    677033.35023
  22490975.5374   -6762595.37346  -5194146.77561
  23700917.8734    -139780.07645
  20353076.4904   -2844853.83246  -2169929.84062
  22350290.7404   -9781381.19946  -7476900.22761
 91  4  6 21 32 44.9980000  0  5G18G11G16G19G 2
  20501056.647      875064.050 7    688446.23423
  22485220.6864   -6792831.84846  -5217707.60661
  23694327.600     -174406.978 5        -0.16131
  20350500.0534   -2858392.97046  -2180479.81062
  22340111.4514   -9834857.34946  -7518569.83861
 91  4  6 21 32 59.9980000  0  5G18G11G16G19G 2
  20503864.342      889822.031 7    699945.90123
  22479495.6314   -6822930.33346  -5241160.90361
  23687763.8974    -208905.71345    -26882.29261
  20347927.8894   -2871887.22646  -2190994.81262
  22329948.568    -9888266.766 6  -7560187.45621
 91  4  6 21 33 14.9980000  0  5G18G11G16G19G 2
  20506694.334      904686.826 7    711528.80323
  22473791.6864   -6852895.07846  -5264509.98661
  23681220.1624    -243280.66144    -53667.93561
  20345371.3814   -2885341.13246  -2201478.37062
  22319796.904    -9941613.725 6  -7601756.40521
 91  4  6 21 33 29.9980000  0  5G18G11G16G19G 2
  20509543.928      919662.657 7    723198.22723
  22468115.701    -6882721.584 6  -5287751.35321
  23674703.6474    -277527.54945    -80353.80461
  20342817.9824   -2898750.47946  -2211927.20362
  22309657.7724   -9994893.88146  -7643273.29261
 91  4  6 21 33 44.9980000  0  5G18G11G16G19G 2
  20512416.615      934759.539 7    734961.97223
  22462469.4674   -6912399.17046  -5310876.67861
  23668217.982     -311636.035 5   -106931.79921
  20340278.8114   -2912104.85246  -2222333.19662
  22299531.9364  -10048096.73446  -7684729.94861
 91  4  6 21 33 59.9980000  0  5G18G11G16G19G 2
  20515309.264      949961.569 7    746807.65923
  22456845.5534   -6941943.47446  -5333898.15061
  23661748.7954    -345621.59545   -133414.06961
  20337745.9434   -2925420.03246  -2232708.65962
  22289421.365   -10101238.140 6  -7726138.72721
 91  4  6 21 34 14.9980000  0  5G18G11G16G19G 2
  20518223.420      965268.744 7    758735.27223
  22451249.1544   -6971354.34946  -5356815.65361
  23655305.936     -379484.049 5   -159800.37021
  20335218.2484   -2938695.81046  -2243053.41362
  22279318.717   -10154317.935 6  -7767499.48721
 91  4  6 21 34 29.9980000  0  5G18G11G16G19G 2
  20521157.1004     980690.34347    770752.04163
  22445679.7484   -7000622.35346  -5379621.82161
  23648882.0764    -413214.15745   -186083.56061
  20332702.1624   -2951922.93046  -2253360.25062
  22269233.600   -10207326.719 6  -7808804.93021
 91  4  6 21 34 44.9980000  0  5G18G11G16G19G 2
  20524111.5294     996214.84447    782848.99763
  22440136.2724   -7029758.47846  -5402325.22261
  23642488.428     -446823.147 5   -212272.36721
  20330191.1394   -2965112.59746  -2263637.90462
  22259158.107   -10260275.716 6  -7850063.77221
 91  4  6 21 34 59.9980000  0  5G18G11G16G19G 2
  20527086.7094    1011849.28247    795031.61763
  22434617.740    -7058755.225 6  -5424920.01721
  23636117.936     -480303.460 5   -238360.90721
  20327689.4204   -2978257.69546  -2273880.83462
  22249094.553   -10313157.592 6  -7891270.31921
 91  4  6 21 35 14.9980000  0  5G18G11G16G19G 2
  20530081.4284    1027583.95547    807292.34163
  22429123.4594   -7087621.93346  -5447413.49161
  23629769.2014    -513664.60145   -264356.58361
  20325195.4754   -2991367.86746  -2284096.54362
  22239043.092   -10365981.875 6  -7932431.98421
 91  4  6 21 35 29.9980000  0  5G18G11G16G19G 2
  20533095.5064    1043427.56947    819637.95563
  22423657.6004   -7116349.48046  -5469798.52461
  23623449.0374    -546897.65445   -290252.47361
  20322710.7484   -3004433.88646  -2294277.85062
  22229002.936   -10418739.393 6  -7973541.63321
 91  4  6 21 35 44.9980000  0  5G18G11G16G19G 2
  20536130.5224    1059380.90047    832069.06063
  22418217.1934   -7144936.67246  -5492074.19461
  23617145.943     -580001.483 5   -316047.64021
  20320230.404    -3017454.737 6  -2304423.95422
  22218976.248   -10471429.154 6  -8014598.48321
 91  4  6 21 35 59.9980000  0  5G18G11G16G19G 2
  20539187.5534    1075439.53247    844582.21863
  22412803.3184   -7173387.93146  -5514243.93261
  23610867.5064    -612980.53045   -341745.58361
  20317760.3974   -3030435.04646  -2314538.47462
  22208960.990   -10524055.679 6  -8055606.05821
 91  4  6 21 36 14.9980000  0  5G18G11G16G19G 2
  20542263.8654    1091608.12947    857181.06563
  22407416.5454   -7201698.20446  -5536303.82761
  23604618.3184    -645829.98545   -367342.56661
  20315299.8344   -3043369.83046  -2324617.51562
  22198959.100   -10576613.897 6  -8096560.41321
 91  4  6 21 36 29.9980000  0  5G18G11G16G19G 2
  20545361.9204    1107886.59047    869865.52063
  22402054.5144   -7229867.22146  -5558253.64561
  23598392.139     -678549.320 5   -392838.12821
  20312848.3814   -3056259.25346  -2334661.21562
  22188971.639   -10629103.725 6  -8137461.46121
 91  4  6 21 36 44.9980000  0  5G18G11G16G19G 2
  20548477.4984    1124258.53747    882622.82463
  22396719.7954   -7257910.78246  -5580105.71161
  23592184.4124    -711154.69145   -418244.89961
  20310400.2014   -3069118.94946  -2344681.75162
  22178994.287   -10681540.944 6  -8178321.52921
 91  4  6 21 36 59.9980000  0  5G18G11G16G19G 2
  20551613.7014    1140739.24347    895464.87463
  22391409.2324   -7285813.17246  -5601847.76461
  23586012.3734    -743630.80245   -443550.94861
  20307958.9984   -3081933.63146  -2354667.20962
  22169028.654   -10733910.085 6  -8219128.54521
 91  4  6 21 37 14.9980000  0  5G18G11G16G19G 2
  20554772.8504    1157341.42547    908401.57763
  22386130.107    -7313561.523 6  -5623469.79921
  23579859.6394    -775964.64145   -468746.13261
  20305532.9674   -3094690.49946  -2364607.62062
  22159078.303   -10786198.334 6  -8259872.53421
 91  4  6 21 37 29.9980000  0  5G18G11G16G19G 2
  20557953.8424    1174051.60247    921422.43163
  22380875.0684   -7341169.07346  -5644982.12161
  23573723.4514    -808169.72045   -493840.99961
  20303113.8114   -3107402.93246  -2374513.40562
  22149139.3184  -10838419.17946  -8300564.00261
 91  4  6 21 37 44.9980000  0  5G18G11G16G19G 2
  20561152.5064    1190867.97847    934526.04463
  22375647.8574   -7368637.05646  -5666385.68661
  23567620.303     -840247.049 5   -518836.30021
  20300703.4754   -3120072.26846  -2384385.60862
  22139214.811   -10890573.925 6  -8341203.95821
 91  4  6 21 37 59.9980000  0  5G18G11G16G19G 2
  20564374.4434    1207798.98347    947718.97463
  22370450.2954   -7395956.89546  -5687673.81461
  23561544.201     -872187.945 5   -543725.28821
  20298300.8034   -3132690.08946  -2394217.66862
  22129302.8504  -10942653.94646  -8381785.69661
 91  4  6 21 38 14.9980000  0  5G18G11G16G19G 2
  20567615.475     1224826.631 7    960987.21323
  22365275.029    -7423145.962 6  -5708860.03521
  23555490.7954    -904010.36745   -568521.98761
  20295908.1474   -3145274.12746  -2404023.40362
  22119403.068   -10994676.982 6  -8422323.02321
 91  4  6 21 38 29.9980000  0  5G18G11G16G19G 2
  20570877.1394    1241965.24147    974341.91763
  22360129.4124   -7450189.78446  -5729933.08061
  23549458.7254    -935699.70045   -593214.98461
  20293520.2014   -3157810.03246  -2413791.63762
  22109517.6704  -11046628.57546  -8462804.69161
 91  4  6 21 38 44.9980000  0  5G18G11G16G19G 2
  20574158.732     1259212.273 7    987781.11123
  22355010.943    -7477090.647 6  -5750894.74021
  23543454.2254    -967258.48845   -617806.24261
  20291145.7404   -3170300.11246  -2423524.16262
  22099643.8734  -11098510.89046  -8503232.36761
 91  4  6 21 38 59.9980000  0  5G18G11G16G19G 2
  20577461.9124    1276573.27647   1001309.10163
  22349918.7094   -7503842.54346  -5771740.32261
  23537477.9674    -998680.95745   -642291.28961
  20288778.0764   -3182738.57746  -2433216.46962
  22089787.334   -11150318.296 6  -8543601.67621
 91  4  6 21 39 14.9980000  0  5G18G11G16G19G 2
  20580785.7874    1294042.55447   1014921.46463
  22344856.084    -7530450.964 6  -5792474.10421
  23531520.779    -1029972.516 5   -666674.32921
  20286419.193    -3195131.037 6  -2442872.91622
  22079941.381   -11202056.252 6  -8583916.86821
 91  4  6 21 39 29.9980000  0  5G18G11G16G19G 2
  20584129.506     1311609.610 7   1028610.02423
  22339817.514    -7556926.104 6  -5813104.03221
  23525587.584    -1061143.300 5   -690963.26521
  20284067.3734   -3207487.77946  -2452501.54862
  22070106.272   -11253735.150 6  -8624186.03421
 91  4  6 21 39 44.9980000  0  5G18G11G16G19G 2
  20587493.1234    1329289.91447   1042386.82363
  22334807.764    -7583251.964 6  -5833617.63121
  23519681.5144   -1092177.71845   -715145.93761
  20281729.8974   -3219793.01046  -2462090.03962
  22060287.2794  -11305339.03046  -8664396.75761
 91  4  6 21 39 59.9980000  0  5G18G11G16G19G 2
  20590879.0534    1347081.08547   1056250.01263
  22329826.5224   -7609430.65946  -5854016.55661
  23513804.7324   -1123077.93345   -739224.01761
  20279394.5374   -3232048.91446  -2471640.09062
  22050478.6394  -11356870.09846  -8704550.73361
 91  4  6 21 40 14.9980000  0  5G18G11G16G19G 2
  20594288.5614    1364988.26347   1070203.59163
  22324873.061    -7635456.734 6  -5874296.56521
  23507949.006    -1153838.218 5   -763193.07621
  20277074.3114   -3244250.30746  -2481147.66662
  22040689.2644  -11408322.99946  -8744643.81261
 91  4  6 21 40 29.9980000  0  5G18G11G16G19G 2
  20597714.1934    1382993.96647   1084233.95363
  22319946.8424   -7661347.15246  -5894470.85561
  23502118.3654   -1184475.82845   -787066.54061
  20274756.3424   -3256414.20746  -2490626.03262
  22030910.8814  -11459714.68446  -8784689.17861
 91  4  6 21 40 44.9980000  0  5G18G11G16G19G 2
  20601160.6864    1401107.05547   1098347.98863
  22315047.732    -7687092.880 6  -5914532.41421
  23496313.0844   -1214982.06145   -810837.63461
  20272453.3504   -3268531.71846  -2500068.24662
  22021142.3344  -11511036.06346  -8824679.76661
 91  4  6 21 40 59.9980000  0  5G18G11G16G19G 2
  20604627.1314    1419324.16547   1112543.07663
  22310176.1004   -7712697.21246  -5934483.78861
  23490530.3814   -1245360.15745   -834508.87361
  20270153.3114   -3280606.16546  -2509476.91362
  22011389.7014  -11562290.78346  -8864618.41061
 91  4  6 21 41 14.9980000  0  5G18G11G16G19G 2
  20608114.4594    1437645.85447   1126819.65663
  22305329.818    -7738158.793 6  -5954323.93421
  23484776.8814   -1275608.77145   -858079.22761
  20267865.7874   -3292636.39646  -2518851.11762
  22001648.1704  -11613477.46646  -8904504.04261
 91  4  6 21 41 29.9980000  0  5G18G11G16G19G 2
  20611620.6704    1456069.03247   1141175.31463
  22300511.670    -7763480.408 6  -5974055.01821
  23479043.3734   -1305730.77845   -881550.91361
  20265583.3814   -3304625.31546  -2528193.13362
  21991919.1234  -11664599.13946  -8944339.01261
 91  4  6 21 41 44.9980000  0  5G18G11G16G19G 2
  20615146.7324    1474601.26447   1155615.95563
  22295720.6474   -7788654.35746  -5993671.03161
  23473338.654    -1335718.599 5   -904918.07421
  20263312.2254   -3316565.31446  -2537497.03162
  21982207.5374  -11715647.98346  -8984117.23261
 91  4  6 21 41 59.9980000  0  5G18G11G16G19G 2
  20618693.2014    1493238.69547   1170138.56763
  22290956.982    -7813684.213 6  -6013174.76721
  23467656.7644   -1365576.01845   -928183.59061
  20261049.6864   -3328460.17146  -2546765.75162
  21972505.7324  -11766627.81846  -9023841.68361
 91  4  6 21 42 14.9980000  0  5G18G11G16G19G 2
  20622259.2484    1511975.65447   1184738.73263
  22286220.584    -7838575.168 6  -6032570.27021
  23462000.8344   -1395308.49745   -951351.75861
  20258792.6004   -3340315.19246  -2556003.42962
  21962815.139   -11817544.111 6  -9063516.61721
 91  4  6 21 42 29.9980000  0  5G18G11G16G19G 2
  20625845.3814    1530825.73547   1199427.04163
  22281512.897    -7863313.245 6  -6051846.64321
  23456367.0454   -1424902.03145   -974411.65461
  20256545.1004   -3352116.74346  -2565199.44562
  21953144.342   -11868382.944 6  -9103131.18921
 91  4  6 21 42 44.9980000  0  5G18G11G16G19G 2
  20629451.1624    1549774.31347   1214192.10063
  22276833.459    -7887912.882 6  -6071015.14721
  23450759.1004   -1454371.02045   -997374.51261
  20254309.2174   -3363879.31446  -2574365.09362
  21943480.4284  -11919158.58446  -9142696.52761
 91  4  6 21 42 59.9980000  0  5G18G11G16G19G 2
  20633077.3184    1568824.29847   1229036.17863
  22272178.256    -7912370.648 6  -6090073.10221
  23445176.1864   -1483712.24445  -1020237.80761
  20252077.8424   -3375599.33546  -2583497.57863
  21933829.6704  -11969867.83446  -9182210.12661
 91  4  6 21 43 14.9980000  0  5G18G11G16G19G 2
  20636722.0614    1587982.05447   1243964.22763
  22267551.928    -7936679.997 6  -6109015.40421
  23439615.7404   -1512919.21345  -1042996.49261
  20249856.3574   -3387270.25446  -2592591.80762
  21924194.8344  -12020504.18746  -9221666.92861
 91  4  6 21 43 29.9980000  0  5G18G11G16G19G 2
  20640388.8894    1607248.00847   1258976.59463
  22262954.873    -7960840.220 6  -6127841.49921
  23434086.404    -1541991.322 5  -1065650.09921
  20247643.4984   -3398891.73346  -2601647.50462
  21914571.9364  -12071066.93246  -9261066.37661
 91  4  6 21 43 44.9980000  0  6G18G11G16G19G 2G 6
  20644074.6234    1626617.00147   1274069.25063
  22258384.881    -7984856.526 6  -6146555.45621
  23428577.545    -1570933.681 5  -1088202.61721
  20245442.6394   -3410468.85546  -2610668.64463
  21904962.2254  -12121561.25346  -9300412.50961
  23721838.6394         -0.62254
 91  4  6 21 43 59.9980000  0  6G18G11G16G19G 2G 6
  20647780.3424    1646093.38047   1289245.58263
  22253842.959    -8008723.720 6  -6165153.22221
  23423093.0764   -1599741.23045  -1110650.04661
  20243250.0144   -3421996.62346  -2619651.32762
  21895369.1004  -12171982.15646  -9339701.42461
  23713040.7324     -46231.78044
 91  4  6 21 44 14.9980000  0  6G18G11G16G19G 2G 6
  20651506.6704    1665671.85647   1304501.47463
  22249328.748    -8032446.916 6  -6183638.78221
  23417637.279    -1628419.432 5  -1132996.72021
  20241064.0764   -3433480.49746  -2628599.80362
  21885786.2794  -12222334.95146  -9378937.27661
  23704246.2874     -92457.17844
 91  4  6 21 44 29.9980000  0  6G18G11G16G19G 2G 6
  20655253.9124    1685360.67147   1319843.34263
  22244843.5064   -8056017.27946  -6202005.26161
  23412210.7094   -1656959.48345  -1155235.74061
  20238889.3114   -3444911.76446  -2637507.28762
  21876221.6544  -12272610.88746  -9418113.23261
  23695448.0224    -138668.24244
 91  4  6 21 44 44.9980000  0  6G18G11G16G19G 2G 6
  20659018.9124    1705153.03947   1335265.90163
  22240385.967    -8079441.451 6  -6220257.81821
  23406802.912    -1685367.993 5  -1177372.26021
  20236721.1074   -3456297.02746  -2646378.92662
  21866666.1864  -12322816.60446  -9457234.47461
  23686663.6784    -184871.73344
 91  4  6 21 44 59.9980000  0  6G18G11G16G19G 2G 6
  20662818.5454    1725113.36947   1350819.33363
  22235967.662    -8102654.547 6  -6238345.90121
  23401431.928    -1713580.337 5  -1199355.91221
  20234576.5534   -3467571.43146  -2655164.17662
  21857137.6624  -12372887.48346  -9496250.64761
  23677884.6934    -231002.97644
 91  4  6 21 45 14.9980000  0  6G18G11G16G19G 2G 6
  20666640.9904    1745205.96247   1366475.82963
  22231584.9044   -8125692.06746  -6256297.17461
  23396095.865    -1741632.138 5  -1221214.47721
  20232445.8184   -3478770.43746  -2663890.67462
  21847626.1234  -12422858.77146  -9535189.22361
  23669106.5454    -277097.58443        -0.10771
 91  4  6 21 45 29.9980000  0  6G18G11G16G19G 2G 6
  20670483.8814    1765398.30247   1382210.04963
  22227227.975    -8148586.471 6  -6274136.92521
  23390781.2484   -1769555.88045  -1242973.25161
  20230319.3184   -3489926.89746  -2672584.02262
  21838130.4284  -12472763.09346  -9574075.61561
  23660338.0064    -323188.33143    -35914.85561
 91  4  6 21 45 44.9980000  0  6G18G11G16G19G 2G 6
  20674347.139     1785695.398 7   1398025.89723
  22222898.795    -8171331.950 6  -6291860.63021
  23385495.412    -1797345.745 5  -1264627.70221
  20228207.7954   -3501034.96346  -2681239.66362
  21828650.0684  -12522594.85746  -9612905.46961
  23651569.873     -369269.526 4    -71822.13121
 91  4  6 21 45 59.9980000  0  6G18G11G16G19G 2G 6
  20678229.834     1806100.234 7   1413925.69123
  22218600.623    -8193925.533 6  -6309465.97821
  23380230.0924   -1824998.98945  -1286175.68561
  20226102.3264   -3512091.82046  -2689855.40062
  21819180.3034  -12572351.07646  -9651676.45261
  23642803.959     -415338.496 3   -107719.86621
 91  4  6 21 46 14.9980000  0  6G18G11G16G19G 2G 6
  20682131.904     1826607.533 7   1429905.33222
  22214329.232    -8216372.287 6  -6326956.91421
  23374994.2254   -1852520.85545  -1307621.32861
  20224008.7644   -3523102.42146  -2698435.09462
  21809725.9754  -12622036.74846  -9690392.47161
  23634035.928     -461400.340 3   -143612.10121
 91  4  6 21 46 29.9980000  0  6G18G11G16G19G 2G 6
  20686054.147     1847215.853 7   1445963.68522
  22210084.225    -8238673.188 6  -6344334.18921
  23369781.9434   -1879911.97645  -1328965.07361
  20221923.5454   -3534068.02846  -2706979.72462
  21800284.1624  -12671652.93846  -9729054.34462
  23625272.522     -507456.257 4   -179499.65021
 91  4  6 21 46 44.9980000  0  6G18G11G16G19G 2G 6
  20689993.162     1867921.992 7   1462098.26223
  22205868.5844   -8260831.08146  -6361600.04261
  23364594.4754   -1907175.48845  -1350209.36861
  20219844.0684   -3544991.53246  -2715491.54962
  21790855.4364  -12721202.63246  -9767664.40662
  23616511.904     -553509.398 3   -215385.09121
 91  4  6 21 46 59.9970000  0  6G18G11G16G19G 2G 6
  20693953.868     1888730.723 7   1478312.78423
  22201680.3994   -8282838.18146  -6378748.39461
  23359432.2354   -1934303.51045  -1371348.10161
  20217775.1034   -3555866.07246  -2723965.22462
  21781441.3994  -12770676.29746  -9806215.21961
  23607749.7984    -599550.64343   -251261.21961
 91  4  6 21 47 14.9970000  0  6G18G11G16G19G 2G 6
  20697932.501     1909637.504 7   1494603.70522
  22197518.5244   -8304704.22046  -6395786.83361
  23354293.3064   -1961306.55545  -1392389.44461
  20215713.6494   -3566699.95246  -2732407.20662
  21772038.0014  -12820087.41446  -9844717.30262
  23598985.634     -645593.059 3   -287138.28221
 91  4  6 21 47 29.9970000  0  6G18G11G16G19G 2G 6
  20701930.048     1930643.434 7   1510971.88623
  22193385.0484   -8326424.98846  -6412712.07861
  23349179.2354   -1988180.27245  -1413330.03561
  20213658.1574   -3577489.67646  -2740814.78562
  21762647.7434  -12869430.06846  -9883166.03362
  23590225.3844    -691630.97043   -323011.83961
 91  4  6 21 47 44.9970000  0  6G18G11G16G19G 2G 6
  20705946.931     1951752.697 7   1527420.58622
  22189281.6104   -8347995.88846  -6429520.53061
  23344088.3924   -2014919.87645  -1434166.07661
  20211616.8064   -3588230.79246  -2749184.48562
  21753272.470   -12918699.676 6  -9921557.85421
  23581462.3454    -737660.02943   -358878.48261
 91  4  6 21 47 59.9970000  0  6G18G11G16G19G 2G 6
  20709984.360     1972969.425 7   1543953.02822
  22185205.2124   -8369412.65846  -6446208.89761
  23339030.196    -2041521.264 5  -1454894.44521
  20209582.8374   -3598919.08246  -2757513.02662
  21743910.8374  -12967892.06846  -9959889.49562
  23572705.0714    -783676.10443   -394735.03461
 91  4  6 21 48 14.9970000  0  6G18G11G16G19G 2G 6
  20714041.220     1994292.420 7   1560568.26922
  22181158.4464   -8390675.98546  -6462777.68761
  23333991.1104   -2067985.12945  -1475515.66961
  20207557.6654   -3609555.30846  -2765800.99262
  21734563.962   -13017007.829 6  -9998161.43422
  23563954.954     -829680.094 4   -430582.13921
 91  4  6 21 48 29.9970000  0  6G18G11G16G19G 2G 6
  20718119.743     2015720.056 7   1577265.05922
  22177140.9464   -8411787.20946  -6479227.95061
  23328986.2044   -2094313.08745  -1496030.97261
  20205543.0644   -3620140.84946  -2774049.46962
  21725232.806   -13066048.461 6 -10036374.82521
  23555203.415     -875673.548 3   -466421.04921
 91  4  6 21 48 44.9970000  0  6G18G11G16G19G 2G 6
  20722215.095     2037246.217 7   1594038.61022
  22173152.1494   -8432752.19846  -6495564.27361
  23323998.6654   -2120511.14345  -1516445.06461
  20203537.8764   -3630681.91246  -2782263.27762
  21715912.564   -13115019.874 6 -10074534.28621
  23546454.204     -921662.460 4   -502256.43021
 91  4  6 21 48 59.9970000  0  6G18G11G16G19G 2G 6
  20726328.751     2058864.512 7   1610883.96322
  22169190.3764   -8453577.19446  -6511791.50761
  23319032.134    -2146585.594 5  -1536762.83221
  20201541.1894   -3641184.53646  -2790447.14062
  21706605.8844  -13163928.41646 -10112644.75261
  23537700.595     -967653.293 4   -538093.29721
 91  4  6 21 49 14.9970000  0  6G18G11G16G19G 2G 6
  20730461.962     2080577.845 7   1627803.36822
  22165252.7354   -8474258.85846  -6527907.05761
  23314101.7204   -2172533.16245  -1556981.72161
  20199549.2124   -3651645.53346  -2798598.56662
  21697310.134   -13212770.727 6 -10150703.60921
  23528950.5014   -1013642.85644   -573929.16061
 91  4  6 21 49 29.9970000  0  6G18G11G16G19G 2G 6
  20734615.134     2102396.503 7   1644804.84522
  22161347.8844   -8494786.41046  -6543902.52061
  23309187.3924   -2198343.21745  -1577093.47861
  20197565.6264   -3662054.25246  -2806709.26262
  21688031.790   -13261536.342 6 -10188702.71021
  23520200.064    -1059620.641 4   -609755.88421
 91  4  6 21 49 44.9970000  0  6G18G11G16G19G 2G 6
  20738786.423     2124322.471 7   1661889.92922
  22157470.9074   -8515157.85446  -6559776.34061
  23304304.173    -2224013.750 5  -1597096.52321
  20195598.5244   -3672408.54346  -2814777.54062
  21678766.6264  -13310223.07346 -10226640.33161
  23511453.235    -1105584.729 4   -645571.91621
 91  4  6 21 49 59.9970000  0  6G18G11G16G19G 2G 6
  20742976.353     2146344.522 7   1679049.89422
  22153620.9464   -8535384.05946  -6575536.98661
  23299437.8994   -2249555.78545  -1616999.40261
  20193634.0244   -3682719.36146  -2822811.94762
  21669514.368   -13358841.906 6 -10264525.05921
  23502709.571    -1151546.215 5   -681385.92121
 91  4  6 21 50 14.9970000  0  6G18G11G16G19G 2G 6
  20747186.665     2168466.327 7   1696287.58522
  22149800.8374   -8555460.87546  -6591181.22761
  23294604.8064   -2274965.39345  -1636799.12661
  20191682.3214   -3692982.81346  -2830809.44162
  21660276.868   -13407388.685 6 -10302353.63821
  23493956.665    -1197501.046 5   -717194.73721
 91  4  6 21 50 29.9970000  0  6G18G11G16G19G 2G 6
  20751416.845     2190692.956 7   1713606.95622
  22146011.1184   -8575383.01446  -6606704.94061
  23289795.118    -2300237.154 5  -1656491.40421
  20189737.8844   -3703193.57946  -2838765.88162
  21651052.8994  -13455858.13446 -10340121.94861
  23485217.485    -1243444.172 5   -752994.42221
 91  4  6 21 50 44.9970000  0  6G18G11G16G19G 2G 6
  20755664.149     2213019.160 7   1731003.91922
  22142248.7674   -8595155.27746  -6622111.86761
  23285014.290    -2325375.858 5  -1676080.01621
  20187805.5954   -3713356.48646  -2846685.03162
  21641843.634   -13504255.186 6 -10377833.86021
  23476478.376    -1289380.522 5   -788788.85621
 91  4  6 21 50 59.9970000  0  6G18G11G16G19G 2G 6
  20759933.743     2235451.689 7   1748483.72822
  22138516.329    -8614770.704 6  -6637396.58321
  23280254.626    -2350374.786 5  -1695559.70821
  20185879.7744   -3723464.71846  -2854561.57662
  21632648.423   -13552572.939 6 -10415483.97521
  23467739.1654   -1335303.34645   -824572.71761
 91  4  6 21 51 14.9970000  0  6G18G11G16G19G 2G 6
  20764221.040     2257984.977 7   1766042.05222
  22134810.0404   -8634234.96446  -6652563.51261
  23275524.853    -2375239.637 5  -1714934.96721
  20183966.5794   -3733523.85346  -2862399.86362
  21623468.751   -13600817.003 6 -10453076.66921
  23459004.251    -1381218.340 5   -860350.50321
 91  4  6 21 51 29.9970000  0  6G18G11G16G19G 2G 6
  20768528.696     2280618.089 7   1783678.16722
  22131135.923    -8653548.289 6  -6667612.83121
  23270817.4934   -2399970.88645  -1734206.05661
  20182061.6184   -3743534.31346  -2870200.22562
  21614300.353   -13648987.865 6 -10490612.32421
  23450264.626    -1427126.053 5   -896122.58221
 91  4  6 21 51 44.9970000  0  6G18G11G16G19G 2G 6
  20772855.548     2303350.406 7   1801391.58422
  22127488.9854   -8672710.88746  -6682544.69561
  23266134.3144   -2424568.80245  -1753373.29961
  20180166.2904   -3753496.19546  -2877962.72862
  21605146.564   -13697085.635 6 -10528091.02321
  23441533.657    -1473026.768 5   -931889.24921
 91  4  6 21 51 59.9970000  0  6G18G11G16G19G 2G 6
  20777198.962     2326181.920 7   1819182.29322
  22123872.6104   -8691722.88246  -6697359.20661
  23261483.8844   -2449033.33645  -1772436.57061
  20178278.3684   -3763409.65546  -2885687.50162
  21596009.579   -13745110.501 6 -10565512.91621
  23432795.4074   -1518920.74545   -967650.64061
 91  4  6 21 52 14.9970000  0  6G18G11G16G19G 2G 6
  20781563.142     2349118.418 7   1837054.81322
  22120283.884    -8710577.855 6  -6712051.37021
  23256851.931    -2473358.811 5  -1791391.49921
  20176404.5794   -3773268.45546  -2893369.67962
  21586885.1654  -13793056.22446 -10602873.12961
  23424064.4074   -1564801.79445  -1003401.98261
 91  4  6 21 52 29.9970000  0  6G18G11G16G19G 2G 6
  20785946.985     2372151.740 7   1855002.78223
  22116724.923    -8729283.645 6  -6726627.29321
  23252245.735    -2497552.548 5  -1810243.79321
  20174535.9934   -3783080.62246  -2901015.52562
  21577775.423   -13840930.475 6 -10640177.66222
  23415336.1424   -1610677.90045  -1039149.46561
 91  4  6 21 52 44.9970000  0  6G18G11G16G19G 2G 6
  20790349.579     2395287.333 7   1873030.43422
  22113193.6104   -8747834.66746  -6741082.60061
  23247673.3294   -2521609.08645  -1828989.14561
  20172680.3214   -3792840.40446  -2908620.54462
  21568680.8534  -13888727.81446 -10677422.25261
  23406608.7204   -1656543.51245  -1074888.76261
 91  4  6 21 52 59.9970000  0  6G18G11G16G19G 2G 6
  20794770.845     2418521.539 7   1891134.93023
  22109692.9934   -8766234.12946  -6755419.81661
  23243119.6734   -2545531.79045  -1847630.23961
  20170829.1184   -3802551.11046  -2916187.32762
  21559598.642   -13936451.502 6 -10714609.46121
  23397882.024    -1702402.240 5  -1110622.70821
 91  4  6 21 53 14.9970000  0  6G18G11G16G19G 2G 6
  20799212.376     2441859.557 7   1909320.31623
  22106220.5714   -8784476.55946  -6769634.66161
  23238590.767    -2569315.670 5  -1866163.15121
  20168993.8144   -3812207.34846  -2923711.66562
  21550531.524   -13984096.127 6 -10751735.05721
  23389157.1654   -1748248.56145  -1146346.99861
 91  4  6 21 53 29.9970000  0  6G18G11G16G19G 2G 6
  20803671.524     2465290.561 7   1927578.16122
  22102777.3214   -8802572.76546  -6783735.57561
  23234095.657    -2592971.067 5  -1884595.96521
  20167163.5794   -3821819.98846  -2931202.03862
  21541479.9464  -14031672.55446 -10788807.51061
  23380429.892    -1794093.549 4  -1182070.22821
 91  4  6 21 53 44.9970000  0  6G18G11G16G19G 2G 6
  20808146.478     2488812.727 7   1945907.04222
  22099361.2204   -8820523.97846  -6797723.50161
  23229609.9394   -2616499.69045  -1902929.99861
  20165345.1734   -3831390.24546  -2938659.38162
  21532438.6734  -14079181.97246 -10825827.74861
  23371709.2284   -1839938.53545  -1217793.44761
 91  4  6 21 53 59.9970000  0  6G18G11G16G19G 2G 6
  20812641.915     2512435.280 7   1964314.14922
  22095974.3994   -8838320.92046  -6811591.21861
  23225165.923    -2639891.969 5  -1921157.76421
  20163530.6814   -3840908.60046  -2946076.28262
  21523411.415   -14126614.962 6 -10862788.43122
  23362984.2434   -1885774.25444  -1253509.45461
 91  4  6 21 54 14.9970000  0  6G18G11G16G19G 2G 6
  20817157.829     2536158.091 7   1982799.37122
  22092617.9704   -8855963.25546  -6825338.46261
  23220733.4934   -2663147.87345  -1939279.29161
  20161732.1264   -3850374.83046  -2953452.56462
  21514400.1424  -14173971.37146 -10899689.44162
  23354262.4854   -1931600.58344  -1289218.15061
 91  4  6 21 54 29.9970000  0  6G18G11G16G19G 2G 6
  20821689.626     2559976.731 7   2001359.26822
  22089289.626    -8873455.067 6  -6838968.40621
  23216337.970    -2686271.533 5  -1957297.73921
  20159939.2284   -3859793.17546  -2960791.53762
  21505401.7984  -14221255.36546 -10936534.02362
  23345549.4784   -1977421.75545  -1324922.84461
 91  4  6 21 54 44.9970000  0  6G18G11G16G19G 2G 6
  20826239.501     2583891.891 7   2019994.37722
  22085988.8684   -8890795.38146  -6852480.30761
  23211961.1964   -2709262.15445  -1975212.55061
  20158157.4784   -3869162.71846  -2968092.48162
  21496419.3764  -14268465.98146 -10973321.42562
  23336828.2984   -2023236.96245  -1360622.85861
 91  4  6 21 54 59.9970000  0  6G18G11G16G19G 2G 6
  20830810.220     2607903.954 7   2038704.99522
  22082719.6264   -8907983.72646  -6865873.78361
  23207614.157    -2732119.429 5  -1993023.41021
  20156381.2124   -3878483.06846  -2975355.09162
  21487447.3534  -14315602.79746 -11010051.32462
  23328111.657    -2069045.922 5  -1396318.00621
 91  4  6 21 55 14.9970000  0  6G18G11G16G19G 2G 6
  20835398.696     2632017.991 7   2057495.07322
  22079478.2984   -8925014.62746  -6879144.58361
  23203287.798    -2754837.727 5  -2010726.01021
  20154618.9854   -3887748.78346  -2982575.13062
  21478492.6104  -14362660.41646 -11046719.50862
  23319391.2514   -2114843.17144  -1432004.07061
 91  4  6 21 55 29.9970000  0  6G18G11G16G19G 2G 6
  20840006.196     2656227.941 7   2076359.88622
  22076267.071    -8941893.808 6  -6892297.15221
  23198993.1424   -2777423.05645  -2028324.99661
  20152864.4784   -3896965.58446  -2989757.05562
  21469551.321   -14409644.486 6 -11083330.38722
  23310678.298    -2160634.719 4  -1467685.65921
 91  4  6 21 55 44.9970000  0  6G18G11G16G19G 2G 6
  20844630.478     2680528.815 7   2095295.54922
  22073081.274    -8958625.772 6  -6905335.01321
  23194717.7124   -2799879.84745  -2045823.81061
  20151120.0244   -3906138.00846  -2996904.39862
  21460624.6034  -14456559.68146 -11119887.58862
  23301967.3374   -2206425.09344  -1503366.32861
 91  4  6 21 55 59.9970000  0  6G18G11G16G19G 2G 6
  20849272.837     2704921.973 7   2114303.12722
  22069924.5794   -8975209.19946  -6918257.12361
  23190466.6814   -2822206.79645  -2063221.44961
  20149381.3064   -3915264.82446  -3004016.20162
  21451710.6034  -14503404.59646 -11156390.02762
  23293250.314    -2252213.175 4  -1539045.24321
 91  4  6 21 56 14.9970000  0  6G18G11G16G19G 2G 6
  20853932.751     2729411.857 7   2133386.06722
  22066798.2434   -8991639.33846  -6931059.79661
  23186242.728    -2844399.417 5  -2080514.42221
  20147656.8144   -3924341.14346  -3011088.66062
  21442810.4464  -14550174.46646 -11192833.99362
  23284539.626    -2297994.241 4  -1574718.64421
 91  4  6 21 56 29.9970000  0  6G18G11G16G19G 2G 6
  20858611.0564    2754000.61647   2152546.05162
  22063701.4934   -9007913.79746  -6943741.14761
  23182048.1734   -2866455.50645  -2097700.99261
  20145939.3604   -3933364.63246  -3018119.95762
  21433925.8844  -14596867.01846 -11229217.71062
  23275833.821    -2343765.950 5  -1610384.78621
 91  4  6 21 56 44.9970000  0  6G18G11G16G19G 2G 6
  20863308.423     2778682.043 7   2171778.24522
  22060633.1574   -9024038.41346  -6956305.75161
  23177877.142    -2888380.685 5  -2114785.56821
  20144230.8064   -3942341.06046  -3025114.56962
  21425054.0954  -14643488.20246 -11265545.81462
  23267119.7594   -2389534.29144  -1646048.28261
 91  4  6 21 56 59.9970000  0  6G18G11G16G19G 2G 6
  20868023.603     2803460.037 7   2191085.68722
  22057595.0794   -9040009.04046  -6968750.36561
  23173729.0404   -2910171.08445  -2131765.11161
  20142532.7824   -3951266.17946  -3032069.21162
  21416195.6734  -14690033.57646 -11301814.84962
  23258415.306    -2435295.275 5  -1681706.06421
 91  4  6 21 57 14.9970000  0  6G18G11G16G19G 2G 6
  20872757.321     2828337.195 7   2210470.40022
  22054586.8764   -9055822.71346  -6981072.67261
  23169609.345    -2931823.773 5  -2148637.35421
  20140844.5174   -3960137.12146  -3038981.63062
  21407353.8994  -14736500.42046 -11338022.68562
  23249707.173    -2481046.064 5  -1717355.88421
 91  4  6 21 57 29.9970000  0  6G18G11G16G19G 2G 6
  20877508.493     2853306.940 7   2229927.25922
  22051603.5174   -9071485.78446  -6993277.62861
  23165519.6344   -2953345.17445  -2165407.32861
  20139165.9544   -3968960.11746  -3045856.69262
  21398524.3994  -14782895.07246 -11374174.27462
  23241001.634    -2526793.031 4  -1753002.73921
 91  4  6 21 57 44.9970000  0  6G18G11G16G19G 2G 6
  20882278.9154    2878369.46447   2249456.41362
  22048652.517    -9086997.890 6  -7005364.96321
  23161448.376    -2974735.162 5  -2182074.86421
  20137496.2824   -3977734.92246  -3052694.20262
  21389710.454   -14829217.079 6 -11410269.25922
  23232299.571    -2572535.976 5  -1788646.43621
 91  4  6 21 57 59.9970000  0  6G18G11G16G19G 2G 6
  20887065.4154    2903524.34047   2269057.52162
  22045731.0714   -9102358.94746  -7017334.58961
  23157399.1814   -2995993.47645  -2198639.79561
  20135830.7824   -3986461.38746  -3059494.04662
  21380907.9854  -14875466.47146 -11446307.66162
  23223590.7594   -2618274.99745  -1824287.12261
 91  4  6 21 58 14.9970000  0  6G18G11G16G19G 2G 6
  20891869.0324    2928773.48747   2288732.09662
  22042835.7434   -9117566.62246  -7029184.69261
  23153377.837    -3017117.926 5  -2215100.42321
  20134183.9544   -3995137.25846  -3066254.46662
  21372120.8924  -14921640.85046 -11482287.60462
  23214891.5794   -2664007.72545  -1859922.84361
 91  4  6 21 58 29.9970000  0  6G18G11G16G19G 2G 6
  20896693.3844    2954117.78047   2308480.80962
  22039970.1654   -9132620.27146  -7040914.78161
  23149382.9074   -3038107.92845  -2231456.27961
  20132540.4854   -4003761.74046  -3072974.84762
  21363350.524   -14967739.623 6 -11518208.64322
  23206188.8454   -2709733.69045  -1895553.32961
 91  4  6 21 58 44.9970000  0  6G18G11G16G19G 2G 6
  20901534.2904    2979556.80147   2328303.32962
  22037134.4624   -9147520.06846  -7052524.98461
  23145417.6574   -3058963.71345  -2247707.54261
  20130913.5874   -4012335.10546  -3079655.39162
  21354591.8454  -15013763.10746 -11554071.00962
  23197487.9234   -2755453.08845  -1931178.67761
 91  4  6 21 58 59.9970000  0  6G18G11G16G19G 2G 6
  20906393.2904    3005086.83747   2348196.77562
  22034329.384    -9162269.000 6  -7064017.63121
  23141471.6424   -3079688.49545  -2263856.72661
  20129289.2904   -4020860.40546  -3086298.48362
  21345847.3454  -15059714.23746 -11589876.99862
  23188787.8294   -2801169.19544  -1966801.47361
 91  4  6 21 59 14.9970000  0  6G18G11G16G19G 2G 6
  20911268.9234    3030712.90747   2368165.04962
  22031551.1574   -9176862.07446  -7075388.83561
  23137552.399    -3100277.345 5  -2279900.01021
  20127677.9544   -4029332.61946  -3092900.20762
  21337119.4854  -15105588.10746 -11625622.78362
  23180088.564    -2846877.016 5  -2002417.81321
 91  4  6 21 59 29.9970000  0  6G18G11G16G19G 2G 6
  20916163.4784    3056435.56147   2388208.58262
  22028805.243    -9191298.257 6  -7086637.79421
  23133663.6654   -3120729.27945  -2295836.59061
  20126075.9854   -4037750.77946  -3099459.81362
  21328401.946   -15151383.543 6
  23171392.0484   -2892575.63345
 91  4  6 21 59 44.9970000  0  6G18G11G16G19G 2G 6
  20921077.1424    3082258.79647   2408330.49362
  22026089.173    -9205573.423 6  -7097761.28321
  23129801.345    -3141040.567 5  -2311663.58421
  20124484.0874   -4046110.85246  -3105974.16162
  21319704.6424  -15197096.54746
  23162697.5244   -2938261.17445
 91  4  6 21 59 59.9970000  0  6G18G11G16G19G 2G 6
  20926009.6344    3108174.32047   2428524.31662
  22023402.181    -9219695.613 6  -7108765.56321
  23125958.571    -3161218.965 5  -2327387.01021
  20122900.8534   -4054420.67746  -3112449.35362
  21311018.696   -15242734.969 6
  23154011.8144   -2983941.47345
 91  4  6 22  0 14.9970000  0  6G18G11G16G19G 2G 6
  20930957.1654    3134178.93647   2448787.56162
  22020742.915    -9233667.547 6  -7119652.76321
  23122141.368    -3181267.196 5  -2343009.04421
  20121332.0954   -4062682.87246  -3118887.43162
  21302347.798   -15288301.558 6 -11767996.56722
  23145316.8214   -3029619.43345  -2144813.92761
 91  4  6 22  0 29.9970000  0  6G18G11G16G19G 2G 6
  20935922.3064    3160271.51647   2469119.34862
  22018110.962    -9247490.537 6  -7130423.90421
  23118350.2204   -3201186.91145  -2358530.92461
  20119769.1184   -4070898.66246  -3125289.34962
  21293690.923   -15333797.769 6 -11803448.08022
  23136623.845    -3075296.442 5  -2180406.27421
 91  4  6 22  0 44.9970000  0  6G18G11G16G19G 2G 6
  20940905.2594    3186453.79247   2489521.02362
  22015511.657    -9261162.343 6  -7141077.23821
  23114586.1344   -3220975.86245  -2373950.89461
  20118212.1574   -4079065.80146  -3131653.35962
  21285046.564   -15379221.353 6 -11838842.99922
  23127931.9704   -3120970.37445  -2215996.18961
 91  4  6 22  0 59.9970000  0  6G18G11G16G19G 2G 6
  20945904.2434    3212730.99147   2509996.66762
  22012937.899    -9274677.275 6  -7151608.33421
  23110850.2984   -3240628.45245  -2389264.60561
  20116668.5874   -4087178.88846  -3137975.24762
  21276418.314   -15424566.623 6 -11874176.90022
  23119238.2674   -3166635.68645  -2251579.40461
 91  4  6 22  1 14.9970000  0  6G18G11G16G19G 2G 6
  20950922.5954    3239098.39247   2530542.60262
  22010395.892    -9288039.942 6  -7162020.78321
  23107133.4154   -3260149.05245  -2404475.49361
  20115133.5644   -4095242.21946  -3144258.36362
  21267801.212   -15469837.964 6 -11909453.18422
  23110556.923    -3212296.879 5  -2287159.40721
 91  4  6 22  1 29.9970000  0  6G18G11G16G19G 2G 6
  20955957.6894    3265551.24947   2551155.11662
  22007879.845    -9301254.890 6  -7172318.12221
  23103444.5094   -3279542.77645  -2419587.50461
  20113611.1894   -4103260.43246  -3150506.32262
  21259202.056   -15515040.089 6 -11944675.54222
  23101863.6424   -3257958.65745  -2322739.87261
 91  4  6 22  1 44.9970000  0  6G18G11G16G19G 2G 6
  20961007.9704    3292097.43747   2571840.36362
  22005395.345    -9314313.993 6  -7182494.03221
  23099779.314    -3298801.208 5  -2434594.07821
  20112094.3994   -4111225.22146  -3156712.65462
  21250613.392   -15560164.894 6 -11979837.64722
  23093174.790    -3303612.979 5  -2358314.50921
 91  4  6 22  1 59.9970000  0  6G18G11G16G19G 2G 6
  20966078.2434    3318736.77647   2592598.19262
  22002940.9624   -9327217.35246  -7192548.56761
  23096137.9154   -3317924.58545  -2449495.43361
  20110585.8454   -4119136.65446  -3162877.41562
  21242041.829   -15605212.426 6 -12014939.54622
  23084493.5484   -3349260.11345  -2393883.56561
 91  4  6 22  2 14.9970000  0  6G18G11G16G19G 2G 6
  20971164.3294    3345465.22147   2613425.45962
  22000513.931    -9339968.353 6  -7202484.39621
  23092523.3064   -3336916.43145  -2464294.30761
  20109090.9544   -4126998.16446  -3169003.27362
  21233483.689   -15650186.059 6 -12049983.85622
  23075803.985    -3394903.432 5  -2429449.63121
 91  4  6 22  2 29.9970000  0  6G18G11G16G19G 2G 6
  20976266.6264    3372277.78847   2634318.27662
  21998116.493    -9352571.950 6  -7212305.35821
  23088935.985    -3355781.725 5  -2478994.54321
  20107601.5874   -4134814.76946  -3175094.14262
  21224938.228   -15695090.814 6 -12084974.49622
  23067120.0564   -3440548.03445  -2465016.73461
 91  4  6 22  2 44.9970000  0  6G18G11G16G19G 2G 6
  20981387.1574    3399180.60347   2655281.41962
  21995746.110    -9365021.782 6  -7222006.50321
  23085371.017    -3374514.069 5  -2493591.19921
  20106126.9314   -4142580.08746  -3181145.04162
  21216408.024   -15739920.296 6 -12119906.48422
  23058429.8064   -3486187.50445  -2500579.79161
 91  4  6 22  2 59.9970000  0  6G18G11G16G19G 2G 6
  20986524.8684    3426180.11947   2676319.90062
  21993408.853    -9377310.951 6  -7231582.45521
  23081836.837    -3393106.868 5  -2508079.10521
  20104657.3764   -4150287.04246  -3187150.46562
  21207890.228   -15784667.693 6 -12154774.51322
  23049752.923    -3531815.055 5  -2536133.58521
 91  4  6 22  3 14.9970000  0  6G18G11G16G19G 2G 6
  20991678.1104    3453269.69747   2697428.57562
  21991098.1494   -9389446.03246  -7241038.33161
  23078314.157    -3411566.982 5  -2522463.65021
  20103203.0794   -4157942.14346  -3193115.48562
  21199392.860   -15829339.452 6 -12189583.59922
  23041067.673    -3577437.415 5  -2571683.32521
 91  4  6 22  3 29.9970000  0  6G18G11G16G19G 2G 6
  20996851.9934    3480451.04347   2718608.75562
  21988819.259    -9401424.925 6  -7250372.51821
  23074830.564    -3429892.378 5  -2536743.18621
  20101753.8684   -4165543.48346  -3199038.61562
  21190907.079   -15873933.540 6 -12224332.15622
  23032387.798    -3623052.497 5  -2607227.38921
 91  4  6 22  3 44.9970000  0  6G18G11G16G19G 2G 6
  21002042.7124    3507723.42647   2739859.86962
  21986568.5564   -9413248.11246  -7259585.36561
  23071366.3214   -3448083.25745  -2550917.92261
  20100321.2124   -4173091.31146  -3204920.04762
  21182434.821   -15918450.306 6 -12259020.47122
  23023709.8214   -3668660.84045  -2642766.22261
 91  4  6 22  3 59.9970000  0  6G18G11G16G19G 2G 6
  21007248.5644    3535082.11847   2761178.23462
  21984347.493    -9424920.030 6  -7268680.35221
  23067934.6964   -3466144.18445  -2564991.40261
  20098893.4854   -4180589.95746  -3210763.15562
  21173976.665   -15962894.249 6 -12293652.03822
  23015033.7044   -3714266.93045  -2678303.27361
 91  4  6 22  4 14.9970000  0  6G18G11G16G19G 2G 6
  21012470.3844    3562532.18847   2782567.81262
  21982158.032    -9436435.637 6  -7277653.52721
  23064520.2744   -3484070.36545  -2578959.89061
  20097475.939    -4188034.416 6  -3216564.04322
  21165534.493   -16007260.295 6 -12328222.91122
  23006355.532    -3759865.736 5  -2713834.66721
 91  4  6 22  4 29.9970000  0  6G18G11G16G19G 2G 6
  21017713.0404    3590070.85047   2804026.40462
  21979993.548    -9447797.310 6  -7286506.75821
  23061138.017    -3501864.111 5  -2592825.15921
  20096069.6494   -4195426.81646  -3222324.36662
  21157107.446   -16051550.883 6 -12362734.97922
  22997674.5644   -3805459.78645  -2749362.35961
 91  4  6 22  4 44.9970000  0  6G18G11G16G19G 2G 6
  21022970.5094    3617697.79847   2825553.79962
  21977861.509    -9459004.971 6  -7295239.98021
  23057772.6964   -3519525.36345  -2606587.21161
  20094672.720    -4202767.252 6  -3228044.19622
  21148692.360   -16095766.092 6 -12397188.30722
  22988999.157    -3851049.055 5  -2784886.32821
 91  4  6 22  4 59.9970000  0  6G18G11G16G19G 2G 6
  21028244.407     3645413.393 7   2847150.26522
  21975756.712    -9470058.122 6  -7303852.80521
  23054437.0794   -3537053.77645  -2620245.72561
  20093285.243    -4210055.227 6  -3233723.14722
  21140292.189   -16139905.140 6 -12431582.29322
  22980324.4154   -3896633.12845  -2820406.22861
 91  4  6 22  5 14.9970000  0  6G18G11G16G19G 2G 6
  21033534.0174    3673218.76247   2868816.68362
  21973685.860    -9480955.286 6  -7312344.09221
  23051131.306    -3554447.920 5  -2633799.62521
  20091908.7984   -4217289.02546  -3239359.88062
  21131908.618   -16183966.538 6 -12465915.77622
  22971655.267    -3942210.480 5  -2855920.92021
 91  4  6 22  5 29.9970000  0  6G18G11G16G19G 2G 6
  21038844.454     3701115.002 7   2890553.90922
  21971641.712    -9491695.227 6  -7320712.86021
  23047838.212    -3571706.887 4  -2647248.21321
  20090541.9934   -4224467.55046  -3244953.54262
  21123538.095   -16227949.209 6 -12500187.90922
  22962976.4624   -3987780.07545  -2891429.53961
 91  4  6 22  5 44.9970000  0  6G18G11G16G19G 2G 6
  21044168.196     3729098.283 7   2912358.96322
  21969625.235    -9502281.379 6  -7328961.79321
  23044587.4784   -3588833.99045  -2660594.02461
  20089189.5404   -4231594.14946  -3250506.74362
  21115183.478   -16271856.496 6 -12534401.30422
  22954309.040    -4033345.140 5  -2926934.64021
 91  4  6 22  5 59.9970000  0  6G18G11G16G19G 2G 6
  21049511.5404    3757165.25147   2934229.22962
  21967640.353    -9512717.054 6  -7337093.47221
  23041348.4784   -3605832.51844  -2673839.66961
  20087840.6104   -4238671.84246  -3256021.83762
  21106842.267   -16315691.579 6 -12568558.43022
  22945639.8214   -4078909.21045  -2962438.95861
 91  4  6 22  6 14.9970000  0  6G18G11G16G19G 2G 6
  21054866.782     3785322.876 7   2956170.13522
  21965685.314    -9522994.964 6  -7345102.21821
  23038141.8994   -3622695.30445  -2686979.51961
  20086504.9154   -4245693.43246  -3261493.21162
  21098515.360   -16359447.292 6 -12602653.71522
  22936971.3994   -4124464.97745  -2997936.82561
 91  4  6 22  6 29.9970000  0  6G18G11G16G19G 2G 6
  21060243.3214    3813566.34347   2978177.93062
  21963758.470    -9533119.695 6  -7352991.60521
  23034955.384    -3639426.906 4  -2700017.17821
  20085175.6894   -4252663.43946  -3266924.39162
  21090202.478   -16403128.124 6 -12636690.64322
  22928304.235    -4170017.118 5  -3033431.86921
 91  4  6 22  6 44.9970000  0  6G18G11G16G19G 2G 6
  21065635.899     3841904.513 7   3000259.52322
  21961863.134    -9543082.185 6  -7360754.56621
  23031798.431    -3656018.617 5  -2712945.83221
  20083863.4784   -4259572.89746  -3272308.38962
  21081905.657   -16446725.005 6 -12670662.16522
  22919639.017    -4215556.509 5  -3068916.97021
 91  4  6 22  6 59.9970000  0  6G18G11G16G19G 2G 6
  21071044.743     3870330.557 7   3022409.58022
  21959995.501    -9552889.094 6  -7368396.29621
  23028668.3064   -3672477.10045  -2725770.62261
  20082558.6494   -4266428.04246  -3277650.06462
  21073625.540   -16490244.346 6 -12704573.25622
  22910973.774    -4261089.846 5  -3104397.35721
 91  4  6 22  7 14.9970000  0  6G18G11G16G19G 2G 6
  21076469.4074    3898838.82247   3044623.71562
  21958157.517    -9562545.867 6  -7375921.03921
  23025564.6654   -3688807.95045  -2738496.00861
  20081265.2824   -4273234.29746  -3282953.64762
  21065356.001   -16533691.768 6 -12738428.31422
  22902309.3294   -4306622.67945  -3139877.34361
 91  4  6 22  7 29.9970000  0  6G18G11G16G19G 2G 6
  21081910.603     3927429.348 7   3066901.94022
  21956347.814    -9572052.251 6  -7383328.59621
  23022476.509    -3705010.712 5  -2751121.59021
  20079976.6654   -4279991.27646  -3288218.82962
  21057103.267   -16577066.853 6 -12772226.99822
  22893638.696    -4352154.642 5  -3175356.65821
 91  4  6 22  7 44.9970000  0  6G18G11G16G19G 2G 6
  21087368.353     3956109.942 7   3089250.35622
  21954571.306    -9581399.940 6  -7390612.49521
  23019419.0714   -3721077.23245  -2763640.96461
  20078702.4704   -4286690.67546  -3293439.13962
  21048863.048   -16620361.358 6 -12805962.89422
  22884980.181    -4397677.535 5  -3210828.89921
 91  4  6 22  7 59.9970000  0  6G18G11G16G19G 2G 6
  21092842.103     3984877.845 7   3111666.79522
  21952821.095    -9590591.549 6  -7397774.77021
  23016389.149    -3737010.136 5  -2776056.25721
  20077438.9784   -4293335.07546  -3298616.59462
  21040639.876   -16663577.972 6 -12839638.10022
  22876314.665    -4443193.900 5  -3246296.07821
 91  4  6 22  8 14.9970000  0  6G18G11G16G19G 2G 6
  21098333.1574    4013730.88847   3134149.59662
  21951101.439    -9599629.118 6  -7404817.01621
  23013379.1654   -3752811.71344  -2788369.19761
  20076184.0874   -4299926.51646  -3303752.78462
  21032430.454   -16706718.699 7 -12873254.17322
  22867659.220    -4488706.025 5  -3281759.93321
 91  4  6 22  8 29.9970000  0  6G18G11G16G19G 2G 6
  21103839.110     4042665.480 7   3156695.91822
  21949411.517    -9608515.913 6  -7411741.76821
  23010395.5954   -3768485.12644  -2800582.27861
  20074936.8764   -4306467.99946  -3308850.05062
  21024235.642   -16749786.633 7 -12906813.51622
  22858996.8924   -4534217.05545  -3317222.94761
 91  4  6 22  8 44.9970000  0  6G18G11G16G19G 2G 6
  21109360.962     4071683.440 7   3179307.21522
  21947748.189    -9617249.937 6  -7418547.48521
  23007436.7434   -3784028.80245  -2812694.28961
  20073705.2284   -4312957.52646  -3313906.82762
  21016053.173   -16792779.812 7 -12940314.61622
  22850335.017    -4579724.952 5  -3352683.51821
 91  4  6 22  8 59.9970000  0  6G18G11G16G19G 2G 6
  21114898.212     4100780.879 7   3201980.43722
  21946114.298    -9625835.042 6  -7425237.16021
  23004507.220    -3799446.370 5  -2824708.00821
  20072480.0094   -4319398.98746  -3318926.14762
  21007886.079   -16835702.109 7 -12973760.47522
  22841676.321    -4625233.820 5  -3388144.84121
 91  4  6 22  9 14.9970000  0  6G18G11G16G19G 2G 6
  21120452.353     4129967.191 7   3224722.91522
  21944511.915    -9634261.291 6  -7431803.04621
  23001598.7594   -3814727.79945  -2836615.64261
  20071263.8214   -4325782.30446  -3323900.15962
  20999732.587   -16878543.482 7 -13007143.29022
  22833015.6344   -4670733.47345  -3423598.98361
 91  4  6 22  9 29.9970000  0  6G18G11G16G19G 2G 6
  21126024.728     4159245.495 7   3247537.07022
  21942938.985    -9642525.558 6  -7438242.71421
  22998720.3144   -3829870.42545  -2848415.13561
  20070061.3144   -4332104.13046  -3328826.25862
  20991595.704   -16921300.651 7 -13040460.48322
  22824360.3534   -4716220.86345  -3459043.58561
 91  4  6 22  9 44.9970000  0  6G18G11G16G19G 2G 6
  21131612.165     4188604.218 7   3270413.89622
  21941393.853    -9650639.066 6  -7444564.90821
  22995858.345    -3844885.179 5  -2860114.98721
  20068870.4464   -4338375.66246  -3333713.16162
  20983473.493   -16963984.781 7 -13073720.76622
  22815706.7284   -4761707.28545  -3494487.39961
 91  4  6 22  9 59.9970000  0  6G18G11G16G19G 2G 6
  21137214.493     4218052.624 7   3293360.60022
  21939880.454    -9658592.387 6  -7450762.28421
  22993027.274    -3859762.768 5  -2871707.94921
  20067686.1654   -4344587.48446  -3338553.54562
  20975366.024   -17006586.418 7 -13106916.76822
  22807055.337    -4807183.279 5  -3529923.10921
 91  4  6 22 10 14.9970000  0  6G18G11G16G19G 2G 6
  21142834.673     4247580.288 7   3316369.06522
  21938396.423    -9666395.686 6  -7456842.76021
  22990221.7594   -3874513.73745  -2883202.24761
  20066514.5244   -4350749.59146  -3343355.18562
  20967275.509   -17049115.933 7 -13140056.57222
  22798398.5954   -4852659.04845  -3565358.64361
 91  4  6 22 10 29.9970000  0  6G18G11G16G19G 2G 6
  21148467.134     4277179.805 7   3339433.51422
  21936938.4934   -9674056.09346  -7462811.89761
  22987437.017    -3889145.204 5  -2894603.40621
  20065346.3684   -4356868.94846  -3348123.51662
  20959194.110   -17091580.342 7 -13173145.64722
  22789747.3534   -4898141.71845  -3600799.55761
 91  4  6 22 10 44.9970000  0  6G18G11G16G19G 2G 6
  21154114.821     4306860.112 7   3362560.92622
  21935508.978    -9681564.589 6  -7468662.65921
  22984680.1814   -3903648.02645  -2905904.35761
  20064194.8064   -4362936.52046  -3352851.49462
  20951126.821   -17133970.570 7 -13206176.91122
  22781087.7984   -4943622.21245  -3636238.75661
 91  4  6 22 10 59.9970000  0  6G18G11G16G19G 2G 6
  21159778.157     4336620.454 7   3385750.69922
  21934109.712    -9688921.742 6  -7474395.49021
  22981943.0564   -3918022.61545  -2917105.36761
  20063046.6964   -4368952.71246  -3357539.43062
  20943073.806   -17176287.002 7 -13239150.68222
  22772432.0794   -4989101.05745  -3671676.68861
 91  4  6 22 11 14.9970000  0  6G18G11G16G19G 2G 6
  21165456.329     4366462.131 7   3409003.84922
  21932737.9154   -9696125.84846  -7480009.06561
  22979234.157    -3932267.685 5  -2928205.43321
  20061913.9854   -4374915.82046  -3362186.01362
  20935035.954   -17218528.048 7 -13272065.70622
  22763778.743    -5034576.627 5  -3707112.06721
 91  4  6 22 11 29.9970000  0  6G18G11G16G19G 2G 6
  21171151.4464    4396385.88947   3432320.96362
  21931398.126    -9703176.036 6  -7485502.69021
  22976546.1344   -3946382.53245  -2939204.05961
  20060790.4704   -4380824.90446  -3366790.49262
  20927012.306   -17260692.703 7 -13304921.20722
  22755132.743    -5080048.133 5  -3742544.28921
 91  4  6 22 11 44.9970000  0  6G18G11G16G19G 2G 6
  21176861.5244    4426394.10647   3455703.88662
  21930084.556    -9710069.803 6  -7490874.43921
  22973886.8144   -3960364.49245  -2950099.11861
  20059676.4704   -4386677.23246  -3371350.75062
  20919003.314   -17302778.365 7 -13337715.15322
  22746477.110    -5125512.986 5  -3777971.30921
 91  4  6 22 11 59.9970000  0  6G18G11G16G19G 2G 6
  21182587.181     4456485.356 7   3479151.51222
  21928804.009    -9716808.185 6  -7496125.11221
  22971252.1264   -3974214.60145  -2960891.45861
  20058574.5954   -4392473.75946  -3375867.52462
  20911008.7904  -17344786.13347 -13370448.40962
  22737826.3604   -5170972.17645  -3813393.93661
 91  4  6 22 12 14.9970000  0  6G18G11G16G19G 2G 6
  21188328.6344    4486651.44547   3502657.45462
  21927549.821    -9723399.326 6  -7501261.04521
  22968641.0794   -3987941.12545  -2971587.48961
  20057478.7204   -4398222.29546  -3380346.91462
  20903028.298   -17386724.018 7 -13403127.20922
  22729176.1034   -5216433.74845  -3848818.39861
 91  4  6 22 12 29.9970000  0  6G18G11G16G19G 2G 6
  21194084.868     4516899.984 7   3526227.64122
  21926323.2514   -9729835.35546  -7506276.12461
  22966052.798    -4001536.340 5  -2982181.19421
  20056396.2204   -4403915.17646  -3384782.92362
  20895063.267   -17428584.098 7 -13435745.37822
  22720525.5324   -5261889.95045  -3884238.69061
 91  4  6 22 12 44.9970000  0  6G18G11G16G19G 2G 6
  21199856.806     4547231.863 7   3549862.77022
  21925128.876    -9736115.106 6  -7511169.42521
  22963488.118    -4014999.420 5  -2992671.93621
  20055324.1264   -4409551.09546  -3389174.55362
  20887112.7824  -17470365.32147 -13468302.10462
  22711874.306    -5307339.626 5  -3919653.89221
 91  4  6 22 12 59.9970000  0  6G18G11G16G19G 2G 6
  21205643.837     4577647.153 7   3573562.89122
  21923964.939    -9742238.226 6  -7515940.66621
  22960946.7124   -4028329.61344  -3003059.14261
  20054262.9544   -4415129.43646  -3393521.32262
  20879176.946   -17512067.078 7 -13500796.90922
  22703227.7124   -5352782.33545  -3955063.67861
 91  4  6 22 13 14.9970000  0  6G18G11G16G19G 2G 6
  21211446.603     4608138.706 7   3597322.43722
  21922826.595    -9748211.960 6  -7520595.51621
  22958437.485    -4041534.106 4  -3013348.38521
  20053212.1494   -4420657.30346  -3397828.75562
  20871254.8294  -17553696.57047 -13533235.40362
  22694579.1034   -5398225.25545  -3990473.62161
 91  4  6 22 13 29.9960000  0  6G18G11G16G19G 2G 6
  21217264.137     4638707.286 7   3621142.00922
  21921719.098    -9754032.690 6  -7525131.13721
  22955951.5044   -4054609.35645  -3023536.92161
  20052168.3244   -4426131.04146  -3402094.01162
  20863348.387   -17595247.849 7 -13565612.95222
  22685934.6064   -5443662.26245  -4025878.96861
 91  4  6 22 13 44.9960000  0  6G18G11G16G19G 2G 6
  21223096.293     4669349.684 7   3645019.08822
  21920639.9494   -9759708.27546  -7529553.66861
  22953488.9494   -4067564.17145  -3033631.60861
  20051136.0594   -4431558.40546  -3406323.13262
  20855453.4734  -17636733.46947 -13597939.34362
  22677285.996    -5489106.230 5  -4061289.71021
 91  4  6 22 13 59.9960000  0  6G18G11G16G19G 2G 6
  21228942.082     4700073.325 6   3668959.48022
  21919589.4654   -9765228.71546  -7533855.30261
  22951045.1914   -4080387.98245  -3043624.21961
  20050114.8954   -4436929.16546  -3410508.14762
  20847573.6294  -17678140.87947 -13630204.78562
  22668639.262    -5534544.618 5  -4096696.12521
 91  4  6 22 14 14.9960000  0  6G18G11G16G19G 2G 6
  21234802.637     4730875.483 6   3692961.05722
  21918568.3714   -9770596.48646
  22948630.8014   -4093083.24645  -3053516.66561
  20049100.1994   -4442245.77446
  20839708.582   -17719472.606 7 -13662411.25522
  22659990.4734   -5579979.88645  -4132100.13161
 91  4  6 22 14 29.9960000  0  6G18G11G16G19G 2G 6
  21240680.481     4761756.701 7   3717024.24022
  21917576.566    -9775811.011 6  -7542101.23621
  22946236.574    -4105649.564 4  -3063308.65221
  20048097.637    -4447507.486 6  -3418751.02422
  20831857.8634  -17760727.91847 -13694558.18362
  22651349.0984   -5625411.43845  -4167501.20861
 91  4  6 22 14 44.9960000  0  6G18G11G16G19G 2G 6
  21246570.902     4792719.038 6   3741150.63322
  21916612.676    -9780869.811 6  -7546043.14021
  22943877.4964   -4118084.64945  -3072998.36061
  20047109.8094   -4452711.68546  -3422806.24962
  20824022.746   -17801904.298 7 -13726643.60522
  22642702.2384   -5670836.66745  -4202897.37461
 91  4  6 22 14 59.9960000  0  6G18G11G16G19G 2G 6
  21252478.691     4823763.618 7   3765341.11122
  21915680.2154   -9785771.52646  -7549862.65261
  22941537.1454   -4130387.09645  -3082584.72661
  20046130.8794   -4457856.99746  -3426815.59062
  20816201.7074  -17843000.35947 -13758666.43762
  22634059.824    -5716254.259 5  -4238287.57821
 91  4  6 22 15 14.9960000  0  6G18G11G16G19G 2G 6
  21258402.129     4854884.829 6   3789591.30622
  21914775.2774   -9790521.75546  -7553564.13061
  22939216.168    -4142562.461 5  -3092072.05721
  20045163.8954   -4462948.78946  -3430783.22862
  20808396.402   -17884021.556 7 -13790630.93222
  22625418.3094   -5761669.83045  -4273676.22061
 91  4  6 22 15 29.9960000  0  6G18G11G16G19G 2G 6
  21264337.902     4886082.562 6   3813901.11522
  21913902.0744   -9795120.15246  -7557147.28661
  22936926.488    -4154610.466 5  -3101460.14321
  20044200.5204   -4467986.74446  -3434708.91662
  20800603.9964  -17924967.59047 -13822536.86862
  22616776.3714   -5807083.03445  -4309063.03961
 91  4  6 22 15 44.9960000  0  6G18G11G16G19G 2G 6
  21270289.168     4917351.701 6   3838266.57121
  21913054.473    -9799571.891 6  -7560616.16421
  22934654.488    -4166536.406 5  -3110753.14521
  20043254.4654   -4472975.67546  -3438596.40462
  20792824.8714  -17965843.48047 -13854388.14262
  22608135.152    -5852498.787 5  -4344451.79521
 91  4  6 22 15 59.9960000  0  6G18G11G16G19G 2G 6
  21276253.699     4948695.207 6   3862689.97321
  21912232.8404   -9803873.77246  -7563968.27261
  22932409.395    -4178337.131 5  -3119948.56021
  20042314.6994   -4477912.16446  -3442443.02362
  20785061.2384  -18006646.04147 -13886182.27362
  22599488.113    -5897913.895 5  -4379840.09121
 91  4  6 22 16 14.9960000  0  6G18G11G16G19G 2G 6
  21282232.543     4980114.630 6   3887172.53522
  21911446.0984   -9808024.01146  -7567202.21761
  22930187.777    -4190011.041 5  -3129045.14821
  20041385.934    -4482794.431 6  -3446247.40122
  20777311.1604  -18047373.36147 -13917917.78262
  22590851.4884   -5943326.79245  -4415226.63961
 91  4  6 22 16 29.9960000  0  6G18G11G16G19G 2G 6
  21288225.996     5011607.329 6   3911712.18322
  21910682.2314   -9812025.03346  -7570319.89361
  22927989.895    -4201560.552 4  -3138044.81621
  20040468.0904   -4487624.86446  -3450011.37862
  20769573.3874  -18088027.80347 -13949596.50362
  22582208.5354   -5988739.52945  -4450613.07361
 91  4  6 22 16 44.9960000  0  6G18G11G16G19G 2G 6
  21294235.1604    5043185.20846   3936318.22762
  21909955.0124   -9815864.88046  -7573311.97161
  22925819.746    -4212973.732 4  -3146938.25621
  20039560.934    -4492391.124 6  -3453725.36322
  20761854.1374  -18128597.30547 -13981209.03362
  22573570.5204   -6034140.28145  -4485990.15361
 91  4  6 22 16 59.9960000  0  6G18G11G16G19G 2G 6
  21300258.316     5074836.864 6   3960981.74522
  21909251.4884   -9819554.81646  -7576187.23961
  22923669.231    -4224261.834 4  -3155734.21321
  20038660.2544   -4497104.29046  -3457397.96862
  20754148.0274  -18169093.03547 -14012764.08162
  22564928.707    -6079540.076 5  -4521366.50421
 91  4  6 22 17 14.9960000  0  6G18G11G16G19G 2G 6
  21306295.004     5106561.168 6   3985701.87922
  21908576.1454   -9823095.37446  -7578946.10561
  22921541.020    -4235425.502 4  -3164433.22421
  20037777.934    -4501764.786 6  -3461029.53522
  20746457.3634  -18209515.52147 -14044262.05462
  22556285.3874   -6124939.45845  -4556742.54261
 91  4  6 22 17 29.9960000  0  6G18G11G16G19G 2G 6
  21312347.574     5138366.275 6   4010484.97021
  21907932.7624   -9826478.51746  -7581582.31661
  22919444.035    -4246456.898 5  -3173029.19121
  20036899.2074   -4506364.54746  -3464613.77162
  20738778.4964  -18249856.50747 -14075696.52362
  22547650.2464   -6170330.27945  -4592111.89061
 91  4  6 22 17 44.9960000  0  6G18G11G16G19G 2G 6
  21318413.2464    5170242.05046   4035323.13161
  21907317.8484   -9829714.13246  -7584103.57261
  22917371.715    -4257365.843 5  -3181529.70721
  20036035.606    -4510913.399 6  -3468158.34122
  20731115.9734  -18290126.04247 -14107075.31862
  22539012.0744   -6215722.52745  -4627482.37061
 91  4  6 22 17 59.9960000  0  6G18G11G16G19G 2G 6
  21324492.246     5202188.060 6   4060216.02121
  21906731.293    -9832802.638 6  -7586510.18521
  22915319.2074   -4268152.93445  -3189935.28661
  20035175.918    -4515411.593 6  -3471663.43722
  20723466.6214  -18330324.32447 -14138398.59162
  22530373.129    -6261116.665 5  -4662854.29321
 91  4  6 22 18 14.9960000  0  6G18G11G16G19G 2G 6
  21330586.816     5234207.818 6   4085166.37521
  21906172.0904   -9835740.26046  -7588799.24661
  22913290.1764   -4278814.17045  -3198242.79561
  20034333.9414   -4519855.06146  -3475125.88962
  20715831.4814  -18370447.41647 -14169663.27362
  22521739.207    -6306508.523 5  -4698224.47221
 91  4  6 22 18 29.9960000  0  6G18G11G16G19G 2G 6
  21336693.3794    5266304.26646   4110176.47961
  21905642.731    -9838523.884 6  -7590968.29221
  22911285.762    -4289346.552 5  -3206449.87521
  20033497.5664   -4524240.51946  -3478543.13462
  20708209.8794  -18410492.28547 -14200867.00762
  22513099.941    -6351895.032 5  -4733590.45821
 91  4  6 22 18 44.9960000  0  6G18G11G16G19G 2G 6
  21342815.504     5298472.124 6   4135242.22521
  21905139.4414   -9841158.49746  -7593021.22861
  22909305.2704   -4299755.08145  -3214560.47861
  20032675.7934   -4528572.84346  -3481918.97462
  20700605.1994  -18450463.89747 -14232013.65762
  22504461.121    -6397281.241 5  -4768956.23321
 91  4  6 22 18 59.9960000  0  6G18G11G16G19G 2G 6
  21348950.863     5330715.301 6   4160366.67021
  21904666.371    -9843639.987 6  -7594954.84421
  22907350.176    -4310036.178 5  -3222571.77521
  20031860.574    -4532847.820 6  -3485250.14322
  20693013.3094  -18490357.87747 -14263099.81162
  22495828.645    -6442662.840 5  -4804318.41721
 91  4  6 22 19 14.9960000  0  6G18G11G16G19G 2G 6
  21355101.1374    5363035.81846   4185551.36661
  21904223.8324   -9845966.32746  -7596767.57161
  22905415.8714   -4320187.65245  -3230482.06561
  20031060.3094   -4537063.33846  -3488534.96662
  20685435.8564  -18530172.17647 -14294123.87762
  22487196.152    -6488037.781 5  -4839675.39121
 91  4  6 22 19 29.9960000  0  6G18G11G16G19G 2G 6
  21361263.770     5395425.963 6   4210790.32721
  21903810.770    -9848144.742 6  -7598465.02421
  22903509.629    -4330216.661 5  -3238296.92321
  20030265.5274   -4541226.24246  -3491778.79662
  20677874.5904  -18569914.03047 -14325091.49362
  22478557.3794   -6533413.19245  -4875032.75661
 91  4  6 22 19 44.9960000  0  6G18G11G16G19G 2G 6
  21367442.2934    5427885.32046   4236083.21461
  21903423.8794   -9850175.80446  -7600047.66161
  22901624.8244   -4340123.74845  -3246016.80361
  20029486.1214   -4545337.07646  -3494982.04962
  20670326.1374  -18609583.73947 -14356002.88962
  22469924.3094   -6578789.48445  -4910390.78161
 91  4  6 22 19 59.9960000  0  6G18G11G16G19G 2G 6
  21373633.4024    5460422.64946   4261436.85461
  21903066.8794   -9852050.44546  -7601508.41061
  22899763.418    -4349899.854 5  -3253634.60321
  20028711.8954   -4549386.38046  -3498137.35662
  20662791.0204  -18649172.06547 -14386850.87362
  22461289.754    -6624157.457 5  -4945742.34221
 91  4  6 22 20 14.9960000  0  6G18G11G16G19G 2G 6
  21379838.6214    5493033.19646   4286847.54961
  21902739.512    -9853773.264 6  -7602850.86121
  22897928.7464   -4359549.64045  -3261153.95361
  20027954.3714   -4553378.80146  -3501248.34162
  20655272.3244  -18688683.68147 -14417639.08362
  22452659.9964   -6669521.79045  -4981091.05761
 91  4  6 22 20 29.9960000  0  6G18G11G16G19G 2G 6
  21386055.4964    5525704.92946   4312305.91561
  21902437.6844   -9855356.17646  -7604084.29161
  22896114.074    -4369085.037 5  -3268584.20021
  20027202.2934   -4557326.10246  -3504324.16862
  20647764.9344  -18728130.30947 -14448376.65162
  22444024.254    -6714894.275 5  -5016446.13821
 91  4  6 22 20 44.9960000  0  6G18G11G16G19G 2G 6
  21392285.3404    5558444.86146   4337817.44561
  21902163.4344   -9856792.01346  -7605203.12561
  22894316.762    -4378499.340 5  -3275920.05021
  20026463.4734   -4561220.86546  -3507359.05862
  20640275.0354  -18767504.74947 -14479057.97262
  22435388.332    -6760267.606 5  -5051801.86921
 91  4  6 22 20 59.9960000  0  6G18G11G16G19G 2G 6
  21398529.934     5591254.321 6   4363383.13921
  21901921.2154   -9858079.11046  -7606206.05161
  22892550.6604   -4387790.76245  -3283160.18061
  20025728.7934   -4565061.08946  -3510351.44863
  20632794.6844  -18806805.44647 -14509681.82462
  22426753.481    -6805640.195 5  -5087157.01021
 91  4  6 22 21 14.9960000  0  6G18G11G16G19G 2G 6
  21404788.2704    5624135.65946   4389004.84361
  21901704.3404   -9859214.97346  -7607091.13561
  22890806.957    -4396956.656 5  -3290302.51021
  20025012.2544   -4568844.24046  -3513299.35263
  20625332.6914  -18846029.70447 -14540246.11562
  22418121.754    -6851009.393 5  -5122509.52021
 91  4  6 22 21 29.9960000  0  6G18G11G16G19G 2G 6
  21411057.9574    5657090.04146   4414683.46461
  21901516.6064   -9860198.53046  -7607857.53861
  22889080.387    -4405996.377 5  -3297346.48521
  20024305.512    -4572569.117 6  -3516201.86723
  20617880.7384  -18885176.17947 -14570749.79762
  22409487.988    -6896373.888 5  -5157858.37121
 91  4  6 22 21 44.9960000  0  6G18G11G16G19G 2G 6
  21417342.9964    5690112.51546   4440415.13561
  21901356.3484   -9861034.49546  -7608508.93261
  22887386.9344   -4414914.33845  -3304295.58461
  20023606.0274   -4576240.30046  -3519062.54263
  20610444.9964  -18924249.62447 -14601196.57362
  22400854.1604   -6941738.40245  -5193207.22261
 91  4  6 22 21 59.9960000  0  6G18G11G16G19G 2G 6
  21423640.8324    5723205.44546   4466201.71661
  21901228.2314   -9861720.20746  -7609043.25261
  22885721.051    -4423708.021 5  -3311147.85621
  20022916.129    -4579854.937 6  -3521879.15023
  20603025.3094  -18963247.28647 -14631584.29662
  22392224.9264   -6987100.21945  -5228553.98561
 91  4  6 22 22 14.9960000  0  6G18G11G16G19G 2G 6
  21429951.0744    5756369.18546   4492043.46861
  21901124.5274   -9862255.11046  -7609460.05761
  22884065.7934   -4432376.91045  -3317902.89361
  20022240.2854   -4583412.37146  -3524651.18363
  20595616.6374  -19002168.54147 -14661912.47862
  22383593.3164   -7032458.71045  -5263898.14561
 91  4  6 22 22 29.9960000  0  6G18G11G16G19G 2G 6
  21436275.8014    5789598.72646   4517936.49661
  21901051.9734   -9862644.11646  -7609763.17261
  22882440.543    -4440926.016 5  -3324564.59421
  20021572.3954   -4586917.26546  -3527382.27863
  20588226.8634  -19041018.08447 -14692184.78062
  22374963.2154   -7077818.51345  -5299243.33161
 91  4  6 22 22 44.9960000  0  6G18G11G16G19G 2G 6
  21442610.2314    5822898.91546   4543884.57261
  21901007.9734   -9862882.09946  -7609948.60961
  22880839.9814   -4449350.47445  -3331129.12461
  20020916.8874   -4590364.22546  -3530068.21963
  20580846.3954  -19079790.86547 -14722397.27162
  22366329.629    -7123174.423 5  -5334585.49021
 91  4  6 22 22 59.9960000  0  6G18G11G16G19G 2G 6
  21448961.5124    5856268.83846   4569886.98661
  21900987.9104   -9862969.89846
  22879258.3714   -4457651.14045  -3337597.22661
  20020269.0984   -4593753.85946  -3532709.49463
  20573482.4414  -19118487.51247 -14752550.43562
  22357699.3244   -7168527.36645  -5369925.31561
 91  4  6 22 23 14.9960000  0  6G18G11G16G19G 2G 6
  21455324.551     5889709.057 6   4595944.18421
  21901001.5204   -9862906.88246
  22877703.395    -4465826.985 5  -3343968.08221
  20019638.6994   -4597085.30246  -3535305.43363
  20566133.059   -19157107.152 7 -14782643.59022
  22349070.5514   -7213876.55945  -5405262.23261
 91  4  6 22 23 29.9960000  0  6G18G11G16G19G 2G 6
  21461701.9104    5923220.95946   4622057.23561
  21901045.043    -9862691.289 6
  22876165.8244   -4473876.79945  -3350240.70961
  20019011.2854   -4600356.77046  -3537854.63463
  20558800.8634  -19195648.06747 -14812675.40462
  22340442.4654   -7259220.04945  -5440594.69261
 91  4  6 22 23 44.9960000  0  6G18G11G16G19G 2G 6
  21468091.5664    5956799.66546   4648222.33761
  21901112.9024   -9862328.05746
  22874667.7624   -4481805.24945  -3356418.78761
  20018404.0514   -4603572.95346  -3540360.75563
  20551479.9884  -19234115.19047 -14842649.71662
  22331814.4654   -7304562.60745  -5475926.45261
 91  4  6 22 23 59.9960000  0  6G18G11G16G19G 2G 6
  21474492.106     5990438.088 6   4674433.98421
  21901205.6914   -9861824.14046  -7609124.23161
  22873172.7624   -4489619.36545  -3362507.75461
  20017801.3954   -4606740.55946  -3542829.02563
  20544173.2464  -19272515.21947 -14872571.74562
  22323183.7934   -7349911.07045  -5511262.78861
 91  4  6 22 24 14.9960000  0  6G18G11G16G19G 2G 6
  21480906.5434    6024137.56346   4700693.19161
  21901331.3634   -9861177.98446  -7608620.74061
  22871708.5664   -4497317.64845  -3368506.46661
  20017206.8164   -4609857.82046  -3545258.06563
  20536877.027   -19310846.453 7 -14902440.16922
  22314552.879    -7395263.817 5  -5546602.49421
 91  4  6 22 24 29.9960000  0  6G18G11G16G19G 2G 6
  21487333.8094    6057912.50246   4727011.20361
  21901483.0744   -9860375.12646  -7607995.13561
  22870271.4734   -4504885.95045  -3374403.89461
  20016628.020    -4612910.179 6  -3547636.53723
  20529599.231   -19349094.410 7 -14932243.69922
  22305922.9024   -7440606.35645  -5581934.20461
 91  4  6 22 24 44.9960000  0  6G18G11G16G19G 2G 6
  21493772.590     6091755.397 6   4753382.17021
  21901665.8484   -9859422.68446  -7607252.98761
  22868848.3874   -4512331.40145  -3380205.58961
  20016056.3564   -4615904.58946  -3549969.85763
  20522336.1294  -19387266.05547 -14961987.77062
  22297297.1914   -7485945.67045  -5617263.42561
 91  4  6 22 24 59.9960000  0  6G18G11G16G19G 2G 6
  21500226.7314    6125663.19946   4779803.71261
  21901872.6914   -9858323.71546  -7606396.64561
  22867458.152    -4519656.998 5  -3385913.93021
  20015496.1214   -4618843.62746  -3552260.02263
  20515085.754   -19425364.273 7 -14991674.62022
  22288667.4264   -7531284.53945  -5652592.29461
 91  4  6 22 25 14.9960000  0  6G18G11G16G19G 2G 6
  21506691.7704    6159636.10546   4806275.98561
  21902111.2934   -9857077.62846  -7605425.67761
  22866093.348    -4526861.967 5  -3391528.24321
  20014948.9964   -4621726.74946  -3554506.61663
  20507850.621   -19463388.524 7 -15021303.83522
  22280043.7544   -7576622.23745  -5687920.24161
 91  4  6 22 25 29.9960000  0  6G18G11G16G19G 2G 6
  21513168.0124    6193672.92346   4832798.05761
  21902375.6994   -9855685.50246  -7604340.91061
  22864741.316    -4533947.681 5  -3397049.64821
  20014411.4104   -4624555.00546  -3556710.46263
  20500629.160   -19501339.763 7 -15050876.15722
  22271411.129    -7621959.971 5  -5723248.23421
 91  4  6 22 25 44.9960000  0  6G18G11G16G19G 2G 6
  21519658.2464    6227774.84746   4859370.86861
  21902670.2934   -9854146.30346  -7603141.54161
  22863417.027    -4540913.147 5  -3402477.30021
  20013882.7934   -4627326.92746  -3558870.41063
  20493420.7704  -19539216.83047 -15080390.68662
  22262784.5354   -7667296.55245  -5758575.33561
 91  4  6 22 25 59.9960000  0  6G18G11G16G19G 2G 6
  21526157.4964    6261938.20746   4885991.54161
  21902988.7934   -9852463.41746  -7601830.20861
  22862107.4184   -4547761.67344  -3407813.90061
  20013364.5824   -4630045.61746  -3560988.87563
  20486225.387   -19577022.923 7 -15109849.90422
  22254155.9344   -7712635.08545  -5793903.93261
 91  4  6 22 26 14.9960000  0  6G18G11G16G19G 2G 6
  21532674.0354    6296170.24346   4912665.74061
  21903337.3484   -9850629.34446  -7600401.06461
  22860830.184    -4554485.785 5  -3413053.56421
  20012859.6214   -4632703.37146  -3563059.85763
  20479046.809   -19614750.390 7 -15139247.86322
  22245525.2234   -7757967.89645  -5829228.08261
 91  4  6 22 26 29.9960000  0  6G18G11G16G19G 2G 6
  21539201.6454    6330464.39146   4939388.33461
  21903714.0354   -9848650.64446  -7598859.22561
  22859574.3094   -4561092.43045  -3418201.65861
  20012366.2464   -4635306.69446  -3565088.42663
  20471881.6064  -19652405.69447 -15168589.58762
  22236906.4734   -7803301.36946  -5864552.74861
 91  4  6 22 26 44.9960000  0  6G18G11G16G19G 2G 6
  21545737.7544    6364822.14746   4966160.48661
  21904117.7774   -9846525.82146  -7597203.51561
  22858343.856    -4567580.106 5  -3423257.06121
  20011879.3244   -4637853.73546  -3567073.13863
  20464729.754   -19689987.300 7 -15197873.88222
  22228276.879    -7848633.969 5  -5899876.73221
 91  4  6 22 26 59.9960000  0  6G18G11G16G19G 2G 6
  21552288.051     6399247.116 6   4992985.02121
  21904552.0984   -9844251.00646  -7595430.94561
  22857128.8714   -4573944.43845  -3428216.34161
  20011405.6994   -4640340.46446  -3569010.85763
  20457593.551   -19727491.142 7 -15227097.58122
  22219651.8954   -7893961.86245  -5935197.04661
 91  4  6 22 27 14.9960000  0  6G18G11G16G19G 2G 6
  21558852.5514    6433741.42246   5019863.57761
  21905014.8714   -9841823.77146  -7593539.59661
  22855942.301    -4580183.508 5  -3433078.02121
  20010945.0044   -4642764.20046  -3570899.49163
  20450471.879   -19764914.721 7 -15256258.73522
  22211028.0664   -7939282.20745  -5970511.48261
 91  4  6 22 27 29.9960000  0  6G18G11G16G19G 2G 6
  21565425.2074    6468292.79846   5046786.61061
  21905502.293    -9839256.529 6  -7591539.15721
  22854778.887    -4586309.779 5  -3437851.82021
  20010492.473    -4645137.248 6  -3572748.62623
  20443362.0514  -19802270.37947 -15285366.97262
  22202403.5124   -7984607.29045  -6005829.59761
 91  4  6 22 27 44.9960000  0  6G18G11G16G19G 2G 6
  21572014.0124    6502904.48546   5073756.63561
  21906017.3164   -9836545.85446  -7589426.95061
  22853632.5274   -4592319.73445  -3442534.93361
  20010051.4814   -4647455.92946  -3574555.40063
  20436268.809   -19839554.546 7 -15314419.49322
  22193779.770    -8029933.638 6  -6041148.70021
 91  4  6 22 27 59.9960000  0  6G18G11G16G19G 2G 6
  21578612.2464    6537575.00646   5100772.49361
  21906559.8164   -9833693.11146  -7587204.03761
  22852502.691    -4598214.650 5  -3447128.43421
  20009619.3484   -4649721.25946  -3576320.59963
  20429186.4104  -19876768.50947 -15343417.31662
  22185152.2234   -8075262.34645  -6076469.66361
 91  4  6 22 28 14.9960000  0  6G18G11G16G19G 2G 6
  21585221.684     6572315.104 6   5127842.56621
  21907132.6684   -9830687.14346  -7584861.72961
  22851419.168    -4603983.783 5  -3451623.92621
  20009203.0044   -4651921.92946  -3578035.41763
  20422119.027   -19913900.958 7 -15372351.61822
  22176526.6764   -8120582.37745  -6111783.84561
 91  4  6 22 28 29.9960000  0  6G18G11G16G19G 2G 6
  21591843.3564    6607116.99346   5154960.79761
  21907731.7624   -9827535.52046  -7582405.92761
  22850334.4414   -4609634.75545  -3456027.35061
  20008795.402    -4654065.306 6  -3579705.59023
  20415067.1294  -19950959.31247 -15401228.18662
  22167902.793    -8165901.027 5  -6147096.93921
 91  4  6 22 28 44.9960000  0  6G18G11G16G19G 2G 6
  21598476.8484    6641975.83746   5182123.40761
  21908359.2464   -9824243.30846  -7579840.57161
  22849288.1294   -4615172.26345  -3460342.36261
  20008395.8564   -4656156.26346  -3581334.91663
  20408029.0824  -19987948.47447 -15430050.84062
  22159276.0744   -8211223.12745  -6182412.74761
 91  4  6 22 28 59.9960000  0  6G18G11G16G19G 2G 6
  21605121.8954    6676899.63046   5209336.63061
  21909014.1604   -9820802.11346  -7577159.12661
  22848259.520    -4620588.262 5  -3464562.66921
  20008011.5354   -4658186.18846  -3582916.68363
  20401004.098   -20024860.014 7 -15458813.00422
  22150656.7934   -8256540.27745  -6217724.67661
 91  4  6 22 29 14.9960000  0  6G18G11G16G19G 2G 6
  21611782.5984    6711884.90646   5236597.75761
  21909694.3244   -9817215.57346  -7574364.43061
  22847247.2934   -4625886.62645  -3468691.31161
  20007635.6994   -4660158.52646  -3584453.57263
  20393995.0744  -20061697.38647 -15487517.37862
  22142029.5664   -8301855.83045  -6253035.38361
 91  4  6 22 29 29.9960000  0  6G18G11G16G19G 2G 6
  21618453.2624    6746935.26346   5263909.59161
  21910407.8324   -9813479.57046  -7571453.26661
  22846261.9654   -4631063.07645  -3472724.97461
  20007270.0824   -4662069.01446  -3585942.26963
  20386999.371   -20098456.480 7 -15516160.75622
  22133410.324    -8347165.506 5  -6288341.47921
 91  4  6 22 29 44.9960000  0  6G18G11G16G19G 2G 6
  21625133.7934    6782047.76546   5291269.85361
  21911145.6844   -9809597.02046  -7568427.91161
  22845294.9184   -4636120.55445  -3476665.91561
  20006920.1294   -4663920.21546  -3587384.76663
  20380020.449   -20135139.801 7 -15544745.08822
  22124787.0434   -8392472.27646  -6323645.34861
 91  4  6 22 29 59.9960000  0  6G18G11G16G19G 2G 6
  21631826.262     6817213.308 6   5318671.43921
  21911909.7774   -9805576.95846  -7565295.39661
  22844355.465    -4641067.999 5  -3480521.11521
  20006576.5664   -4665720.77846  -3588787.81363
  20373050.2464  -20171756.26547 -15573277.33362
  22116168.809    -8437784.829 6  -6358953.69121
 91  4  6 22 30 14.9960000  0  6G18G11G16G19G 2G 6
  21638528.2544    6852438.13346   5346119.22461
  21912702.5124   -9801413.28746  -7562050.98061
  22843435.934    -4645899.342 5  -3484285.88121
  20006244.6604   -4667464.55246  -3590146.60063
  20366096.160   -20208299.791 7 -15601752.73322
  22107543.5434   -8483096.71146  -6394261.53161
 91  4  6 22 30 29.9960000  0  6G18G11G16G19G 2G 6
  21645242.8794    6887721.95846   5373612.98361
  21913523.363    -9797105.820 6  -7558694.52321
  22842537.129    -4650614.412 5  -3487960.00621
  20005920.8874   -4669151.07246  -3591460.78063
  20359156.3794  -20244770.16247 -15630171.13762
  22098921.848    -8528407.945 6  -6429568.84421
 91  4  6 22 30 44.9960000  0  6G18G11G16G19G 2G 6
  21651968.598     6923066.029 6   5401153.68521
  21914369.4184   -9792653.43346  -7555225.13161
  22841664.918    -4655212.269 5  -3491542.79421
  20005613.6994   -4670778.99146  -3592729.29363
  20352230.6684  -20281166.08547 -15658531.53162
  22090299.652    -8573717.004 5  -6464874.48421
 91  4  6 22 30 59.9960000  0  6G18G11G16G19G 2G 6
  21658705.9024    6958471.19446   5428741.99461
  21915244.6604   -9788054.90146  -7551641.85661
  22840816.035    -4659691.866 5  -3495033.44621
  20005313.129    -4672346.863 6  -3593951.02323
  20345319.0434  -20317485.97947 -15686832.67762
  22081676.3874   -8619022.48145  -6500177.32361
 91  4  6 22 31 14.9960000  0  6G18G11G16G19G 2G 6
  21665456.7624    6993941.17946   5456380.82561
  21916148.7774   -9783306.77346  -7547942.02161
  22839982.3484   -4664049.65845  -3498429.17561
  20005030.0434   -4673850.90846  -3595123.01263
  20338422.8484  -20353726.33947 -15715071.85162
  22073055.3484   -8664320.73645  -6535474.54961
 91  4  6 22 31 29.9960000  0  6G18G11G16G19G 2G 6
  21672218.527     7029479.289 6   5484072.71721
  21917080.9104   -9778405.35946  -7544122.74161
  22839177.613    -4668281.859 5  -3501727.04021
  20004754.535    -4675287.144 6  -3596242.16623
  20331543.0044  -20389883.23847 -15743245.99062
  22064437.262    -8709607.895 5  -6570763.11321
 91  4  6 22 31 44.9960000  0  6G18G11G16G19G 2G 6
  21678992.6844    7065081.67646   5511814.71961
  21918041.8564   -9773354.43546  -7540186.95661
  22838394.574    -4672392.311 5  -3504930.02221
  20004496.6764   -4676659.01046  -3597311.15563
  20324676.6214  -20425960.27447 -15771357.90162
  22055818.6844   -8754887.50845  -6606045.79561
 91  4  6 22 31 59.9960000  0  6G18G11G16G19G 2G 6
  21685781.691     7100746.601 6   5539605.43721
  21919031.4964   -9768155.64246  -7536135.94661
  22837634.5904   -4676383.01845  -3508039.74461
  20004246.9654   -4677968.22246  -3598331.32863
  20317826.0664  -20461959.40747 -15799409.11163
  22047205.1914   -8800161.31446  -6641323.95961
 91  4  6 22 32 14.9960000  0  6G18G11G16G19G 2G 6
  21692579.004     7136464.333 6   5567437.30621
  21920048.1764   -9762818.51046  -7531977.14561
  22836899.902    -4680263.233 5  -3511063.32721
  20004006.8324   -4679223.77546  -3599309.68563
  20310989.7704  -20497889.77947 -15827406.74062
  22038588.348    -8845438.374 5  -6676604.65721
 91  4  6 22 32 29.9960000  0  6G18G11G16G19G 2G 6
  21699384.1994    7172238.39546   5595313.06761
  21921088.8874   -9757339.53546  -7527707.81861
  22836182.020    -4684029.745 5  -3513998.32921
  20003777.5594   -4680422.05646  -3600243.41963
  20304165.7854  -20533747.64147 -15855347.87062
  22029974.988    -8890715.069 6  -6711885.05821
 91  4  6 22 32 44.9960000  0  6G18G11G16G19G 2G 6
  21706202.137     7208070.330 6   5623233.91621
  21922159.0824   -9751717.04846  -7523326.65161
  22835480.9264   -4687680.67545  -3516843.26161
  20003562.3484   -4681561.30946  -3601131.15263
  20297356.5904  -20569531.17447 -15883231.07763
  22021357.973    -8935989.763 6  -6747163.91221
 91  4  6 22 32 59.9960000  0  6G18G11G16G19G 2G 6
  21713032.8014    7243954.08346   5651195.15961
  21923256.9264   -9745956.89046  -7518838.23261
  22834812.035    -4691222.181 5  -3519602.93021
  20003355.6374   -4682647.10946  -3601977.23563
  20290561.0044  -20605246.16147 -15911060.87363
  22012738.574    -8981267.908 5  -6782445.45721
 91  4  6 22 33 14.9960000  0  6G18G11G16G19G 2G 6
  21719872.637     7279893.030 6   5679199.39521
  21924378.0984   -9740055.44846  -7514239.70861
  22834157.277    -4694650.455 5  -3522274.36021
  20003160.4264   -4683675.41346  -3602778.51763
  20283777.4814  -20640888.79947 -15938834.29563
  22004127.3714   -9026545.71246  -6817726.74061
 91  4  6 22 33 29.9960000  0  6G18G11G16G19G 2G 6
  21726723.395     7315894.313 6   5707252.20921
  21925532.6764   -9734005.62546  -7509525.56161
  22833525.6454   -4697958.35845  -3524852.00061
  20002973.9734   -4684638.89746  -3603529.29363
  20277010.8564  -20676451.84547 -15966545.69663
  21995513.2154   -9071816.05646  -6853002.20361
 91  4  6 22 33 44.9960000  0  6G18G11G16G19G 2G 6
  21733584.770     7351950.829 6   5735348.05621
  21926708.5204   -9727814.32446  -7504701.17561
  22832926.5514   -4701152.88645  -3527341.30061
  20002804.7624   -4685544.25546  -3604234.77563
  20270257.6374  -20711942.03047 -15994200.32663
  21986894.4654   -9117085.29046  -6888276.80361
 91  4  6 22 33 59.9960000  0  6G18G11G16G19G 2G 6
  21740455.0664    7388059.86146   5763484.83661
  21927911.7464   -9721484.37946  -7499768.75861
  22832334.2234   -4704237.17245  -3529744.70761
  20002643.2074   -4686394.12346  -3604897.01763
  20263516.0744  -20747362.15447 -16021800.36363
  21978282.0274   -9162356.37346  -6923552.84761
 91  4  6 22 34 14.9960000  0  6G18G11G16G19G 2G 6
  21747338.918     7424229.440 6   5791668.78221
  21929145.9414   -9715007.54346  -7494721.87761
  22831772.660    -4707202.790 5  -3532055.62821
  20002493.3244   -4687179.92246  -3605509.33363
  20256790.4654  -20782703.65047 -16049339.12863
  21969666.379    -9207620.670 6  -6958823.59721
 91  4  6 22 34 29.9960000  0  6G18G11G16G19G 2G 6
  21754231.9734    7460456.08946   5819897.21961
  21930405.0514   -9708387.03346  -7489563.04361
  22831229.957    -4710053.131 5  -3534276.72221
  20002354.895    -4687904.788 6  -3606074.17523
  20250080.2854  -20817969.72347 -16076819.12563
  21961056.0204   -9252881.27646  -6994091.48761
 91  4  6 22 34 44.9960000  0  6G18G11G16G19G 2G 6
  21761139.027     7496744.473 6   5848173.74721
  21931693.9574   -9701618.46746  -7484288.83861
  22830705.7234   -4712783.67245  -3536404.48061
  20002230.9264   -4688563.77146  -3606587.67963
  20243383.3324  -20853155.86947 -16104236.83863
  21952441.5044   -9298133.58646  -7029352.90461
 91  4  6 22 34 59.9960000  0  6G18G11G16G19G 2G 6
  21768055.231     7533088.959 6   5876493.98821
  21933007.3404   -9694707.30246  -7478903.52361
  22830214.426    -4715400.065 5  -3538443.27921
  20002115.824    -4689162.164 6  -3607053.97023
  20236702.7234  -20888267.18347 -16131596.24663
  21943834.785    -9343382.783 6  -7064611.90321
 91  4  6 22 35 14.9960000  0  6G18G11G16G19G 2G 6
  21774978.848     7569482.661 6   5904852.59421
  21934347.8164   -9687659.97346  -7473412.11361
  22829735.027    -4717908.507 5  -3540397.97521
  20002013.051    -4689706.258 6  -3607477.94723
  20230035.0434  -20923310.09447 -16158902.34863
  21935221.2934   -9388635.13746  -7099873.35761
 91  4  6 22 35 29.9960000  0  6G18G11G16G19G 2G 6
  21781917.7154    7605934.63046   5933256.57461
  21935717.2314   -9680467.41246  -7467807.52761
  22829278.762    -4720300.173 5  -3542261.70221
  20001918.348    -4690186.433 6  -3607852.11823
  20223380.4494  -20958275.34947 -16186147.94363
  21926613.2934   -9433881.36146  -7135130.03261
 91  4  6 22 35 44.9960000  0  6G18G11G16G19G 2G 6
  21788864.231     7642443.563 6   5961704.96021
  21937114.0594   -9673130.93446  -7462090.80061
  22828849.270    -4722576.637 5  -3544035.61521
  20001841.7384   -4690603.84146  -3608177.38563
  20216741.6844  -20993164.15147 -16213333.96063
  21918001.0434   -9479122.65946  -7170382.87061
 91  4  6 22 35 59.9960000  0  6G18G11G16G19G 2G 6
  21795820.7704    7678999.15846   5990189.69361
  21938536.238    -9665660.673 6  -7456269.82721
  22828427.270    -4724747.867 5  -3545727.53521
  20001770.324    -4690968.531 6  -3608461.56823
  20210114.5274  -21027986.60247 -16240468.28063
  21909391.551    -9524368.884 6  -7205639.55721
 91  4  6 22 36 14.9960000  0  6G18G11G16G19G 2G 6
  21802786.1134    7715605.70646   6018714.12561
  21939983.2074   -9658052.28346  -7450341.22661
  22828038.066    -4726809.597 5  -3547334.15421
  20001713.973    -4691276.010 6  -3608701.17423
  20203501.4964  -21062738.29447 -16267547.46163
  21900783.3874   -9569615.60146  -7240896.61161
 91  4  6 22 36 29.9960000  0  6G18G11G16G19G 2G 6
  21809762.9024    7752269.69546   6047283.32661
  21941459.9184   -9650299.15846  -7444299.84361
  22827672.488    -4728755.263 5  -3548850.31721
  20001667.402    -4691519.302 6  -3608890.76323
  20196905.0664  -21097412.06747 -16294565.92463
  21892173.754    -9614855.858 6  -7276148.65121
 91  4  6 22 36 44.9960000  0  6G18G11G16G19G 2G 6
  21816753.473     7788987.718 6   6075894.63421
  21942961.848    -9642404.535 6  -7438148.20121
  22827323.856    -4730588.062 5  -3550278.54021
  20001633.277    -4691701.179 6  -3609032.49823
  20190319.2624  -21132010.99247 -16321526.06663
  21883565.9654   -9660092.69246  -7311398.00961
 91  4  6 22 36 59.9960000  0  6G18G11G16G19G 2G 6
  21823748.809     7825757.154 6   6104546.01021
  21944489.9104   -9634371.10146  -7431888.39361
  22826995.160    -4732310.660 5  -3551620.87821
  20001611.184    -4691824.206 6
  20183749.6764  -21166537.68147 -16348429.92063
  21874955.754    -9705328.567 6  -7346646.64121
 91  4  6 22 37 14.9960000  0  6G18G11G16G19G 2G 6
  21830757.3404    7862591.62846   6133248.04561
  21946048.590    -9626185.355 6  -7425509.90121
  22826687.9184   -4733909.53445  -3552866.82561
  20001598.832    -4691874.517 6
  20177194.9024  -21200978.44747 -16375266.82263
  21866348.090    -9750549.601 6  -7381883.69821
 91  4  6 22 37 29.9960000  0  6G18G11G16G19G 2G 6
  21837775.832     7899471.763 6   6161985.67821
  21947631.332    -9617866.504 6  -7419027.69721
  22826409.074    -4735404.000 5  -3554031.41121
  20001600.090    -4691871.004 6
  20170655.1134  -21235352.34947 -16402051.61863
  21857745.332    -9795774.893 6  -7417124.08121
 91  4  6 22 37 44.9960000  0  6G18G11G16G19G 2G 6
  21844803.309     7936401.512 6   6190761.97321
  21949240.512    -9609410.368 6  -7412438.51421
  22826142.879    -4736789.968 5  -3555111.46021
  20001613.512    -4691809.335 6
  20164126.1604  -21269655.20747 -16428781.05763
  21849136.129    -9841000.030 6  -7452364.33221
 91  4  6 22 37 59.9960000  0  6G18G11G16G19G 2G 6
  21851842.5274    7973386.89546   6219581.62661
  21950876.3954   -9600810.70446  -7405737.48361
  22825901.9494   -4738061.51145  -3556102.34361
  20001636.707    -4691682.931 6
  20157615.0664  -21303880.68747 -16455450.20463
  21840531.356    -9886218.780 6  -7487599.61421
 91  4  6 22 38 14.9960000  0  6G18G11G16G19G 2G 6
  21858887.3094    8010417.92346   6248436.82561
  21952538.4964   -9592077.30346  -7398932.24661
  22825679.074    -4739228.190 4  -3557011.51921
  20001671.9654   -4691501.45046
  20151114.6604  -21338038.34847 -16482066.50463
  21831927.770    -9931440.488 6  -7522837.20021
 91  4  6 22 38 29.9960000  0  6G18G11G16G19G 2G 6
  21865945.434     8047503.331 6   6277334.40921
  21954227.598    -9583201.594 6  -7392016.12421
  22825471.1064   -4740281.38944  -3557832.24461
  20001717.316    -4691255.869 6
  20144629.098   -21372119.396 7 -16508623.10923
  21823323.379    -9976656.421 6  -7558070.29321
 91  4  6 22 38 44.9960000  0  6G18G11G16G19G 2G 6
  21873011.746     8084638.955 6   6306271.12721
  21955943.746    -9574187.448 6  -7384992.12921
  22825304.2934   -4741224.89145  -3558567.51861
  20001775.645    -4690949.733 6  -3608447.07023
  20138157.6914  -21406127.60447 -16535122.95363
  21814720.574   -10021870.158 6  -7593301.66921
 91  4  6 22 38 59.9960000  0  6G18G11G16G19G 2G 6
  21880088.184     8121824.489 6   6335246.72221
  21957684.340    -9565035.351 6  -7377860.64121
  22825141.043    -4742059.265 4  -3559217.75021
  20001845.707    -4690583.240 6  -3608161.50823
  20131696.887   -21440062.993 7 -16561566.05823
  21806117.090   -10067081.924 6  -7628531.50421
 91  4  6 22 39 14.9960000  0  6G18G11G16G19G 2G 6
  21887173.871     8159058.705 6   6364260.26121
  21959451.910    -9555746.474 6  -7370622.57221
  22825009.363    -4742786.087 4  -3559784.19021
  20001926.879    -4690157.370 6  -3607829.68223
  20125255.012   -21473926.657 7 -16587953.27523
  21797510.621   -10112292.627 6  -7663760.52721
 91  4  6 22 39 29.9960000  0  6G18G11G16G19G 2G 6
  21894270.160     8196341.880 6   6393311.94221
  21961246.363    -9546320.213 6  -7363277.44921
  22824886.8874   -4743404.68544  -3560266.29761
  20002017.441    -4689671.206 6  -3607450.86423
  20118822.715   -21507718.083 7 -16614284.20323
  21788909.059   -10157501.375 6  -7698988.00321
 91  4  6 22 39 44.9960000  0  6G18G11G16G19G 2G 6
  21901373.9184    8233679.73246   6422406.23061
  21963068.238    -9536750.935 6  -7355820.88421
  22824783.8404   -4743909.25644  -3560659.55261
  20002125.035    -4689118.919 6  -3607020.52423
  20112409.8164  -21541431.25847 -16640554.15563
  21780308.434   -10202702.508 6  -7734209.57121
 91  4  6 22 39 59.9960000  0  6G18G11G16G19G 2G 6
  21908489.2154    8271069.21646   6451540.73461
  21964915.145    -9527041.933 6  -7348255.44721
  22824715.762    -4744303.054 4  -3560966.46821
  20002240.895    -4688503.401 6  -3606540.91023
  20106008.1454  -21575069.12747 -16666765.42463
  21771710.238   -10247898.751 6  -7769427.31521
 91  4  6 22 40 14.9950000  0  6G18G11G16G19G 2G 6
  21915614.2964    8308507.67346   6480713.42061
  21966789.093    -9517193.606 6  -7340581.43721
  22824652.7104   -4744585.90143  -3561186.94661
  20002370.273    -4687824.057 6  -3606011.57223
  20099621.257   -21608629.216 7 -16692916.08523
  21763107.7964  -10293086.79846  -7804638.67661
 91  4  6 22 40 29.9950000  0  6G18G11G16G19G 2G 6
  21922747.0624    8346000.41446   6509928.39561
  21968690.530    -9507204.094 6  -7332797.42021
  22824626.593    -4744757.440 4
  20002510.655    -4687080.395 6  -3605432.11223
  20093249.6794  -21642115.41247 -16719009.17363
  21754508.8124  -10338271.92146  -7839847.76161
 91  4  6 22 40 44.9950000  0  6G18G11G16G19G 2G 6
  21929892.015     8383542.311 6   6539181.67221
  21970616.960    -9497076.625 6  -7324905.90121
  22824616.4214   -4744820.29844
  20002665.944    -4686274.490 6  -3604804.14723
  20086890.780   -21675527.784 7 -16745044.73423
  21745912.085   -10383453.446 6  -7875054.03121
 91  4  6 22 40 59.9950000  0  6G18G11G16G19G 2G 6
  21937046.8824    8421138.08946   6568476.93761
  21972571.702    -9486806.367 6  -7316903.11121
  22824627.9134   -4744769.61744
  20002830.937    -4685401.088 6  -3604123.59223
  20080548.179   -21708861.372 7 -16771018.90023
  21737317.9994  -10428626.15746  -7910253.45761
 91  4  6 22 41 14.9950000  0  6G18G11G16G19G 2G 6
  21944210.007     8458782.388 6   6597810.02521
  21974551.7024   -9476398.88746  -7308793.40561
  22824652.452    -4744610.792 4
  20003010.476    -4684465.646 6  -3603394.69523
  20074216.890   -21742121.515 7 -16796935.84123
  21728722.030   -10473795.482 6  -7945450.22321
 91  4  6 22 41 29.9950000  0  6G18G11G16G19G 2G 6
  21951384.0774    8496472.15846   6627178.52661
  21976557.507    -9465856.966 6  -7300578.93721
  22824695.952    -4744346.901 4
  20003199.671    -4683470.677 6  -3602619.40923
  20067902.273   -21775310.849 7 -16822797.60523
  21720126.2494  -10518963.86746  -7980646.26761
 91  4  6 22 41 44.9950000  0  6G18G11G16G19G 2G 6
  21958563.937     8534205.250 6   6656580.79621
  21978588.7804   -9455182.78346  -7292261.40561
  22824778.4914   -4743980.19045  -3560715.45561
  20003399.155    -4682417.996 6  -3601799.15423
  20061601.577   -21808431.333 7 -16848605.72023
  21711528.9994  -10564133.25346  -8015843.08861
 91  4  6 22 41 59.9950000  0  6G18G11G16G19G 2G 6
  21965751.538     8571989.829 6   6686023.17821
  21980647.538    -9444368.375 6  -7283834.60821
  22824869.1634   -4743502.64445  -3560343.40861
  20003611.366    -4681299.156 6  -3600927.34523
  20055313.108   -21841474.948 7 -16874353.93423
  21702935.327   -10609295.473 6  -8051034.32821
 91  4  6 22 42 14.9950000  0  6G18G11G16G19G 2G 6
  21972950.2334    8609817.47246   6715499.10661
  21982729.124    -9433421.628 6  -7275304.69321
  22824971.249    -4742922.048 4  -3559891.07921
  20003836.827    -4680121.911 6  -3600010.02623
  20049039.1244  -21874449.23447 -16900048.12563
  21694342.624   -10654458.010 6  -8086225.80821
 91  4  6 22 42 29.9950000  0  6G18G11G16G19G 2G 6
  21980160.530     8647694.229 6   6745013.32621
  21984838.976    -9422336.580 6  -7266667.00621
  22825105.6714   -4742232.58044  -3559353.89361
  20004070.593    -4678880.014 6  -3599042.33323
  20042777.163   -21907347.978 7 -16925683.45723
  21685747.4524  -10699614.66246  -8121412.71861
 91  4  6 22 42 44.9950000  0  6G18G11G16G19G 2G 6
  21987377.187     8685610.798 6   6774558.55021
  21986974.046    -9411122.401 6  -7257928.70121
  22825260.3904   -4741443.33244  -3558738.98261
  20004319.241    -4677582.267 6  -3598031.11523
  20036528.2104  -21940180.26247 -16951266.99463
  21677154.0774  -10744774.31146  -8156601.95661
 91  4  6 22 42 59.9950000  0  6G18G11G16G19G 2G 6
  21994601.124     8723575.494 6   6804141.27321
  21989133.3434   -9399770.72046  -7249083.24661
  22825426.890    -4740546.039 5  -3558039.85621
  20004577.288    -4676220.118 6  -3596969.71723
  20030295.944   -21972937.628 7 -16976792.16023
  21668560.0074  -10789928.57746  -8191786.99361
 91  4  6 22 43 14.9950000  0  6G18G11G16G19G 2G 6
  22001833.2104    8761584.05146   6833758.17761
  21991318.843    -9388285.711 6  -7240133.90521
  22825620.7804   -4739545.29945  -3557260.12061
  20004850.194    -4674797.401 6  -3595861.12523
  20024074.8984  -22005624.11447 -17002262.09163
  21659971.718   -10835081.268 6  -8226970.80021
 91  4  6 22 43 29.9950000  0  6G18G11G16G19G 2G 6
  22009072.5154    8799626.43846   6863401.44661
  21993528.7574   -9376677.34146  -7231088.43861
  22825831.179    -4738450.651 5  -3556407.23821
  20005127.796    -4673323.688 6  -3594712.79023
  20017866.3194  -22038249.49247 -17027684.40663
  21651376.233   -10880242.061 6  -8262160.93421
 91  4  6 22 43 44.9950000  0  6G18G11G16G19G 2G 6
  22016320.358     8837721.918 6   6893086.08321
  21995763.9294   -9364926.46246  -7221931.92361
  22826060.5854   -4737243.02445  -3555466.30061
  20005425.148    -4671779.687 6  -3593509.68123
  20011673.3984  -22070794.41847 -17053044.03063
  21642785.8434  -10925391.55046  -8297342.26361
 91  4  6 22 43 59.9950000  0  6G18G11G16G19G 2G 6
  22023576.0934    8875859.12146   6922803.23261
  21998024.952    -9353044.395 6  -7212673.19121
  22826307.0234   -4735933.68945  -3554446.10761
  20005727.491    -4670176.422 6  -3592260.39923
  20005493.2654  -22103269.87847 -17078349.52563
  21634194.468   -10970540.700 6  -8332523.31521
 91  4  6 22 44 14.9950000  0  6G18G11G16G19G 2G 6
  22030843.2264    8914045.46746   6952558.67861
  22000311.765    -9341023.605 6  -7203306.35821
  22826576.3124   -4734515.39445  -3553341.01861
  20006047.4054   -4668505.73646  -3590958.57863
  19999328.2574  -22135668.15147 -17103594.87763
  21625601.4374  -11015681.71846  -8367698.04361
 91  4  6 22 44 29.9950000  0  6G18G11G16G19G 2G 6
  22038120.1874    8952276.91446   6982349.26561
  22002625.694    -9328867.824 6  -7193834.34121
  22826870.187    -4732991.832 5  -3552153.86921
  20006376.9684   -4666771.25946  -3589607.04763
  19993176.7574  -22167992.70747 -17128782.78763
  21617014.0934  -11060818.00946  -8402869.08561
 91  4  6 22 44 44.9950000  0  6G18G11G16G19G 2G 6
  22045404.7654    8990554.44546   7012175.76061
  22004965.476    -9316576.403 6  -7184256.63521
  22827174.0074   -4731361.99545  -3550883.96061
  20006720.226    -4664971.920 6  -3588204.97923
  19987039.9294  -22200242.80047 -17153912.67063
  21608424.6244  -11105948.66146  -8438035.73261
 91  4  6 22 44 59.9950000  0  6G18G11G16G19G 2G 6
  22052698.0234    9028882.83746   7042041.88661
  22007330.710    -9304144.270 6  -7174569.27721
  22827510.5774   -4729621.02145  -3549527.38661
  20007073.913    -4663102.429 6  -3586748.25023
  19980917.5934  -22232413.07947 -17178980.36263
  21599838.4214  -11151068.24746  -8473193.75861
 91  4  6 22 45 14.9950000  0  6G18G11G16G19G 2G 6
  22059998.6794    9067246.22246   7071935.27561
  22009719.944    -9291587.307 6  -7164784.64521
  22827858.757    -4727784.798 5
  20007441.108    -4661178.449 6
  19974808.9524  -22264519.29847 -17203998.13463
  21591255.2884  -11196192.54046  -8508355.44961
 91  4  6 22 45 29.9950000  0  6G18G11G16G19G 2G 6
  22067306.4684    9105648.69946   7101859.13461
  22012134.304    -9278901.368 6  -7154899.51621
  22828227.2884   -4725849.24245
  20007818.671    -4659195.456 6
  19968712.554   -22296557.216 7 -17228962.68923
  21582663.6554  -11241316.95746  -8543517.23061
 91  4  6 22 45 44.9950000  0  6G18G11G16G19G 2G 6
  22074623.960     9144095.337 6   7131817.39021
  22014573.843    -9266081.406 6  -7144909.94821
  22828613.983    -4723809.602 5
  20008209.023    -4657148.184 6
  19962629.4684  -22328521.62247 -17253869.96363
  21574077.8194  -11286436.27946  -8578675.06061
 91  4  6 22 45 59.9950000  0  6G18G11G16G19G 2G 6
  22081947.804     9182585.888 6   7161809.87221
  22017038.288    -9253127.485 6  -7134816.01121
  22829022.4834   -4721665.84345
  20008607.1554   -4655036.33846  -3580463.03663
  19956561.8274  -22360412.23647 -17278719.73563
  21565495.124   -11331550.171 6  -8613828.65621
 91  4  6 22 46 14.9950000  0  6G18G11G16G19G 2G 6
  22089281.0384    9221125.68646   7191840.71861
  22019529.577    -9240034.284 6  -7124613.53821
  22829447.4914   -4719412.75145
  20009025.1324   -4652854.23846
  19950507.8824  -22392223.78647 -17303507.89863
  21556910.1944  -11376653.14046  -8648973.72761
 91  4  6 22 46 29.9950000  0  6G18G11G16G19G 2G 6
  22096622.5304    9259704.78946   7221902.20261
  22022046.155    -9226811.555 6  -7114310.14521
  22829902.1084   -4717059.74445        -0.32871
  20009453.023    -4650611.278 6  -3577014.96823
  19944466.288   -22423965.711 7 -17328241.81123
  21548327.1794  -11421754.48546  -8684117.54461
 91  4  6 22 46 44.9950000  0  6G18G11G16G19G 2G 6
  22103973.788     9298326.920 6   7251997.20621
  22024587.562    -9213455.889 6  -7103903.14921
  22830369.983    -4714603.407 5      1913.63221
  20009891.851    -4648303.812 6  -3575216.95623
  19938440.296   -22455634.267 7 -17352918.55623
  21539747.7804  -11466850.58946  -8719257.27361
 91  4  6 22 46 59.9950000  0  6G18G11G16G19G 2G 6
  22111329.8434    9336987.54746   7282122.20961
  22027153.5694   -9199971.42246  -7093395.80361
  22830850.6014   -4712048.30045      3904.55361
  20010341.944    -4645935.549 6  -3573371.57723
  19932427.085   -22487233.480 7 -17377541.26623
  21531166.0774  -11511945.30646  -8754395.92461
 91  4  6 22 47 14.9950000  0  6G18G11G16G19G 2G 6
  22118695.2024    9375691.58146   7312281.05261
  22029746.4134   -9186353.27146  -7082784.28861
  22831358.124    -4709389.605 5      5976.17921
  20010805.491    -4643501.324 6  -3571474.79423
  19926428.405   -22518758.086 7 -17402105.84323
  21522583.8904  -11557033.41946  -8789529.42361
 91  4  6 22 47 29.9950000  0  6G18G11G16G19G 2G 6
  22126068.866     9414440.888 6   7342475.14521
  22032363.273    -9172599.694 6  -7072067.24221
  22831882.6554   -4706625.48645      8129.97561
  20011282.241    -4640999.112 6  -3569525.03923
  19920442.819   -22550206.314 7 -17426610.90523
  21514007.577   -11602112.866 6  -8824656.18421
 91  4  6 22 47 44.9950000  0  6G18G11G16G19G 2G 6
  22133451.351     9453227.345 6   7372698.19021
  22035003.241    -9158718.766 6  -7061250.95221
  22832423.5934   -4703764.06645     10359.58961
  20011768.569    -4638436.639 6  -3567528.31823
  19914472.983   -22581585.948 7 -17451062.52023
  21505430.4054  -11647191.43746  -8859782.25361
 91  4  6 22 47 59.9950000  0  6G18G11G16G19G 2G 6
  22140839.6244    9492057.43246   7402955.25761
  22037671.077    -9144703.601 6  -7050330.06621
  22832998.0154   -4700798.49045     12670.34261
  20012266.327    -4635806.876 6  -3565479.17123
  19908515.538   -22612890.301 7 -17475455.46423
  21496853.4214  -11692262.07946  -8894902.13961
 91  4  6 22 48 14.9950000  0  6G18G11G16G19G 2G 6
  22148236.648     9530932.060 5   7433247.00021
  22040362.741    -9130553.459 6  -7039304.00521
  22833577.9914   -4697728.08345     15062.77361
  20012782.851    -4633108.610 6  -3563376.63823
  19902572.538   -22644118.132 7 -17499788.78723
  21488279.0074  -11737323.56846  -8930014.89061
 91  4  6 22 48 29.9950000  0  6G18G11G16G19G 2G 6
  22155644.1244    9569849.89146   7463572.41261
  22043081.007    -9116269.688 6  -7028173.80621
  22834182.108    -4694554.035 5     17536.05021
  20013306.382    -4630342.686 6  -3561221.39023
  19896645.421   -22675270.657 7 -17524063.43423
  21479701.7654  -11782377.16946  -8965121.50361
 91  4  6 22 48 44.9950000  0  6G18G11G16G19G 2G 6
  22163055.3744    9608808.91845   7493929.94961
  22045824.546    -9101854.217 6  -7016940.99721
  22834807.5384   -4691278.37145     20088.40961
  20013848.905    -4627510.877 6  -3559014.80023
  19890730.530   -22706349.541 7 -17548280.69323
  21471131.9054  -11827424.31146  -9000223.07961
 91  4  6 22 48 59.9950000  0  6G18G11G16G19G 2G 6
  22170477.476     9647801.607 6   7524313.68921
  22048590.937    -9087314.534 6  -7005611.39221
  22835447.2964   -4687908.59045     22714.14861
  20014398.968    -4624620.426 6  -3556762.51623
  19884828.398   -22737362.172 7 -17572446.33423
  21462559.8904  -11872472.24546  -9035325.27061
 91  4  6 22 49 14.9950000  0  5G18G11G19G 2G 6
  22177903.9524    9686827.77746   7554723.52561
  22051382.015    -9072650.673 6  -6994185.02721
  20014960.765    -4621671.101 6  -3554464.36023
  19878940.874   -22768308.460 7 -17596560.27323
  21453986.3194  -11917520.72546  -9070427.88961
 91  4  6 22 49 29.9950000  0  5G18G11G19G 2G 6
  22185337.155     9725892.891 5   7585163.72721
  22054197.530    -9057857.117 6  -6982657.59721
  20015533.944    -4618656.859 6  -3552115.61823
  19873064.023   -22799182.392 7 -17620617.83323
  21445415.4764  -11962563.81546  -9105526.30561
 91  4  6 22 49 44.9950000  0  5G18G11G19G 2G 6
  22192779.226     9764997.366 5   7615634.57321
  22057037.952    -9042933.416 6  -6971028.76721
  20016118.937    -4615577.039 6  -3549715.77523
  19867202.366   -22829983.479 7 -17644618.63323
  21436844.1874  -12007600.87546  -9140620.02061
 91  4  6 22 49 59.9950000  0  5G18G11G19G 2G 6
  22200228.733     9804142.674 6   7646137.24421
  22059902.694    -9027878.130 6  -6959297.39621
  20016718.648    -4612429.890 6  -3547263.47223
  19861356.124   -22860709.917 7 -17668561.26323
  21428278.4054  -12052629.94546  -9175707.51761
 91  4  6 22 50 14.9950000  0  5G18G11G19G 2G 6
  22207686.569     9843328.124 5   7676671.19321
  22062791.780    -9012692.162 6  -6947464.19321
  20017329.585    -4609216.045 6  -3544759.19923
  19855524.241   -22891362.526 7 -17692446.36323
  21419710.1084  -12097651.80246  -9210789.38861
 91  4  6 22 50 29.9950000  0  5G18G11G19G 2G 6
  22215147.0694    9882547.57745   7707231.64561
  22065705.757    -8997381.314 6  -6935533.69021
  20017953.780    -4605940.860 6  -3542207.12823
  19849703.007   -22921947.130 7 -17716278.47023
  21411139.5854  -12142671.89246  -9245869.88161
 91  4  6 22 50 44.9950000  0  5G18G11G19G 2G 6
  22222618.2494    9921810.11645   7737825.68161
  22068645.398    -8981936.462 6  -6923498.76221
  20018589.624    -4602594.979 6  -3539599.96623
  19843897.999   -22952454.250 7 -17740050.20423
  21402575.7184  -12187680.81446  -9280941.68161
 91  4  6 22 50 59.9950000  0  5G18G11G19G 2G 6
  22230095.866     9961104.760 5   7768444.71321
  22071607.640    -8966368.758 6  -6911368.10821
  20019237.030    -4599189.137 6  -3536946.07923
  19838104.858   -22982894.784 7 -17763770.05223
  21394011.1634  -12232689.30546  -9316013.13261
 91  4  6 22 51 14.9950000  0  5G18G11G19G 2G 6
  22237583.976    10000434.378 5   7799091.01121
  22074593.3824   -8950675.25446  -6899139.41461
  20019896.905    -4595719.925 6  -3534242.81523
  19832326.335   -23013265.379 7 -17787435.40123
  21385446.0624  -12277693.91146  -9351081.55461
 91  4  6 22 51 29.9950000  0  5G18G11G19G 2G 6
  22245073.6164   10039798.64446   7829764.29961
  22077604.851    -8934856.142 6  -6886812.84621
  20020571.5464   -4592187.29946  -3531490.13163
  19826558.960   -23043566.121 7 -17811046.32023
  21376886.0544  -12322694.76546  -9386147.05861
 91  4  6 22 51 44.9950000  0  5G18G11G19G 2G 6
  22252571.366    10079197.963 5   7860464.91221
  22080637.640    -8918911.085 6  -6874388.14221
  20021253.616    -4588590.644 6  -3528687.55723
  19820807.413   -23073796.467 7 -17834602.37923
  21368323.4054  -12367691.11546  -9421209.05961
 91  4  6 22 51 59.9950000  0  5G18G11G19G 2G 6
  22260075.4684   10118635.84945   7891195.54361
  22083697.812    -8902836.552 6  -6861862.55421
  20021950.398    -4584926.058 6  -3525832.05123
  19815069.077   -23103952.756 7 -17858100.73723
  21359760.4834  -12412679.12946  -9456264.55861
 91  4  6 22 52 14.9950000  0  5G18G11G19G 2G 6
  22267585.2654   10158112.03945   7921956.03861
  22086780.632    -8886632.715 6  -6849236.21021
  20022662.687    -4581193.293 6  -3522923.42023
  19809344.343   -23134034.843 7 -17881541.27223
  21351198.4214  -12457658.56346  -9491313.37761
 91  4  6 22 52 29.9950000  0  5G18G11G19G 2G 6
  22275103.0074   10197614.21945   7952736.80861
  22089886.593    -8870311.938 6  -6836518.73921
  20023381.390    -4577404.328 6  -3519970.99123
  19803633.452   -23164054.844 7 -17904933.43123
  21342636.5544  -12502641.38146  -9526364.83261
 91  4  6 22 52 44.9950000  0  5G18G11G19G 2G 6
  22282627.5544   10237153.66345   7983546.60761
  22093017.265    -8853862.787 6  -6823701.24621
  20024117.452    -4573547.446 6  -3516965.64723
  19797934.101   -23194001.030 7 -17928268.06723
  21334084.5074  -12547615.79946  -9561409.73061
 91  4  6 22 52 59.9950000  0  5G18G11G19G 2G 6
  22290158.718    10276729.472 5   8014384.71121
  22096172.757    -8837286.150 6  -6810784.40821
  20024862.780    -4569623.324 6  -3513907.90323
  19792248.101   -23223874.361 7 -17951545.93623
  21325529.265   -12592582.578 6  -9596448.66921
 91  4  6 22 53 14.9950000  0  5G18G11G19G 2G 6
  22297696.405    10316337.611 5   8045248.02921
  22099348.624    -8820586.081 6  -6797771.38221
  20025623.257    -4565635.725 6  -3510800.70123
  19786576.913   -23253678.728 7 -17974770.06823
  21316971.890   -12637545.432 6  -9631484.54921
 91  4  6 22 53 29.9950000  0  5G18G11G19G 2G 6
  22305242.882    10355977.863 5   8076136.38221
  22102550.499    -8803762.682 6  -6784662.25921
  20026393.999    -4561584.336 6  -3507643.78823
  19780919.054   -23283413.759 7 -17997940.16923
  21308415.015   -12682504.039 6  -9666517.12621
 91  4  6 22 53 44.9950000  0  5G18G11G19G 2G 6
  22312791.7264   10395657.45345   8107055.35561
  22105776.444    -8786809.046 6  -6771451.64821
  20027178.8124   -4557461.73446  -3504431.38263
  19775274.398   -23313072.393 7 -18021050.74323
  21299861.6164  -12727451.04546  -9701540.66661
 91  4  6 22 53 59.9950000  0  5G18G11G19G 2G 6
  22320349.4994   10435367.53545   8137998.09761
  22109026.7804   -8769733.56846  -6758146.09761
  20027974.726    -4553276.140 6  -3501169.90223
  19769643.944   -23342662.820 7 -18044108.16723
  21291309.5694  -12772394.64646  -9736561.55861
 91  4  6 22 54 14.9950000  0  5G18G11G19G 2G 6
  22327910.569    10475108.844 5   8168965.18721
  22112299.616    -8752535.598 6  -6744745.09721
  20028784.913    -4549026.658 6  -3497858.62523
  19764025.054   -23372184.331 7 -18067111.88923
  21282756.8434  -12817333.85146  -9771579.01761
 91  4  6 22 54 29.9950000  0  5G18G11G19G 2G 6
  22335476.444    10514870.793 5   8199948.34521
  22115592.601    -8735225.952 6  -6731257.07621
  20029600.3044   -4544723.62646  -3494505.62563
  19758419.562   -23401647.255 7 -18090069.96123
  21274203.1944  -12862278.94146  -9806601.07061
 91  4  6 22 54 44.9950000  0  5G18G11G19G 2G 6
  22343051.1874   10554667.40045   8230958.53261
  22118909.921    -8717790.622 6  -6717671.11921
  20030434.7264   -4540352.79046  -3491099.79063
  19752826.233   -23431037.479 7 -18112971.38323
  21265653.476   -12907215.745 6  -9841616.66221
 91  4  6 22 54 59.9950000  0  5G18G11G19G 2G 6
  22350630.6404   10594498.19645   8261995.35261
  22122253.3744   -8700229.87646  -6703987.43461
  20031277.694    -4535914.028 6  -3487641.03123
  19747247.773   -23460355.137 7 -18135816.25723
  21257103.1484  -12952144.16746  -9876625.72261
 91  4  6 22 55 14.9950000  0  5G18G11G19G 2G 6
  22358215.2414   10634363.12345   8293058.74861
  22125618.530    -8682543.781 6  -6690206.08621
  20032137.507    -4531407.045 6  -3484129.11122
  19741683.023   -23489600.046 7 -18158604.44723
  21248555.7884  -12997063.88246  -9911628.00461
 91  4  6 22 55 29.9950000  0  5G18G11G19G 2G 6
  22365808.1244   10674259.41045   8324146.59961
  22129006.319    -8664734.893 6  -6676329.05121
  20033004.616    -4526834.100 6  -3480565.79223
  19736131.421   -23518774.378 7 -18181337.63923
  21240011.1164  -13041976.95646  -9946625.10561
 91  4  6 22 55 44.9950000  0  5G18G11G19G 2G 6
  22373406.6484   10714186.74745   8355258.67661
  22132419.780    -8646803.801 6  -6662356.79221
  20033890.366    -4522195.338 6  -3476951.18722
  19730592.812   -23547878.677 7 -18204016.26423
  21231462.7654  -13086883.81046  -9981617.35361
 91  4  6 22 55 59.9950000  0  5G18G11G19G 2G 6
  22381013.218    10754149.767 5   8386398.50221
  22135856.499    -8628745.847 6  -6648285.68421
  20034784.1014   -4517485.81846  -3473281.44262
  19725067.937   -23576908.061 7 -18226636.51123
  21222919.6164  -13131779.32846 -10016600.78861
 91  4  6 22 56 14.9950000  0  5G18G11G19G 2G 6
  22388622.7264   10794143.93445   8417562.62061
  22139315.249    -8610565.414 6  -6634119.13621
  20035695.562    -4512709.495 6  -3469559.64822
  19719556.827   -23605866.613 7 -18249201.56823
  21214376.6794  -13176667.56046 -10051578.53061
 91  4  6 22 56 29.9950000  0  5G18G11G19G 2G 6
  22396236.796    10834162.539 5   8448745.78221
  22142796.1634   -8592269.20746  -6619862.38561
  20036612.468    -4507872.774 6  -3465790.78823
  19714058.866   -23634760.859 7 -18271716.51823
  21205835.2574  -13221554.80846 -10086555.51261
 91  4  6 22 56 44.9950000  0  5G18G11G19G 2G 6
  22403853.9054   10874198.04745   8479942.12661
  22146298.6794   -8573864.82246  -6605521.33261
  20037544.898    -4502982.954 6  -3461980.55322
  19708570.741   -23663598.123 7 -18294187.07023
  21197291.8194  -13266448.31046 -10121537.36261
 91  4  6 22 56 59.9950000  0  5G18G11G19G 2G 6
  22411482.585    10914269.213 5   8511166.23821
  22149824.8434   -8555333.60746  -6591081.45561
  20038490.062    -4498020.954 6  -3458114.07622
  19703097.523   -23692359.568 7 -18316598.52923
  21188755.1404  -13311329.13946 -10156509.34661
 91  4  6 22 57 14.9950000  0  5G18G11G19G 2G 6
  22419111.7964   10954369.49745   8542413.03661
  22153374.5384   -8536681.91746  -6576547.67761
  20039446.905    -4492992.771 6  -3454196.02622
  19697639.069   -23721051.208 7 -18338955.59723
  21180215.8984  -13356203.32246 -10191476.15161
 91  4  6 22 57 29.9950000  0  5G18G11G19G 2G 6
  22426749.6874   10994498.88845   8573682.51461
  22156947.7264   -8517909.57746  -6561919.90061
  20040413.390    -4487897.868 6  -3450225.98823
  19692190.929   -23749672.717 7 -18361258.02123
  21171675.8904  -13401070.15046 -10226437.21861
 91  4  6 22 57 44.9950000  0  5G18G11G19G 2G 6
  22434390.038    11034655.263 5   8604973.03721
  22160541.507    -8499018.885 6  -6547199.90821
  20041398.046    -4482738.336 6  -3446205.58823
  19686757.710   -23778226.380 7 -18383507.58423
  21163137.6014  -13445931.70046 -10261394.18561
 91  4  6 22 57 59.9950000  0  5G18G11G19G 2G 6
  22442038.1014   11074837.18645   8636283.46461
  22164158.569    -8480011.205 6  -6532388.75321
  20042391.077    -4477515.045 6  -3442135.51022
  19681336.905   -23806713.206 7 -18405705.06123
  21154601.1244  -13490789.04346 -10296347.85961
 91  4  6 22 58 14.9950000  0  5G18G11G19G 2G 6
  22449691.6244   11115052.82345   8667620.14061
  22167799.405    -8460878.528 6  -6517480.19521
  20043399.819    -4472219.628 6  -3438009.23022
  19675931.577   -23835124.767 7 -18427843.89023
  21146067.9214  -13535633.54546 -10331291.53861
 91  4  6 22 58 29.9950000  0  5G18G11G19G 2G 6
  22457350.2654   11155301.46645   8698982.53661
  22171464.1244   -8441621.54546  -6502474.79161
  20044418.069    -4466852.387 6  -3433826.98523
  19670539.015   -23863461.502 7 -18449924.41723
  21137536.9684  -13580465.54746 -10366225.47561
 91  4  6 22 58 44.9950000  0  5G18G11G19G 2G 6
  22465015.741    11195572.860 5   8730362.68221
  22175150.874    -8422250.415 6  -6487380.42721
  20045454.077    -4461423.286 6  -3429596.53223
  19665158.780   -23891733.509 7 -18471954.50423
  21129005.327   -13625295.024 6 -10401157.44521
 91  4  6 22 58 59.9950000  0  5G18G11G19G 2G 6
  22472682.9994   11235874.08845   8761766.07061
  22178860.3664   -8402758.18646  -6472191.70061
  20046501.601    -4455924.832 6  -3425312.04523
  19659792.507   -23919933.623 7 -18493928.57723
  21120477.1164  -13670114.45746 -10436081.58561
 91  4  6 22 59 14.9950000  0  5G18G11G19G 2G 6
  22480358.968    11276207.023 5   8793194.16521
  22182592.780    -8383142.908 6  -6456907.09121
  20047560.694    -4450354.969 6  -3420971.90523
  19654439.444   -23948059.800 7 -18515845.02723
  21111950.194   -13714921.615 6 -10470996.17021
 91  4  6 22 59 29.9950000  0  5G18G11G19G 2G 6
  22488039.913    11316568.912 5   8824644.79221
  22186347.054    -8363407.552 6  -6441528.91421
  20048633.874    -4444716.119 6  -3416578.02023
  19649100.577   -23976114.507 7 -18537705.79323
  21103425.5544  -13759718.97546 -10505903.11761
 91  4  6 22 59 44.9950000  0  5G18G11G19G 2G 6
  22495726.0074   11356962.20445   8856119.92361
  22190127.0544   -8343549.44446  -6426055.09461
  20049720.944    -4439005.392 6  -3412128.11823
  19643776.726   -24004094.993 7 -18559508.72123
  21094901.8434  -13804503.56646 -10540800.11761
 91  4  6 22 59 59.9950000  0  5G18G11G19G 2G 6
  22503415.8904   11397382.04345   8887615.74461
  22193925.405    -8323573.362 6  -6410489.35521
  20050819.827    -4433226.998 6  -3407625.49323
  19638465.710   -24032005.589 7 -18581257.19523
  21086383.4834  -13849279.67246 -10575690.49761
 91  4  6 23  0 14.9950000  0  5G18G11G19G 2G 6
  22511112.819    11437826.074 5   8919130.41021
  22197750.7024   -8303481.49346  -6394833.37261
  20051931.710    -4427382.935 6  -3403071.69923
  19633167.718   -24059848.330 7 -18602952.79223
  21077863.5304  -13894049.28046 -10610575.81661
 91  4  6 23  0 29.9950000  0  5G18G11G19G 2G 6
  22518815.890    11478301.814 5   8950669.76921
  22201599.7104   -8283266.76546  -6379081.67461
  20053054.562    -4421465.786 6  -3398460.95523
  19627881.8744  -24087615.93747 -18624589.85163
  21069345.9294  -13938804.84846 -10645450.19861
 91  4  6 23  0 44.9950000  0  5G18G11G19G 2G 6
  22526523.4374   11518806.91545   8982232.03361
  22205467.124    -8262931.409 6  -6363235.99921
  20054198.265    -4415477.340 6  -3393794.65623
  19622612.968   -24115310.338 7 -18646169.85923
  21060831.944   -13983548.245 6 -10680315.09821
 91  4  6 23  0 59.9950000  0  5G18G11G19G 2G 6
  22534234.968    11559333.099 5   9013810.72021
  22209358.351    -8242483.833 6  -6347302.87021
  20055347.733    -4409425.618 6  -3389079.04423
  19617354.0384  -24142939.66347 -18667699.16563
  21052318.4604  -14028287.31646 -10715176.62461
 91  4  6 23  1 14.9950000  0  5G18G11G19G 2G 6
  22541953.851    11599887.215 5   9045411.15721
  22213271.4834   -8221916.95046  -6331276.76261
  20056514.155    -4403303.125 6  -3384308.29123
  19612111.515   -24170496.682 7 -18689172.12523
  21043806.655   -14073014.657 6 -10750029.01021
 91  4  6 23  1 29.9950000  0  5G18G11G19G 2G 6
  22549679.4134   11640466.36945   9077031.11061
  22217208.858    -8201233.455 6  -6315159.78321
  20057693.015    -4397112.364 6  -3379484.34323
  19606879.7964  -24197984.01247 -18710590.78563
  21035296.351   -14117732.840 6 -10784874.25521
 91  4  6 23  1 44.9950000  0  5G18G11G19G 2G 6
  22557402.3044   11681072.94545   9108672.41761
  22221166.9214   -8180431.17446  -6298950.23861
  20058883.679    -4390850.880 6  -3374605.28523
  19601663.132   -24225399.248 7 -18731953.26223
  21026789.1084  -14162439.13146 -10819710.24061
 91  4  6 23  1 59.9950000  0  5G18G11G19G 2G 6
  22565134.968    11721702.170 5   9140331.38521
  22225147.0234   -8159514.95146  -6282651.92261
  20060087.421    -4384523.060 6  -3369674.53423
  19596458.1874  -24252746.72147 -18753262.94563
  21018285.476   -14207137.986 6 -10854540.43721
 91  4  6 23  2 14.9950000  0  5G18G11G19G 2G 6
  22572870.530    11762357.718 5   9172010.87521
  22229150.358    -8138481.162 6  -6266261.97421
  20061305.452    -4378124.715 6  -3364688.82823
  19591269.093   -24280022.819 7 -18774517.00523
  21009778.8904  -14251825.41646 -10889361.71561
 91  4  6 23  2 29.9950000  0  5G18G11G19G 2G 6
  22580610.608    11803036.255 5   9203708.27021
  22233173.773    -8117332.976 6  -6249782.89021
  20062535.319    -4371658.893 6  -3359650.54823
  19586091.8434  -24307230.44647 -18795717.71463
  21001278.2734  -14296504.14946 -10924176.21761
 91  4  6 23  2 44.9950000  0  5G18G11G19G 2G 6
  22588352.843    11843740.702 5   9235425.87421
  22237220.968    -8096067.486 6  -6233212.39921
  20063779.1324   -4365122.30046  -3354557.12463
  19580929.038   -24334366.318 7 -18816862.50923
  20992778.3984  -14341170.78946 -10958981.30761
 91  4  6 23  2 59.9950000  0  5G18G11G19G 2G 6
  22596107.913    11884472.553 5   9267164.76721
  22241290.882    -8074683.508 6  -6216549.58421
  20065039.476    -4358513.368 6  -3349407.33023
  19575778.0234  -24361429.10347 -18837950.35163
  20984281.890   -14385823.879 6 -10993775.84121
 91  4  6 23  3 14.9950000  0  5G18G11G19G 2G 6
  22603866.007    11925229.110 5   9298922.96821
  22245382.679    -8053183.594 6  -6199796.43621
  20066308.8664   -4351834.23846  -3344202.84363
  19570642.2734  -24388421.14247 -18858983.07263
  20975786.390   -14430465.536 6 -11028561.45821
 91  4  6 23  3 29.9950000  0  5G18G11G19G 2G 6
  22611622.265    11966003.115 5   9330694.73521
  22249493.858    -8031575.040 6  -6182958.62321
  20067590.663    -4345091.859 6  -3338949.07123
  19565517.3584  -24415349.57647 -18879966.22663
  20967291.3434  -14475102.62046 -11063343.51661
 91  4  6 23  3 44.9950000  0  5G18G11G19G 2G 6
  22619386.077    12006799.117 4   9362483.67521
  22253627.718    -8009853.018 6  -6166032.39221
  20068887.991    -4338281.071 6  -3333641.98423
  19560404.733   -24442209.153 7 -18900895.72223
  20958799.507   -14519729.904 6 -11098117.93821
 91  4  6 23  3 59.9950000  0  5G18G11G19G 2G 6
  22627156.452    12047627.513 5   9394297.83821
  22257785.5624   -7988007.39846  -6149009.86361
  20070200.999    -4331391.280 6  -3328273.34023
  19555309.4054  -24468989.40547 -18921763.41363
  20950311.4444  -14564336.76546 -11132876.43961
 91  4  6 23  4 14.9950000  0  5G18G11G19G 2G 6
  22634930.8124   12088486.04444   9426135.47161
  22261965.452    -7966040.417 6  -6131892.75121
  20071524.773    -4324424.465 6  -3322844.67123
  19550228.413   -24495692.375 7 -18942570.88023
  20941827.124   -14608925.126 6 -11167620.52821
 91  4  6 23  4 29.9950000  0  5G18G11G19G 2G 6
  22642712.6714   12129358.52245   9457984.00361
  22266164.444    -7943968.301 6  -6114693.72121
  20072860.866    -4317396.374 6  -3317368.26023
  19545157.6244  -24522333.96647 -18963330.52363
  20933341.874   -14653510.674 6 -11202362.43021
 91  4  6 23  4 44.9950000  0  5G18G11G19G 2G 6
  22650490.7884   12170251.37744   9489848.38661
  22270386.288    -7921784.984 6  -6097408.03421
  20074212.4994   -4310300.55346  -3311839.08063
  19540102.062   -24548908.075 7 -18984037.57523
  20924857.030   -14698086.962 6 -11237097.12221
 91  4  6 23  4 59.9950000  0  5G18G11G19G 2G 6
  22658279.4054   12211172.52444   9521734.82761
  22274630.265    -7899482.083 6  -6080029.17921
  20075575.1244   -4303128.21546  -3306250.26763
  19535058.4054  -24575406.04747 -19004685.30563
  20916378.9524  -14742645.29946 -11271817.81661
 91  4  6 23  5 14.9950000  0  5G18G11G19G 2G 6
  22666066.0464   12252104.81244   9553629.95761
  22278893.538    -7877076.900 6  -6062570.61521
  20076954.2024   -4295896.36546  -3300615.08963
  19530028.3584  -24601844.92047 -19025286.98563
  20907903.9294  -14787202.49446 -11306537.61961
 91  4  6 23  5 29.9950000  0  5G18G11G19G 2G 6
  22673857.991    12293053.481 4   9585537.82121
  22283177.2574   -7854564.28246  -6045028.34761
  20078340.413    -4288599.496 6  -3294929.24423
  19525008.4524  -24628219.40847 -19045838.49463
  20899422.483   -14831753.051 6 -11341252.25221
 91  4  6 23  5 44.9950000  0  5G18G11G19G 2G 6
  22681659.952    12334023.705 4   9617462.50821
  22287484.4444   -7831939.18546  -6027398.42161
  20079744.343    -4281232.445 6  -3289188.70623
  19520003.5234  -24654524.17347 -19066335.67263
  20890948.7494  -14876291.57846 -11375957.50561
 91  4  6 23  5 59.9950000  0  5G18G11G19G 2G 6
  22689455.210    12375012.147 4   9649401.36721
  22291809.562    -7809204.587 6  -6009683.17021
  20081158.499    -4273797.864 6  -3283395.55223
  19515010.476   -24680761.873 7 -19086780.59123
  20882473.1014  -14920820.54146 -11410655.30461
 91  4  6 23  6 14.9950000  0  5G18G11G19G 2G 6
  22697262.452    12416023.855 5   9681358.41221
  22296157.468    -7786355.554 6  -5991878.75221
  20082586.608    -4266289.970 6  -3277545.27223
  19510030.4834  -24706927.23047 -19107169.13863
  20874002.4294  -14965334.55546 -11445341.46261
 91  4  6 23  6 29.9950000  0  5G18G11G19G 2G 6
  22705066.2964   12457054.07344   9713329.83861
  22300526.093    -7763397.034 6  -5973989.01421
  20084028.804    -4258713.337 6  -3271641.42823
  19505064.3274  -24733024.97147 -19127505.00463
  20865534.249   -15009838.162 6 -11480019.50821
 91  4  6 23  6 44.9950000  0  5G18G11G19G 2G 6
  22712875.8124   12498095.94144   9745310.32961
  22304915.5074   -7740335.97846  -5956019.39361
  20085483.812    -4251074.736 6  -3265689.29623
  19500110.3904  -24759061.88947 -19147793.47263
  20857065.023   -15054337.884 6 -11514694.52921
 91  4  6 23  6 59.9950000  0  5G18G11G19G 2G 6
  22720687.030    12539153.610 4   9777303.14821
  22309323.4834   -7717168.28046  -5937966.65661
  20086947.062    -4243369.796 6  -3259685.46723
  19495168.2184  -24785033.64547 -19168031.16363
  20848599.1484  -15098829.20646 -11549362.99761
 91  4  6 23  7 14.9940000  0  5G18G11G19G 2G 6
  22728509.6044   12580227.82345   9809308.86961
  22313752.1824   -7693891.83146  -5919829.19461
  20088429.236    -4235594.948 6  -3253627.16822
  19490238.643   -24810934.499 7 -19188213.60223
  20840137.0654  -15143304.99346 -11584019.36461
 91  4  6 23  7 29.9940000  0  5G18G11G19G 2G 6
  22736326.2294   12621323.23344   9841331.14961
  22318204.3384   -7670504.28246  -5901605.14161
  20089920.393    -4227749.557 6  -3247513.90223
  19485322.6664  -24836768.59547 -19208344.03463
  20831674.4944  -15187771.69946 -11618668.65961
 91  4  6 23  7 44.9940000  0  5G18G11G19G 2G 6
  22744151.6974   12662434.44044   9873365.66061
  22322674.510    -7647010.161 6  -5883298.05221
  20091427.174    -4219836.796 6  -3241348.13722
  19480419.721   -24862536.881 7 -19228423.17223
  20823214.2604  -15232228.81046 -11653310.47561
 91  4  6 23  7 59.9940000  0  5G18G11G19G 2G 6
  22751975.408    12703559.107 4   9905410.70521
  22327163.549    -7623411.727 5  -5864909.68721
  20092942.307    -4211858.307 6  -3235131.16122
  19475527.7054  -24888241.16547 -19248452.44663
  20814755.854   -15276678.031 6 -11687946.14821
 91  4  6 23  8 14.9940000  0  5G18G11G19G 2G 6
  22759808.033    12744704.824 5   9937472.12521
  22331674.6824   -7599701.42945  -5846434.16961
  20094477.768    -4203806.240 6  -3228856.84622
  19470650.0254  -24913873.66647 -19268425.78363
  20806301.7524  -15321111.38646 -11722569.44861
 91  4  6 23  8 29.9940000  0  5G18G11G19G 2G 6
  22767643.033    12785859.596 5   9969540.61021
  22336206.9244   -7575891.16645  -5827880.75061
  20096018.361    -4195692.211 6  -3222534.24722
  19465784.2994  -24939446.24347 -19288352.43063
  20797845.6044  -15365540.53546 -11757189.47161
 91  4  6 23  8 44.9940000  0  5G18G11G19G 2G 6
  22775477.447    12827027.120 4  10001619.07921
  22340757.111    -7551977.531 5  -5809246.79121
  20097579.033    -4187512.529 6  -3216160.49322
  19460930.2214  -24964955.08647 -19308229.41363
  20789391.0024  -15409961.42846 -11791803.06661
 91  4  6 23  8 59.9940000  0  5G18G11G19G 2G 6
  22783314.7994   12868214.71843  10033713.11661
  22345328.525    -7527953.231 5  -5790526.57921
  20099146.104    -4179259.470 6  -3209729.56322
  19456088.8224  -24990392.82247 -19328050.98463
  20780942.9084  -15454366.43346 -11826404.27861
 91  4  6 23  9 14.9940000  0  5G18G11G19G 2G 6
  22791154.994    12909425.798 4  10065825.46321
  22349924.252    -7503814.732 5  -5771717.37721
  20100734.182    -4170929.076 6  -3203238.36722
  19451261.9324  -25015755.52947 -19347814.09363
  20772495.8774  -15498751.57046 -11860990.00461
 91  4  6 23  9 29.9940000  0  5G18G11G19G 2G 6
  22799000.690    12950661.442 4  10097956.95921
  22354536.7604   -7479560.97245  -5752818.38161
  20102335.666    -4162520.021 6  -3196685.88122
  19446451.6744  -25041041.78047 -19367517.62763
  20764053.4944  -15543115.33646 -11895559.08661
 91  4  6 23  9 44.9940000  0  4G11G19G 2G 6
  22359174.1584   -7455201.99145  -5733837.38861
  20103947.533    -4154042.011 6  -3190079.66122
  19441650.4324  -25066261.54947 -19387169.35663
  20755615.541   -15587467.401 6 -11930119.05721
 91  4  6 23  9 59.9940000  0  4G11G19G 2G 6
  22363828.5334   -7430748.53845  -5714782.78161
  20105569.424    -4145505.206 6  -3183427.62122
  19436862.8224  -25091425.17747 -19406777.33963
  20747174.0414  -15631818.07246 -11964677.93261
 91  4  6 23 10 14.9940000  0  4G11G19G 2G 6
  22368499.0254   -7406189.10745  -5695645.60061
  20107209.6114   -4136897.68946  -3176720.49462
  19432086.8154  -25116520.79747 -19426332.32963
  20738737.4164  -15676155.16946 -11999226.23161
 91  4  6 23 10 29.9940000  0  4G11G19G 2G 6
  22373195.2054   -7381521.90445  -5676424.43061
  20108860.361    -4128217.335 6  -3169956.60322
  19427325.4864  -25141546.55947 -19445832.88463
  20730302.916   -15720476.615 6 -12033762.34021
 91  4  6 23 10 44.9940000  0  4G11G19G 2G 6
  22377908.0964   -7356754.64946  -5657125.28861
  20110526.768    -4119471.530 6  -3163141.70522
  19422574.6504  -25166510.05347 -19465284.92063
  20721870.1114  -15764789.80546 -12068292.00761
 91  4  6 23 10 59.9940000  0  4G11G19G 2G 6
  22382638.213    -7331890.905 6  -5637750.96321
  20112199.096    -4110663.446 6  -3156278.28822
  19417835.8934  -25191414.48547 -19484690.93363
  20713438.9864  -15809097.71146 -12102817.56161
 91  4  6 23 11 14.9940000  0  4G11G19G 2G 6
  22387392.3224   -7306917.11846  -5618290.89561
  20113892.627    -4101779.223 6  -3149355.54022
  19413109.5654  -25216245.91947 -19504040.06763
  20705009.5964  -15853386.34746 -12137328.09561
 91  4  6 23 11 29.9940000  0  4G11G19G 2G 6
  22392162.838    -7281844.388 6  -5598753.74321
  20115596.979    -4092829.575 6  -3142381.80822
  19408395.7754  -25241015.16547 -19523340.74463
  20696584.025   -15897666.344 6 -12171831.91921
 91  4  6 23 11 44.9940000  0  4G11G19G 2G 6
  22396953.4554   -7256666.25445  -5579134.46861
  20117313.5884   -4083807.78946  -3135351.87562
  19403696.7754  -25265715.62147 -19542587.81663
  20688160.783   -15941930.837 6 -12206323.64221
 91  4  6 23 11 59.9940000  0  4G11G19G 2G 6
  22401765.9004   -7231382.98646  -5559433.25461
  20119042.4244   -4074713.59646  -3128265.51962
  19399008.4554  -25290347.24947 -19561781.24863
  20679740.658   -15986179.621 6 -12240803.13721
 91  4  6 23 12 14.9940000  0  4G11G19G 2G 6
  22406596.205    -7205995.293 5  -5539650.67421
  20120788.7294   -4065547.48146  -3121123.12062
  19394334.7684  -25314910.50147 -19580921.41363
  20671323.322   -16030413.036 6 -12275270.65021
 91  4  6 23 12 29.9940000  0  4G11G19G 2G 6
  22411447.0254   -7180507.76945  -5519790.30361
  20122544.1194   -4056313.71046  -3113928.00062
  19389672.6974  -25339409.68847 -19600011.64963
  20662907.744   -16074635.185 6 -12309729.39121
 91  4  6 23 12 44.9940000  0  4G11G19G 2G 6
  22416315.9714   -7154921.46146  -5499852.95661
  20124314.424    -4047012.572 6  -3106680.39222
  19385022.4554  -25363845.41247 -19619052.43663
  20654495.643   -16118846.403 6 -12344179.61121
 91  4  6 23 12 59.9940000  0  4G11G19G 2G 6
  22421204.6274   -7129237.71646  -5479839.68461
  20126093.596    -4037645.132 6  -3099381.10922
  19380384.9084  -25388219.03847 -19638044.83563
  20646084.119   -16163047.752 6 -12378622.14621
 91  4  6 23 13 14.9940000  0  4G11G19G 2G 6
  22426111.713    -7103447.186 6  -5459743.21621
  20127896.393    -4028201.755 6  -3092022.66122
  19375761.0024  -25412520.95547 -19656981.35863
  20637675.580   -16207229.448 6 -12413049.36521
 91  4  6 23 13 29.9940000  0  4G11G19G 2G 6
  22431036.9554   -7077557.42046  -5439569.40661
  20129702.0724   -4018689.66046  -3084610.66662
  19371148.6664  -25436758.48247 -19675867.70763
  20629270.025   -16251398.616 6 -12447466.82421
 91  4  6 23 13 44.9940000  0  4G11G19G 2G 6
  22435983.7834   -7051568.17946  -5419318.08961
  20131528.5494   -4009108.21946  -3077144.63562
  19366547.8464  -25460930.90947 -19694703.32563
  20620868.408   -16295554.677 6 -12481874.07521
 91  4  6 23 13 59.9940000  0  4G11G19G 2G 6
  22440945.9554   -7025478.32046  -5398988.35561
  20133365.580    -3999456.152 6  -3069623.57022
  19361960.6114  -25485037.03647 -19713487.28763
  20612468.361   -16339695.921 6 -12516269.77821
 91  4  6 23 14 14.9940000  0  4G11G19G 2G 6
  22445930.322    -6999290.469 6  -5378582.27621
  20135216.2684   -3989735.43846  -3062049.02062
  19357386.1194  -25509079.26047 -19732221.45363
  20604071.4944  -16383824.52446 -12550655.63661
 91  4  6 23 14 29.9940000  0  4G11G19G 2G 6
  22450934.9944   -6973002.17646  -5358097.92561
  20137078.4864   -3979943.22646  -3054418.75062
  19352823.5414  -25533054.76847 -19750903.62963
  20595677.4324  -16427937.55246 -12585029.36061
 91  4  6 23 14 44.9940000  0  4G11G19G 2G 6
  22455954.5654   -6946617.29646  -5337538.31461
  20138955.7444   -3970082.89946  -3046735.41062
  19348272.8614  -25556967.17347 -19769536.63963
  20587284.674   -16472038.424 6 -12619393.60321
 91  4  6 23 14 59.9940000  0  4G11G19G 2G 6
  22460995.7364   -6920138.79646  -5316905.74761
  20140843.4794   -3960157.16146  -3039001.09862
  19343734.4004  -25580819.15447 -19788122.56363
  20578894.166   -16516129.551 6 -12653750.24221
 91  4  6 23 15 14.9940000  0  4G11G19G 2G 6
  22466051.3384   -6893560.09146  -5296195.10261
  20142744.8384   -3950159.06746  -3031210.40762
  19339208.7294  -25604603.89547 -19806656.09563
  20570507.1584  -16560203.87246 -12688093.80061
 91  4  6 23 15 29.9940000  0  4G11G19G 2G 6
  22471125.682    -6866897.120 6  -5275418.77521
  20144660.3614   -3940104.36946  -3023375.61362
  19334692.9324  -25628337.11247 -19825149.47563
  20562118.4164  -16604276.88646 -12722436.33961
 91  4  6 23 15 44.9940000  0  4G11G19G 2G 6
  22476218.2294   -6840136.85145  -5254566.65961
  20146586.1434   -3929979.63646  -3015486.23662
  19330188.6194  -25652005.44447 -19843592.30163
  20553735.8544  -16648335.21746 -12756767.43461
 91  4  6 23 15 59.9940000  0  4G11G19G 2G 6
  22481327.9944   -6813278.33145  -5233637.98361
  20148524.0104   -3919783.35846  -3007541.11262
  19325697.0024  -25675607.59647 -19861983.55763
  20545355.1504  -16692377.38646 -12791085.94261
 91  4  6 23 16 14.9940000  0  4G11G19G 2G 6
  22486458.463    -6786316.809 5  -5212629.06621
  20150481.2364   -3909510.42746  -2999536.26862
  19321218.8304  -25699138.49747 -19880319.29363
  20536979.3304  -16736398.05346 -12825387.70561
 91  4  6 23 16 29.9940000  0  4G11G19G 2G 6
  22491608.494    -6759259.901 5  -5191545.79721
  20152450.4004   -3899168.17446  -2991477.40662
  19316753.9324  -25722605.71647 -19898605.40663
  20528603.3614  -16780404.51446 -12859678.38861
 91  4  6 23 16 44.9940000  0  4G11G19G 2G 6
  22496777.025    -6732098.177 5  -5170380.86121
  20154432.8154   -3888746.63146  -2983356.75262
  19312300.6194  -25745999.54247 -19916834.33363
  20520235.1354  -16824386.71046 -12893950.16361
 91  4  6 23 16 59.9940000  0  4G11G19G 2G 6
  22501961.760    -6704845.679 5  -5149145.18021
  20156426.3074   -3878259.50346  -2975184.99662
  19307860.8154  -25769333.58947 -19935016.67463
  20511867.4164  -16868358.23146 -12928213.62361
 91  4  6 23 17 14.9940000  0  4G11G19G 2G 6
  22507166.869    -6677492.494 5  -5127831.06121
  20158437.8384   -3867696.66546  -2966954.25062
  19303434.4004  -25792597.73447 -19953144.55363
  20503502.9794  -16912308.86846 -12962460.80462
 91  4  6 23 17 29.9940000  0  4G11G19G 2G 6
  22512391.580    -6650047.215 5  -5106445.17421
  20160459.7834   -3857066.34546  -2958670.92262
  19299018.2364  -25815800.39847 -19971224.51463
  20495142.7754  -16956246.51146 -12996697.86762
 91  4  6 23 17 44.9940000  0  4G11G19G 2G 6
  22517633.2914   -6622507.52945  -5084985.74461
  20162496.1274   -3846365.80346  -2950332.87762
  19294615.5494  -25838938.82747 -19989254.43363
  20486784.1974  -17000168.40846 -13030922.65762
 91  4  6 23 17 59.9940000  0  4G11G19G 2G 6
  22522889.760    -6594875.050 5  -5063453.98921
  20164544.7364   -3835596.19646  -2941941.00562
  19290223.8074  -25862014.53347 -20007235.47363
  20478428.9554  -17044075.76846 -13065136.12862
 91  4  6 23 18 14.9940000  0  4G11G19G 2G 6
  22528163.7134   -6567156.36745  -5041855.05961
  20166609.0884   -3824763.78846  -2933500.20862
  19285843.6354  -25885033.80047 -20025172.53263
  20470075.4004  -17087974.75646 -13099343.06862
 91  4  6 23 18 29.9940000  0  4G11G19G 2G 6
  22533458.5574   -6539343.50145  -5020182.74561
  20168682.2294   -3813860.18446  -2925003.93162
  19281475.7994  -25907988.44847 -20043059.24163
  20461725.4634  -17131856.85946 -13133536.85162
 91  4  6 23 18 44.9940000  0  4G11G19G 2G 6
  22538766.127    -6511441.598 5  -4998441.05321
  20170771.0024   -3802890.06346  -2916455.81962
  19277118.8224  -25930883.17347 -20060899.25363
  20453377.9244  -17175726.64446 -13167721.03161
 91  4  6 23 18 59.9940000  0  4G11G19G 2G 6
  22544093.127    -6483447.747 5  -4976627.70921
  20172870.6744   -3791850.16446  -2907853.34062
  19272774.1824  -25953714.86147 -20078690.14863
  20445030.9864  -17219580.77446 -13201893.01262
 91  4  6 23 19 14.9940000  0  4G11G19G 2G 6
  22549438.791    -6455361.804 5  -4954742.59721
  20174986.9324   -3780740.09946  -2899196.18162
  19268441.3154  -25976483.04447 -20096431.55763
  20436688.2834  -17263418.64246 -13236052.32862
 91  4  6 23 19 29.9940000  0  4G11G19G 2G 6
  22554801.3614   -6427181.82545  -4932784.22861
  20177111.7054   -3769557.26146  -2890482.31962
  19264121.252   -25999185.510 7 -20114121.76523
  20428350.3854  -17307237.73746 -13270197.01262
 91  4  6 23 19 44.9940000  0  4G11G19G 2G 6
  22560182.4164   -6398905.44945  -4910750.73861
  20179257.1274   -3758299.11446  -2881709.77062
  19259814.7834  -26021819.57147 -20131758.66863
  20420014.4164  -17351035.17046 -13304324.82162
 91  4  6 23 19 59.9940000  0  4G11G19G 2G 6
  22565580.2134   -6370535.91245  -4888644.63161
  20181410.6274   -3746968.78246  -2872880.97262
  19255519.385   -26044388.487 7 -20149344.80724
  20411684.8154  -17394813.91346 -13338438.06362
 91  4  6 23 20 14.9940000  0  4G11G19G 2G 6
  22570995.0414   -6342077.85445  -4866469.57161
  20183580.4864   -3735570.18746  -2863998.98462
  19251236.4004  -26066896.34847 -20166883.37263
  20403356.3694  -17438577.97446 -13372539.86562
 91  4  6 23 20 29.9940000  0  4G11G19G 2G 6
  22576427.4944   -6313538.25645  -4844230.96361
  20185758.5804   -3724109.83546  -2855068.87162
  19246963.5254  -26089349.99447 -20184379.68863
  20395029.1584  -17482333.69246 -13406635.17062
 91  4  6 23 20 44.9940000  0  4G11G19G 2G 6
  22581872.8154   -6284914.36245  -4821926.65561
  20187955.1824   -3712584.78846  -2846088.35262
  19242701.4714  -26111746.67647 -20201831.62163
  20386705.2994  -17526078.10746 -13440721.66162
 91  4  6 23 20 59.9940000  0  4G11G19G 2G 6
  22587337.893    -6256199.775 5  -4799551.70121
  20190160.2294   -3700988.30546  -2837052.16862
  19238452.8544  -26134079.48347 -20219233.77763
  20378383.8694  -17569804.22046 -13474793.89562
 91  4  6 23 21 14.9940000  0  4G11G19G 2G 6
  22592818.479    -6227398.251 5  -4777109.00021
  20192382.2294   -3689323.79846  -2827962.98062
  19234213.5804  -26156351.63247 -20236588.66363
  20370067.1354  -17613515.26746 -13508854.38762
 91  4  6 23 21 29.9940000  0  4G11G19G 2G 6
  22598316.627    -6198508.747 6  -4754597.74821
  20194612.8614   -3677589.79446  -2818819.63762
  19229987.3934  -26178561.81447 -20253895.27063
  20361752.3464  -17657209.67246 -13542901.91462
 91  4  6 23 21 44.9940000  0  4G11G19G 2G 6
  22603829.940    -6169532.330 5  -4732018.76121
  20196861.0724   -3665786.87946  -2809622.59262
  19225772.6504  -26200710.86047 -20271154.23563
  20353440.9244  -17700887.98446 -13576936.89962
 91  4  6 23 21 59.9940000  0  4G11G19G 2G 6
  22609360.1354   -6140466.26845  -4709369.94361
  20199121.2364   -3653912.04746  -2800369.50762
  19221569.9864  -26222796.02247 -20288363.42163
  20345132.9634  -17744546.95046 -13610956.80862
 91  4  6 23 22 14.9940000  0  4G11G19G 2G 6
  22614909.400    -6111319.016 5  -4686657.85421
  20201392.3154   -3641973.33646  -2791066.64962
  19217377.9324  -26244825.40347 -20305529.14263
  20336828.2294  -17788194.67246 -13644967.95162
 91  4  6 23 22 29.9940000  0  4G11G19G 2G 6
  22620472.4944   -6082082.14945  -4663875.93761
  20203676.4944   -3629962.15246  -2781707.32962
  19213197.8614  -26266790.36647 -20322644.67163
  20328524.455   -17831822.332 6 -13678963.47722
 91  4  6 23 22 44.9940000  0  4G11G19G 2G 6
  22626051.197    -6052761.110 5  -4641028.42421
  20205977.9554   -3617883.38146  -2772295.32862
  19209028.9004  -26288696.02147 -20339713.98163
  20320225.7684  -17875434.55846 -13712946.97162
 91  4  6 23 22 59.9940000  0  4G11G19G 2G 6
  22631646.650    -6023356.583 5  -4618115.87021
  20208288.1194   -3605737.21946  -2762830.82662
  19204871.5574  -26310542.65447 -20356737.29963
  20311929.2604  -17919031.73546 -13746918.73762
 91  4  6 23 23 14.9940000  0  4G11G19G 2G 6
  22637259.690    -5993860.308 5  -4595131.78921
  20210613.9004   -3593515.08646  -2753307.12362
  19200727.0414  -26332321.79047 -20373708.02663
  20303638.588   -17962604.908 6 -13780871.79822
 91  4  6 23 23 29.9940000  0  4G11G19G 2G 6
  22642892.2834   -5964270.30145  -4572074.68361
  20212951.8854   -3581214.78046  -2743722.50162
  19196596.0104  -26354031.36347 -20390624.54764
  20295350.4324  -18006151.88846 -13814804.45362
 91  4  6 23 23 44.9940000  0  4G11G19G 2G 6
  22648535.150    -5934598.415 5  -4548953.75821
  20215308.0724   -3568847.62346  -2734085.79162
  19192476.7444  -26375682.78847 -20407495.76363
  20287065.0494  -18049683.85846 -13848725.40562
 91  4  6 23 23 59.9940000  0  4G11G19G 2G 6
  22654197.932    -5904845.688 5  -4525769.85521
  20217674.5254   -3556414.24746  -2724397.48262
  19188365.6974  -26397276.78047 -20424322.22163
  20278786.3774  -18093201.25946 -13882635.00362
 91  4  6 23 24 14.9940000  0  4G11G19G 2G 6
  22659877.440    -5875006.617 5  -4502518.67721
  20220054.2444   -3543908.87846  -2714653.06862
  19184268.947   -26418807.577 7 -20441099.43924
  20270508.9084  -18136698.14846 -13916528.62362
 91  4  6 23 24 29.9940000  0  4G11G19G 2G 6
  22665570.877    -5845085.188 5  -4479203.34721
  20222447.0494   -3531335.14346  -2704855.38662
  19180183.6194  -26440278.84647 -20457830.27063
  20262234.369   -18180178.009 6 -13950408.97422
 91  4  6 23 24 44.9940000  0  4G11G19G 2G 6
  22671282.424    -5815080.169 5  -4455822.85021
  20224852.8694   -3518691.30446  -2695003.08462
  19176109.1114  -26461689.03347 -20474513.50564
  20253965.0574  -18223639.05046 -13984274.66462
 91  4  6 23 24 59.9940000  0  4G11G19G 2G 6
  22677007.6194   -5784989.16645  -4432375.33561
  20227271.7994   -3505974.64846  -2685094.03662
  19172047.4404  -26483035.61147 -20491147.17564
  20245697.7054  -18267078.42346 -14018123.46262
 91  4  6 23 25 14.9940000  0  4G11G19G 2G 6
  22682749.2054   -5754812.19045  -4408860.85561
  20229704.7994   -3493184.84446  -2675127.99462
  19167997.244   -26504318.333 8 -20507731.08724
  20237435.6194  -18310495.64146 -14051954.99362
 91  4  6 23 25 29.9940000  0  4G11G19G 2G 6
  22688508.127    -5724547.948 5  -4385278.35821
  20232151.658    -3480320.176 6  -2665103.62222
  19163960.041   -26525535.692 7 -20524264.07024
  20229178.6904  -18353888.87246 -14085767.84262
 91  4  6 23 25 44.9940000  0  4G11G19G 2G 6
  22694280.8774   -5694203.97945  -4361633.74561
  20234615.783    -3467388.001 6  -2655026.64522
  19159932.963   -26546694.899 8 -20540751.74024
  20220924.0414  -18397265.40647 -14119567.68362
 91  4  6 23 25 59.9940000  0  4G11G19G 2G 6
  22700074.1044   -5663776.38045  -4337923.96161
  20237086.830    -3454383.971 6  -2644893.67922
  19155917.994   -26567791.626 7 -20557190.72124
  20212672.674   -18440620.471 6 -14153350.79322
 91  4  6 23 26 14.9940000  0  4G11G19G 2G 6
  22705876.932    -5633275.820 5  -4314157.33121
  20239576.611    -3441318.394 6  -2634712.75122
  19151913.1114  -26588836.37747 -20573589.20563
  20204425.1274  -18483964.39146 -14187125.21462
 91  4  6 23 26 29.9940000  0  4G11G19G 2G 6
  22711696.6904   -5602698.67745  -4290331.03561
  20242075.7364   -3428187.04246  -2624480.56762
  19147919.440   -26609825.253 7 -20589944.14824
  20196178.3464  -18527292.92246 -14220887.64962
 91  4  6 23 26 44.9940000  0  4G11G19G 2G 6
  22717529.6194   -5572041.61045  -4266442.43161
  20244586.3694   -3414986.29146  -2614194.30862
  19143936.635   -26630754.573 7 -20606252.68524
  20187938.1274  -18570602.24846 -14254635.11162
 91  4  6 23 26 59.9940000  0  4G11G19G 2G 6
  22723378.1974   -5541302.67845  -4242490.06161
  20247112.533    -3401713.875 6  -2603852.20822
  19139966.158   -26651622.207 7 -20622513.15624
  20179701.088   -18613889.898 6 -14288365.68922
 91  4  6 23 27 14.9940000  0  4G11G19G 2G 6
  22729243.479    -5510480.950 5  -4218473.15421
  20249652.408    -3388368.573 6  -2593453.31722
  19136006.752   -26672426.851 7 -20638724.54224
  20171468.1354  -18657154.50546 -14322078.31062
 91  4  6 23 27 29.9940000  0  3G19G 2G 6
  20252204.236    -3374955.301 6  -2583001.46122
  19132059.3614  -26693173.64147 -20654890.84364
  20163239.5574  -18700400.78147 -14355776.64662
 91  4  6 23 27 44.9940000  0  3G19G 2G 6
  20254771.057    -3361467.352 6  -2572491.41622
  19128122.557   -26713856.026 7 -20671006.96024
  20155013.1504  -18743621.92347 -14389455.39962
 91  4  6 23 27 59.9940000  0  3G19G 2G 6
  20257354.643    -3347904.830 6  -2561923.26222
  19124200.1274  -26734473.93047 -20687072.83464
  20146794.1824  -18786817.91547 -14423114.55062
 91  4  6 23 28 14.9940000  0  3G19G 2G 6
  20259945.400    -3334279.406 6  -2551306.10122
  19120286.244   -26755039.466 7 -20703097.89924
  20138577.525   -18830000.249 7 -14456763.06722
 91  4  6 23 28 29.9940000  0  3G19G 2G 6
  20262550.799    -3320577.238 6  -2540629.14122
  19116385.424   -26775538.703 7 -20719071.31024
  20130365.9404  -18873154.99947 -14490390.08862
 91  4  6 23 28 44.9940000  0  3G19G 2G 6
  20265173.205    -3306804.282 6  -2529897.02122
  19112495.6824  -26795977.60747 -20734997.69964
  20122156.471   -18916287.732 7 -14523999.94922
 91  4  6 23 28 59.9940000  0  3G19G 2G 6
  20267809.268    -3292962.406 6  -2519111.18922
  19108618.049   -26816358.194 8 -20750878.65824
  20113953.1044  -18959400.21647 -14557594.03162
 91  4  6 23 29 14.9940000  0  3G19G 2G 6
  20270455.057    -3279050.121 6  -2508270.50122
  19104750.963   -26836678.955 8 -20766712.99024
  20105753.7994  -19002490.94647 -14591171.16462
 91  4  6 23 29 29.9940000  0  3G19G 2G 6
  20273113.502    -3265070.934 6  -2497377.68122
  19100893.729   -26856943.654 7 -20782503.64424
  20097556.8074  -19045563.25547 -14624733.94662
 91  4  6 23 29 44.9940000  0  3G19G 2G 6
  20275789.065    -3251021.184 6  -2486429.87222
  19097050.291   -26877148.865 8 -20798247.94024
  20089363.8694  -19088613.45647 -14658279.49362
 91  4  6 23 29 59.9940000  0  3G19G 2G 6
  20278476.104    -3236898.346 6  -2475425.10922
  19093215.908   -26897291.908 7 -20813943.79324
  20081175.4864  -19131638.69947 -14691805.59462
 91  4  6 23 30 14.9940000  0  3G19G 2G 6
  20281176.682    -3222702.388 6  -2464363.37322
  19089395.525   -26917372.916 7 -20829591.31624
  20072994.3614  -19174638.63947 -14725311.98162
 91  4  6 23 30 29.9940000  0  3G19G 2G 6
  20283891.690    -3208437.876 6  -2453248.21422
  19085584.447   -26937396.538 7 -20845194.10924
  20064815.1354  -19217617.97147 -14758802.31562
 91  4  6 23 30 44.9940000  0  3G19G 2G 6
  20286619.674    -3194103.472 6  -2442078.60022
  19081785.533   -26957361.466 7 -20860751.17424
  20056641.729   -19260574.967 7 -14792275.24622
 91  4  6 23 30 59.9940000  0  3G19G 2G 6
  20289360.408    -3179701.488 6  -2430856.32322
  19077997.268   -26977270.135 7 -20876264.40324
  20048471.0964  -19303512.07947 -14825732.67962
 91  4  6 23 31 14.9940000  0  3G19G 2G 6
  20292114.666    -3165233.890 6  -2419582.91622
  19074218.393   -26997124.225 7 -20891735.10124
  20040303.119   -19346430.635 7 -14859175.65122
 91  4  6 23 31 29.9940000  0  3G19G 2G 6
  20294879.643    -3150697.347 6  -2408255.79022
  19070450.955   -27016920.837 7 -20907161.01524
  20032141.525   -19389327.395 7 -14892601.64422
 91  4  6 23 31 44.9940000  0  3G19G 2G 6
  20297661.299    -3136088.801 6  -2396872.55922
  19066696.299   -27036657.057 7 -20922539.86624
  20023981.963   -19432199.032 7 -14926008.05722
 91  4  6 23 31 59.9940000  0  3G19G 2G 6
  20300450.580    -3121415.057 6  -2385438.52522
  19062950.510   -27056339.728 7 -20937876.99324
  20015826.1584  -19475052.37647 -14959400.21662
 91  4  6 23 32 14.9940000  0  3G19G 2G 6
  20303260.260    -3106664.272 6  -2373944.44722
  19059217.658   -27075957.167 7 -20953163.28824
  20007678.7834  -19517875.31247 -14992768.67462
 91  4  6 23 32 29.9940000  0  3G19G 2G 6
  20306077.291    -3091841.928 6  -2362394.61822
  19055496.260   -27095515.018 7 -20968403.15024
  19999534.5414  -19560673.37047 -15026117.75362
 91  4  6 23 32 44.9940000  0  3G19G 2G 6
  20308913.400    -3076947.910 6  -2350788.93122
  19051786.190   -27115012.911 7 -20983596.29524
  19991395.2444  -19603445.92947 -15059446.96262
 91  4  6 23 32 59.9940000  0  3G19G 2G 6
  20311760.315    -3061985.906 6  -2339130.27422
  19048085.885   -27134455.096 7 -20998746.02724
  19983258.6274  -19646196.80547 -15092759.27662
 91  4  6 23 33 14.9940000  0  4G15G19G 2G 6
  22406385.6114         -0.27655
  20314621.705    -3046957.663 6  -2327420.00322
  19044396.338   -27153843.133 7 -21013853.57224
  19975128.8934  -19688927.30747 -15126055.71262
 91  4  6 23 33 29.9940000  0  4G15G19G 2G 6
  22398649.0574     -40661.16845
  20317491.447    -3031862.394 6  -2315657.50022
  19040717.275   -27173176.385 7 -21028918.42724
  19967000.268   -19731636.599 7 -15159335.62322
 91  4  6 23 33 44.9940000  0  4G15G19G 2G 6
  22390926.400      -81248.490 5
  20320378.088    -3016701.735 6  -2303844.04122
  19037048.252   -27192456.295 7 -21043941.71124
  19958876.393   -19774325.999 7 -15192600.03622
 91  4  6 23 33 59.9940000  0  4G15G19G 2G 6
  22383216.338     -121764.027 5        -0.27231
  20323273.736    -3001477.891 6  -2291981.35722
  19033388.986   -27211685.157 7 -21058925.22024
  19950757.815   -19816997.532 7 -15225850.52822
 91  4  6 23 34 14.9940000  0  4G15G19G 2G 6
  22375518.432     -162193.223 5    -31503.42921
  20326187.721    -2986176.545 6  -2280058.28222
  19029742.346   -27230849.081 7 -21073858.12824
  19942642.2294  -19859636.92747 -15259075.97562
 91  4  6 23 34 29.9940000  0  4G15G19G 2G 6
  22367845.104     -202539.861 5    -62942.23821
  20329113.166    -2970802.009 6  -2268078.17322
  19026106.924   -27249952.400 7 -21088743.81024
  19934534.1194  -19902248.27647 -15292279.56262
 91  4  6 23 34 44.9930000  0  4G15G19G 2G 6
  22360179.4274    -242805.75045    -94318.10561
  20332052.552    -2955359.915 6  -2256045.42122
  19022482.927   -27268998.449 7 -21103584.86224
  19926430.083   -19944833.057 7 -15325462.45322
 91  4  6 23 34 59.9930000  0  4G15G19G 2G 6
  22352533.622     -282991.690 5   -125631.72121
  20335001.997    -2939844.272 6  -2243955.35922
  19018869.544   -27287985.763 7 -21118380.15624
  19918330.4894  -19987392.74747 -15358625.78762
 91  4  6 23 35 14.9930000  0  4G15G19G 2G 6
  22344902.2864    -323096.15045   -156881.82961
  20337969.9894   -2924257.54846  -2231809.90162
  19015267.200   -27306914.636 7 -21133129.90424
  19910237.6144  -20029925.76747 -15391768.34262
 91  4  6 23 35 29.9930000  0  4G15G19G 2G 6
  22337285.7944    -363120.00545   -188069.11561
  20340949.6304   -2908600.77146  -2219609.85562
  19011676.685   -27325786.255 7 -21147835.04324
  19902148.9974  -20072433.18047 -15424890.94362
 91  4  6 23 35 44.9930000  0  4G15G19G 2G 6
  22329687.1074    -403064.27645   -219194.41661
  20343942.880    -2892875.411 6  -2207356.37722
  19008096.224   -27344602.097 7 -21162496.71724
  19894062.497   -20114916.078 7 -15457994.44522
 91  4  6 23 35 59.9930000  0  4G15G19G 2G 6
  22322097.849     -442925.842 5   -250255.26021
  20346946.724    -2877078.760 6  -2195047.35022
  19004526.192   -27363359.462 7 -21177112.82624
  19885985.552   -20157371.653 7 -15491076.65522
 91  4  6 23 36 14.9930000  0  4G15G19G 2G 6
  22314529.192     -482703.828 5   -281250.96221
  20349968.021    -2861210.275 6  -2182682.35522
  19000968.630   -27382058.058 7 -21191683.14224
  19877912.107   -20199799.092 7 -15524136.94622
 91  4  6 23 36 29.9930000  0  4G15G19G 2G 6
  22306976.966     -522395.913 5   -312179.75221
  20353002.942    -2845268.160 6  -2170259.98422
  18997422.786   -27400696.137 7 -21206206.29224
  19869843.677   -20242196.513 7 -15557173.84322
 91  4  6 23 36 44.9930000  0  4G15G19G 2G 6
  22299441.1144    -562003.36345   -343042.60761
  20356048.864    -2829253.891 6  -2157781.38322
  18993885.200   -27419275.187 7 -21220683.45624
  19861781.4664  -20284565.24447 -15590188.38262
 91  4  6 23 36 59.9930000  0  4G15G19G 2G 6
  22291919.278     -601528.164 5   -373841.03621
  20359109.052    -2813169.866 6  -2145248.43222
  18990361.716   -27437797.695 7 -21235116.55924
  19853722.786   -20326907.292 7 -15623182.13022
 91  4  6 23 37 14.9930000  0  4G15G19G 2G 6
  22284410.6224    -640972.19245   -404576.53461
  20362182.6614   -2797018.36046  -2132662.90462
  18986847.325   -27456265.973 7 -21249507.40224
  19845670.3414  -20369224.89747 -15656156.82962
 91  4  6 23 37 29.9930000  0  4G15G19G 2G 6
  22276918.3254    -680336.33045   -435249.78761
  20365269.747    -2780800.432 6  -2120025.61522
  18983342.849   -27474681.222 7 -21263856.93024
  19837621.083   -20411518.825 7 -15689113.07922
 91  4  6 23 37 44.9930000  0  4G15G19G 2G 6
  22269446.9664    -719620.57645   -465860.77361
  20368368.6144   -2764516.46746  -2107336.87261
  18979848.044   -27493043.629 7 -21278165.28124
  19829578.4424  -20453789.28647 -15722051.05062
 91  4  6 23 37 59.9930000  0  4G15G19G 2G 6
  22261985.755     -758822.435 5   -496407.56021
  20371476.7714   -2748164.41446  -2094595.07261
  18976364.153   -27511351.263 7 -21292430.94424
  19821539.263   -20496033.944 7 -15754968.90722
 91  4  6 23 38 14.9930000  0  4G15G19G 2G 6
  22254538.2864    -797942.29445   -526890.45261
  20374604.8494   -2731745.13746  -2081800.88462
  18972890.872   -27529605.323 8 -21306654.87124
  19813504.864   -20538253.703 7 -15787867.37522
 91  4  6 23 38 29.9930000  0  4G15G19G 2G 6
  22247114.7944    -836973.48945   -557304.23861
  20377740.294    -2715252.257 6  -2068949.34422
  18969428.521   -27547799.481 8 -21320832.11824
  19805478.263   -20580441.854 7 -15820741.20922
 91  4  6 23 38 44.9930000  0  4G15G19G 2G 6
  22239701.2004    -875910.40045   -587644.59461
  20380896.3414   -2698680.39246  -2056036.25661
  18965977.716   -27565928.263 8 -21334958.42124
  19797455.786   -20622592.662 7 -15853585.94422
 91  4  6 23 38 59.9930000  0  5G15G13G19G 2G 6
  22232310.732     -914758.699 5   -617915.90321
  22140590.5754         -0.31155
  20384063.5524   -2682035.56446  -2043066.32661
  18962540.177   -27583997.832 8 -21349038.58724
  19789440.982   -20664712.125 7 -15886406.26022
 91  4  6 23 39 14.9930000  0  5G15G13G19G 2G 6
  22224934.7394    -953518.47745   -648118.21061
  22126533.4894     -73883.38045
  20387245.1924   -2665318.06546  -2030039.76861
  18959112.263   -27602008.658 7 -21363072.97924
  19781430.521   -20706800.364 7 -15919202.23722
 91  4  6 23 39 29.9930000  0  5G15G13G19G 2G 6
  22217576.8254    -992190.95345   -678252.51661
  22112476.732     -147737.113 5
  20390440.4664   -2648529.42546  -2016957.76462
  18955696.638   -27619962.435 8 -21377062.91624
  19773428.0914  -20748858.79747 -15951974.98662
 91  4  6 23 39 44.9930000  0  5G15G13G19G 2G 6
  22210233.5834   -1030776.14845   -708318.80461
  22098431.466     -221561.534 4
  20393648.411    -2631670.125 6  -2003820.70621
  18952290.419   -27637859.536 8 -21391008.69424
  19765431.122   -20790887.582 7 -15984724.63722
 91  4  6 23 39 59.9930000  0  5G15G13G19G 2G 6
  22202906.5364   -1069273.48045   -738316.63361
  22084386.2474    -295355.88144
  20396869.435    -2614740.018 6  -1990628.46621
  18948895.607   -27655699.751 8 -21404910.14524
  19757438.763   -20832886.275 7 -16017450.84422
 91  4  6 23 40 14.9930000  0  5G15G13G19G 2G 6
  22195599.8024   -1107685.37645   -768247.88561
  22070351.5214    -369122.53045
  20400105.3254   -2597741.86346  -1977383.21461
  18945510.552   -27673485.900 8 -21418769.46224
  19749451.974   -20874857.467 7 -16050155.61722
 91  4  6 23 40 29.9930000  0  5G15G13G19G 2G 6
  22188304.341    -1146007.167 4   -798108.90921
  22056319.700     -442856.989 5
  20403354.0674   -2580671.46045  -1964081.65961
  18942136.966   -27691213.867 8 -21432583.44824
  19741470.700   -20916796.755 7 -16082835.53222
 91  4  6 23 40 44.9930000  0  5G15G13G19G 2G 6
  22181028.1384   -1184237.25044   -827898.48561
  22042293.1534    -516557.53245
  20406615.2324   -2563527.42246  -1950722.73362
  18938775.083   -27708882.487 8 -21446351.18324
  19733496.278   -20958702.613 7 -16115489.40322
 91  4  6 23 40 59.9930000  0  5G15G13G19G 2G 6
  22173770.708    -1222378.583 4   -857618.89921
  22028273.708     -590227.106 5        -0.38531
  20409891.2324   -2546313.16646  -1937309.08861
  18935423.989   -27726495.216 8 -21460075.37024
  19725527.607   -21000578.214 7 -16148119.69222
 91  4  6 23 41 14.9930000  0  5G15G13G19G 2G 6
  22166529.263    -1260437.389 5   -887275.00821
  22014259.888     -663871.852 4    -57385.60221
  20413179.6854   -2529035.25646  -1923845.84461
  18932081.833   -27744058.671 7 -21473761.16024
  19717563.958   -21042429.751 7 -16180731.23422
 91  4  6 23 41 29.9930000  0  5G15G13G19G 2G 6
  22159307.864    -1298408.318 5   -916862.63721
  22000248.9424    -737486.50245   -114747.38761
  20416480.888    -2511688.809 5  -1910329.18721
  18928748.935   -27761567.910 7 -21487404.70924
  19709604.614   -21084252.273 7 -16213320.16522
 91  4  6 23 41 44.9930000  0  5G15G13G19G 2G 6
  22152093.732    -1336285.966 5   -946377.57521
  21986249.286     -811065.234 5   -172081.18821
  20419795.1614   -2494268.48145  -1896754.96261
  18925428.786   -27779017.757 8 -21501001.97224
  19701653.403   -21126040.219 7 -16245882.15422
 91  4  6 23 41 59.9930000  0  5G15G13G19G 2G 6
  22144904.8024   -1374077.85045   -975825.69161
  21972254.0834    -884615.50545   -229392.82261
  20423121.1924   -2476782.32846  -1883129.44861
  18922118.099   -27796416.075 8 -21514559.08824
  19693704.950   -21167801.334 7 -16278423.23922
 91  4  6 23 42 14.9930000  0  5G15G13G19G 2G 6
  22137729.364    -1411780.846 5  -1005204.55121
  21958259.7084    -958134.40645   -286679.98161
  20426464.9424   -2459227.37446  -1869450.32961
  18918817.341   -27813760.210 8 -21528073.98424
  19685764.021   -21209532.542 7 -16310941.01922
 91  4  6 23 42 29.9930000  0  5G15G13G19G 2G 6
  22130572.2784   -1449390.70745  -1034510.83461
  21944278.278    -1031617.502 5   -343939.25521
  20429818.0994   -2441599.89746  -1855714.69861
  18915528.505   -27831046.498 8 -21541543.80324
  19677829.536   -21251229.879 7 -16343432.40522
 91  4  6 23 42 44.9930000  0  5G15G13G19G 2G 6
  22123433.9894   -1486909.23545  -1063745.95061
  21930303.7714   -1105066.94045   -401172.30861
  20433185.5054   -2423902.06246  -1841924.24761
  18912249.825   -27848277.160 8 -21554970.27924
  19669900.317   -21292895.206 7 -16375898.84822
 91  4  6 23 42 59.9930000  0  5G15G13G19G 2G 6
  22116310.966    -1524340.267 5  -1092912.87321
  21916329.4974   -1178486.42545   -458381.99861
  20436564.6464   -2406138.03246  -1828082.20961
  18908981.786   -27865456.248 8 -21568356.56024
  19661977.317   -21334532.575 7 -16408343.50522
 91  4  6 23 43 14.9930000  0  5G15G13G19G 2G 6
  22109204.2864   -1561674.68845  -1122004.52961
  21902365.286    -1251866.242 5   -515560.84121
  20439961.6304   -2388298.92845  -1814181.66761
  18905722.521   -27882575.019 8 -21581695.84524
  19654061.302   -21376132.689 7 -16440759.12922
 91  4  6 23 43 29.9930000  0  5G15G13G19G 2G 6
  22102115.3494   -1598928.06245  -1151033.04161
  21888406.4824   -1325222.11445   -572720.96661
  20443365.6774   -2370400.61246  -1800234.98861
  18902473.450   -27899649.470 8 -21595000.59824
  19646148.278   -21417711.372 7 -16473158.05822
 91  4  6 23 43 44.9930000  0  5G15G13G19G 2G 6
  22095046.942    -1636079.061 5  -1179981.77221
  21874455.9504   -1398533.01145   -629846.11461
  20446787.7714   -2352422.51645  -1786226.14161
  18899237.146   -27916658.868 8 -21608254.65724
  19638245.349   -21459247.731 7 -16505524.00322
 91  4  6 23 43 59.9930000  0  5G15G13G19G 2G 6
  22087996.8884   -1673136.41545  -1208857.53561
  21860509.880    -1471807.412 5   -686942.77221
  20450222.083    -2334373.408 5  -1772161.95721
  18896011.380   -27933612.291 8 -21621465.09824
  19630346.763   -21500750.350 7 -16537863.66123
 91  4  6 23 44 14.9930000  0  5G15G13G19G 2G 6
  22080963.372    -1710097.335 5  -1237658.14821
  21846574.107    -1545042.255 5   -744008.61421
  20453671.7164   -2316250.63345  -1758040.37862
  18892795.161   -27950507.157 8 -21634629.91224
  19622456.685   -21542216.447 7 -16570174.86122
 91  4  6 23 44 29.9930000  0  5G15G13G19G 2G 6
  22073946.575    -1746969.182 5  -1266389.35721
  21832641.0604   -1618245.07645   -801049.50761
  20457129.5834   -2298062.19445  -1743867.63162
  18889590.997   -27967351.384 8 -21647755.26424
  19614571.817   -21583653.816 7 -16602463.67523
 91  4  6 23 44 44.9930000  0  5G15G13G19G 2G 6
  22066947.5444   -1783746.51045  -1295046.91961
  21818722.2784   -1691410.25145   -858061.06861
  20460608.5134   -2279802.78845  -1729639.58661
  18886395.474   -27984139.898 8 -21660837.21024
  19606692.9664  -21625056.92947 -16634725.80163
 91  4  6 23 44 59.9930000  0  5G15G13G19G 2G 6
  22059966.294    -1820426.408 5  -1323628.55221
  21804808.442    -1764534.851 5   -915041.02421
  20464095.114    -2261470.123 5  -1715354.46622
  18883212.114   -28000870.263 8 -21673873.84124
  19598820.325   -21666423.063 7 -16666959.11023
 91  4  6 23 45 14.9930000  0  5G15G13G19G 2G 6
  22053006.2474   -1857014.91445  -1352138.98061
  21790898.317    -1837624.735 5   -971993.93521
  20467597.6144   -2243070.53845  -1701017.19861
  18880038.427   -28017548.845 8 -21686870.12224
  19590955.263   -21707758.442 7 -16699168.45123
 91  4  6 23 45 29.9930000  0  5G15G13G19G 2G 6
  22046060.7714   -1893504.67645  -1380572.45661
  21776995.8334   -1910672.64845  -1028914.08761
  20471111.2084   -2224597.06145  -1686622.34361
  18876875.505   -28034168.622 8 -21699820.57724
  19583095.9824  -21749055.68647 -16731348.08063
 91  4  6 23 45 44.9930000  0  5G15G13G19G 2G 6
  22039133.0284   -1929904.36245  -1408935.74861
  21763100.653    -1983687.159 5  -1085808.25421
  20474639.9274   -2206058.54445  -1672176.81062
  18873722.302   -28050738.669 8 -21712732.28424
  19575243.5284  -21790323.55247 -16763504.82363
 91  4  6 23 45 59.9930000  0  5G15G13G19G 2G 6
  22032225.005    -1966211.559 5  -1437226.97621
  21749216.8884   -2056665.78345  -1142674.44561
  20478178.497    -2187452.961 5  -1657679.00722
  18870579.099   -28067257.084 8 -21725603.75824
  19567397.513   -21831559.778 7 -16795636.90423
 91  4  6 23 46 14.9930000  0  5G15G13G19G 2G 6
  22025335.9824   -2002426.54945  -1465446.35161
  21735335.6854   -2129608.73745  -1199512.84261
  20481735.6224   -2168780.81945  -1643129.35762
  18867444.833   -28083724.467 8 -21738435.46824
  19559554.442   -21872764.807 7 -16827744.67423
 91  4  6 23 46 29.9930000  0  5G15G13G19G 2G 6
  22018462.1614   -2038541.64545  -1493587.88261
  21721462.7784   -2202508.21045  -1256317.38861
  20485300.7784   -2150034.94645  -1628522.25061
  18864323.177   -28100133.646 8 -21751221.82424
  19551721.802   -21913931.060 7 -16859822.22523
 91  4  6 23 46 44.9930000  0  5G15G13G19G 2G 6
  22011605.2244   -2074557.14545  -1521651.84061
  21707595.2944   -2275364.81245  -1313088.50361
  20488881.5994   -2131216.18145  -1613858.33962
  18861210.653   -28116485.318 8 -21763963.36924
  19543895.732   -21955059.068 7 -16891869.97923
 91  4  6 23 46 59.9930000  0  5G15G13G19G 2G 6
  22004773.6774   -2110470.67745  -1549636.30961
  21693743.864    -2348175.933 5  -1369824.17421
  20492480.0284   -2112322.42445  -1599136.00561
  18858111.114   -28132777.431 8 -21776658.50724
  19536076.2784  -21996146.46547 -16923886.09163
 91  4  6 23 47 14.9930000  0  5G15G13G19G 2G 6
  21997958.3104   -2146291.64545  -1577548.66761
  21679895.1854   -2420950.81245  -1426531.61961
  20496086.1614   -2093363.17845  -1584362.62661
  18855019.552   -28149019.555 8 -21789314.69424
  19528263.724   -22037202.545 7 -16955877.79723
 91  4  6 23 47 29.9930000  0  5G15G13G19G 2G 6
  21991157.3804   -2182019.62345  -1605388.54761
  21666053.411    -2493689.262 5  -1483210.66421
  20499704.6144   -2074338.73245  -1569538.45161
  18851938.685   -28165211.938 8 -21801932.12024
  19520456.857   -22078227.427 7 -16987845.19523
 91  4  6 23 47 44.9930000  0  5G15G13G19G 2G 6
  21984375.9354   -2217653.58545  -1633155.18961
  21652217.474    -2566390.000 5  -1539860.34121
  20503339.9504   -2055248.12945  -1554662.72461
  18848866.833   -28181353.934 8 -21814510.28524
  19512656.349   -22119219.882 7 -17019787.32223
 91  4  6 23 47 59.9930000  0  5G15G13G19G 2G 6
  21977613.9114   -2253188.71045  -1660844.79961
  21638390.153    -2639048.313 5  -1596476.95421
  20506985.560    -2036087.059 6  -1539732.07721
  18845805.161   -28197441.138 7 -21827045.75024
  19504862.7084  -22160175.37547 -17051700.65463
 91  4  6 23 48 14.9930000  0  5G15G13G19G 2G 6
  21970870.653    -2288619.367 5  -1688453.01821
  21624574.9744   -2711658.06145  -1653055.74761
  20510646.8254   -2016849.92645  -1524742.16061
  18842756.294   -28213468.086 8 -21839534.26324
  19497076.4894  -22201088.19247 -17083580.72963
 91  4  6 23 48 29.9930000  0  5G15G13G19G 2G 6
  21964147.107    -2323955.800 5  -1715987.81221
  21610764.927    -2784229.473 5  -1709604.64821
  20514318.2784   -1997547.53446  -1509701.39861
  18839715.060   -28229445.625 7 -21851984.27524
  19489297.4274  -22241968.65547 -17115435.59563
 91  4  6 23 48 44.9930000  0  5G15G13G19G 2G 6
  21957441.9194   -2359186.60645  -1743440.28361
  21596962.169    -2856751.183 5  -1766114.83821
  20518008.6304   -1978168.72445  -1494601.08962
  18836686.653   -28245362.524 8 -21864387.04124
  19481527.028   -22282805.434 7 -17147256.42023
 91  4  6 23 48 59.9930000  0  5G15G13G19G 2G 6
  21950758.5914   -2394317.39845  -1770814.84761
  21583170.841    -2929228.835 5  -1822590.66621
  20521710.6224   -1958719.58045  -1479445.97761
  18833668.083   -28261225.058 8 -21876747.43924
  19473763.208   -22323604.487 7 -17179047.84523
 91  4  6 23 49 14.9930000  0  5G15G13G19G 2G 6
  21944092.1304   -2429347.78245  -1798111.16661
  21569386.099    -3001661.827 5  -1879031.71421
  20525424.630    -1939199.834 5  -1464235.86221
  18830659.9274  -28277032.93048 -21889065.25064
  19466006.5134  -22364365.28647 -17210809.46463
 91  4  6 23 49 29.9930000  0  5G15G13G19G 2G 6
  21937444.075    -2464285.723 5  -1825335.44621
  21555608.192    -3074058.004 5  -1935444.09121
  20529149.7084   -1919618.07445  -1448977.42061
  18827660.482   -28292794.693 8 -21901347.12824
  19458256.161   -22405095.898 7 -17242547.56323
 91  4  6 23 49 44.9930000  0  5G15G13G19G 2G 6
  21930810.997    -2499123.368 5  -1852481.57021
  21541841.489    -3146409.647 5  -1991821.74921
  20532887.9114   -1899966.66145  -1433664.69761
  18824671.396   -28308502.924 8 -21913587.29024
  19450511.942   -22445788.612 7 -17274256.13123
 91  4  6 23 49 59.9930000  0  5G15G13G19G 2G 6
  21924206.1464   -2533854.12245  -1879544.40061
  21528083.3104   -3218710.04545  -2048159.47861
  20536643.6304   -1880239.33045  -1418292.81961
  18821693.1224  -28324151.23848 -21925780.76964
  19442776.903   -22486437.002 7 -17305930.15523
 91  4  6 23 50 14.9930000  0  5G15G13G19G 2G 6
  21917614.474    -2568482.574 5  -1906527.52421
  21514331.450    -3290963.672 5  -2104460.77921
  20540411.2324   -1860441.05545  -1402865.65961
  18818726.341   -28339744.655 8 -21937931.47024
  19435049.302   -22527045.768 7 -17337573.30523
 91  4  6 23 50 29.9930000  0  5G15G13G19G 2G 6
  21911046.989    -2603009.781 5  -1933431.79821
  21500591.271    -3363171.768 5  -2160726.60821
  20544187.7944   -1840573.41446  -1387384.44561
  18815770.0364  -28355284.61248 -21950040.51964
  19427328.833   -22567616.004 7 -17369186.43422
 91  4  6 23 50 44.9930000  0  5G15G13G19G 2G 6
  21904494.716    -2637434.629 5  -1960256.23321
  21486862.1304   -3435332.57545  -2216955.55661
  20547986.536    -1820635.293 5  -1371848.30021
  18812822.6534  -28370770.14148 -21962107.15364
  19419617.099   -22608146.389 7 -17400768.50823
 91  4  6 23 50 59.9930000  0  5G15G13G19G 2G 6
  21897962.396    -2671761.599 5  -1987004.45421
  21473140.6614   -3507451.11045  -2273151.58261
  20551789.3254   -1800631.78746  -1356261.21261
  18809884.802   -28386206.477 8 -21974135.45024
  19411910.388   -22648641.924 7 -17432323.42123
 91  4  6 23 51 14.9930000  0  5G15G13G19G 2G 6
  21891447.6144   -2705987.42145  -2013673.82861
  21459423.7084   -3579523.85745  -2329311.92561
  20555611.1694   -1780559.91645  -1340620.85361
  18806956.3644  -28401590.58048 -21986123.05564
  19404211.310   -22689099.378 7 -17463848.66423
 91  4  6 23 51 29.9930000  0  5G15G13G19G 2G 6
  21884955.9894   -2740106.60445  -2040260.14661
  21445715.911    -3651545.223 5  -2385432.24921
  20559444.0524   -1760414.57245  -1324923.24261
  18804040.544   -28416917.268 8 -21998065.91724
  19396520.630   -22729513.195 7 -17495339.90423
 91  4  6 23 51 44.9930000  0  5G15G13G19G 2G 6
  21878482.958    -2774122.223 5  -2066765.73221
  21432018.442    -3723517.907 5  -2441514.63321
  20563293.1224   -1740199.12345  -1309171.00861
  18801134.544   -28432190.142 8 -22009966.84524
  19388838.107   -22769886.547 7 -17526799.61523
 91  4  6 23 51 59.9930000  0  5G15G13G19G 2G 6
  21872030.0284   -2808031.54345  -2093188.50061
  21418333.0994   -3795439.29445  -2497557.05261
  20567152.5054   -1719911.22545  -1293362.32061
  18798239.3024  -28447406.67248 -22021823.86664
  19381163.622   -22810216.760 7 -17558225.70922
 91  4  6 23 52 14.9930000  0  5G15G13G19G 2G 6
  21865595.5604   -2841838.70145  -2119531.65761
  21404653.6304   -3867313.29045  -2553562.54061
  20571027.177    -1699555.326 5  -1277500.66721
  18795352.7474  -28462571.31148 -22033640.45864
  19373496.544   -22850508.039 7 -17589621.46423
 91  4  6 23 52 29.9930000  0  5G15G13G19G 2G 6
  21859185.0834   -2875545.33945  -2145796.49161
  21390987.2084   -3939141.64745  -2609532.47061
  20574910.747    -1679133.354 5  -1261587.52021
  18792477.177   -28477686.298 8 -22045418.35924
  19365836.161   -22890762.079 7 -17620988.20323
 91  4  6 23 52 44.9930000  0  5G15G13G19G 2G 6
  21852786.5834   -2909144.56945  -2171977.63161
  21377330.4664   -4010917.24545  -2665461.26661
  20578812.6854   -1658638.59445  -1245617.64161
  18789610.7244  -28492744.85248 -22057152.28864
  19358183.357   -22930971.948 7 -17652320.52422
 91  4  6 23 52 59.9930000  0  5G15G13G19G 2G 6
  21846412.1924   -2942640.49645  -2198078.27961
  21363678.1464   -4082644.09145  -2721352.13461
  20582727.2944   -1638075.61945  -1229594.61062
  18786755.3644  -28507751.54748 -22068845.80964
  19350541.044   -22971141.867 7 -17683621.71522
 91  4  6 23 53 14.9930000  0  5G15G13G19G 2G 6
  21840061.036    -2976028.795 5  -2224095.05321
  21350041.7324   -4154317.85145  -2777201.57161
  20586653.708    -1617440.314 5  -1213515.23121
  18783909.6304  -28522702.53248 -22080495.91464
  19342904.310   -23011267.711 7 -17714888.56223
 91  4  6 23 53 29.9930000  0  5G15G13G19G 2G 6
  21833728.349    -3009308.830 5  -2250027.45721
  21336412.294    -4225938.110 5  -2833009.34121
  20590590.7474   -1596732.35545  -1197379.22661
  18781075.2944  -28537597.48548 -22092102.36164
  19335277.232   -23051349.030 7 -17746120.71123
 91  4  6 23 53 44.9930000  0  5G15G13G19G 2G 6
  21827416.0914   -3042482.11345  -2275876.69261
  21322794.052    -4297506.089 5  -2888776.40321
  20594547.224    -1575953.896 5  -1181188.29221
  18778251.4894  -28552438.30248 -22103666.62264
  19327658.122   -23091387.313 7 -17777319.33122
 91  4  6 23 53 59.9930000  0  5G15G13G19G 2G 6
  21821123.4824   -3075548.47045  -2301642.59961
  21309185.9584   -4369021.51645  -2944502.49361
  20598516.208    -1555105.074 5  -1164942.54421
  18775437.6534  -28567225.21948 -22115188.88364
  19320048.224   -23131382.444 7 -17808484.32523
 91  4  6 23 54 14.9930000  0  5G15G13G19G 2G 6
  21814849.997    -3108515.436 5  -2327331.07621
  21295583.841    -4440491.652 5  -3000193.29021
  20602492.3024   -1534193.55945  -1148647.92861
  18772632.091   -28581966.067 8 -22126675.24123
  19312443.107   -23171341.869 7 -17839621.49623
 91  4  6 23 54 29.9930000  0  5G15G13G19G 2G 6
  21808592.716    -3141375.987 5  -2352936.59121
  21281991.6774   -4511909.71145  -3055843.49761
  20606483.6924   -1513212.78545  -1132299.33561
  18769837.591   -28596654.291 8 -22138120.59724
  19304848.685   -23211258.721 7 -17870725.49623
 91  4  6 23 54 44.9930000  0  5G15G13G19G 2G 6
  21802364.1614   -3174135.03645  -2378463.06961
  21268414.044    -4583280.524 5  -3111456.89721
  20610492.294    -1492168.080 5  -1115900.93121
  18767051.5674  -28611295.09948 -22149529.00764
  19297258.372   -23251138.013 7 -17901800.22422
 91  4  6 23 54 59.9930000  0  5G15G13G19G 2G 6
  21796150.1224   -3206782.59245  -2403902.63061
  21254840.646    -4654593.749 5  -3167025.43621
  20614508.286    -1471049.804 5  -1099445.23321
  18764275.403   -28625878.735 7 -22160892.86324
  19289679.107   -23290969.763 7 -17932837.91123
 91  4  6 23 55 14.9930000  0  5G15G13G19G 2G 6
  21789955.825    -3239322.796 5  -2429258.52721
  21241282.021    -4725853.657 5  -3222552.40721
  20618541.458    -1449862.366 5  -1082935.64621
  18761510.9974  -28640409.71648 -22172215.69463
  19282107.153   -23330758.144 7 -17963841.80023
 91  4  6 23 55 29.9930000  0  5G15G13G19G 2G 6
  21783786.0994   -3271755.00745  -2454530.31661
  21227731.755    -4797059.272 5  -3278037.12421
  20622586.2004   -1428605.37745  -1066371.85461
  18758756.450   -28654887.701 8 -22183497.23024
  19274544.833   -23370502.635 7 -17994811.48923
 91  4  6 23 55 44.9930000  0  5G15G13G19G 2G 6
  21777636.8884   -3304078.03445  -2479717.04161
  21214192.3104   -4868209.35845  -3333478.52661
  20626645.552    -1407277.897 5  -1049753.12121
  18756010.8254  -28669311.84148 -22194736.80763
  19266989.575   -23410201.959 7 -18025745.98323
 91  4  6 23 55 59.9930000  0  5G15G13G19G 2G 6
  21771502.6384   -3336289.13645  -2504816.50661
  21200660.935    -4939301.211 5  -3388874.56721
  20630716.4114   -1385877.65245  -1033077.66261
  18753277.4744  -28683679.90548 -22205932.68964
  19259444.692   -23449853.693 7 -18056643.39223
 91  4  6 23 56 14.9930000  0  5G15G13G19G 2G 6
  21765394.388    -3368397.676 5  -2529836.08321
  21187140.8024   -5010344.13845  -3444232.45361
  20634803.0444   -1364414.43045  -1016353.13161
  18750551.6144  -28698001.55847 -22217092.40964
  19251906.114   -23489467.110 7 -18087510.95123
 91  4  6 23 56 29.9930000  0  5G15G13G19G 2G 6
  21759304.060    -3400398.748 5  -2554771.91021
  21173632.2784   -5081333.06845  -3499548.30961
  20638898.8104   -1342883.61745   -999575.93561
  18747836.1304  -28712272.32748 -22228212.48063
  19244375.349   -23529037.236 7 -18118344.77023
 91  4  6 23 56 44.9930000  0  5G15G13G19G 2G 6
  21753237.185    -3432286.832 5  -2579619.69821
  21160134.6694   -5152262.35745  -3554817.69061
  20643011.9274   -1321279.93645   -982741.97561
  18745130.8574  -28726486.90647 -22239288.76664
  19236855.3724  -23568558.63847 -18149140.63163
 91  4  6 23 56 59.9930000  0  5G15G13G19G 2G 6
  21747189.4034   -3464062.32845  -2604379.72861
  21146647.599    -5223132.370 5  -3610040.85921
  20647134.982    -1299604.227 5   -965851.89921
  18742437.8254  -28740646.22548 -22250321.99464
  19229342.6854  -23608031.97947 -18179899.04063
 91  4  6 23 57 14.9930000  0  5G15G13G19G 2G 6
  21741162.8254   -3495738.39145  -2629062.32761
  21133174.357    -5293956.208 5  -3665228.04821
  20651273.349    -1277869.944 5   -948916.16721
  18739750.2554  -28754763.81147 -22261322.69564
  19221838.107   -23647470.364 7 -18210630.21023
 91  4  6 23 57 29.9930000  0  5G15G13G19G 2G 6
  21735156.1534   -3527303.29145  -2653658.27661
  21119706.739    -5364721.783 5  -3720369.86121
  20655418.052    -1256065.499 5   -931925.77621
  18737074.3024  -28768827.84647 -22272281.67464
  19214342.427   -23686861.977 7 -18241324.92823
 91  4  6 23 57 44.9930000  0  5G15G13G19G 2G 6
  21729169.482    -3558760.354 5  -2678170.19621
  21106248.8254   -5435432.67945  -3775469.04261
  20659581.9824   -1234194.73445   -914883.70661
  18734407.2084  -28782842.40047 -22283202.09563
  19206855.528   -23726210.328 7 -18271985.94023
 91  4  6 23 57 59.9930000  0  5G15G13G19G 2G 6
  21723204.817    -3590107.193 5  -2702596.25721
  21092803.7164   -5506086.43545  -3830523.74761
  20663752.7474   -1212255.68245   -897788.43061
  18731750.3574  -28796805.25547 -22294082.23263
  19199375.669   -23765513.087 7 -18302611.42023
 91  4  6 23 58 14.9930000  0  5G15G13G19G 2G 6
  21717260.817    -3621348.358 5  -2726939.96721
  21079369.732    -5576687.202 5  -3885537.11021
  20667945.2634   -1190253.05545   -880643.61861
  18729101.794   -28810721.126 8 -22304925.75524
  19191904.3494  -23804774.67247 -18333204.82963
 91  4  6 23 58 29.9930000  0  5G15G13G19G 2G 6
  21711334.3104   -3652474.86545  -2751194.31161
  21065946.5604   -5647226.25445  -3940502.43361
  20672143.5054   -1168178.41245   -863442.68661
  18726464.255   -28824581.970 8 -22315726.40124
  19184442.607   -23843986.446 7 -18363759.41223
 91  4  6 23 58 44.9930000  0  5G15G13G19G 2G 6
  21705434.7324   -3683489.06845  -2775361.15961
  21052533.5914   -5717705.69645  -3995421.25861
  20676360.2944   -1146034.21745   -846187.54561
  18723837.208   -28838390.087 7 -22326485.96024
  19176989.7004  -23883150.69047 -18394276.96863
 91  4  6 23 58 59.9930000  0  5G15G13G19G 2G 6
  21699554.2864   -3714388.46345  -2799438.55361
  21039134.8724   -5788122.68145  -4050291.43061
  20680584.411    -1123818.238 5   -828876.46121
  18721219.489   -28852143.207 7 -22337202.66324
  19169546.9974  -23922264.66047 -18424755.35063
 91  4  6 23 59 14.9930000  0  5G15G13G19G 2G 6
  21693696.3024   -3745172.38845  -2823425.94861
  21025745.4894   -5858476.77945  -4105112.60661
  20684829.1144   -1101530.51145   -811509.47561
  18718612.474   -28865841.415 7 -22347876.57324
  19162112.942   -23961328.064 7 -18455194.32623
 91  4  6 23 59 29.9930000  0  5G15G13G19G 2G 6
  21687858.8884   -3775850.36245  -2847330.78361
  21012369.169    -5928777.351 5  -4159892.07721
  20689083.0054   -1079180.63045   -794094.04961
  18716015.4354  -28879494.25547 -22358515.14664
  19154687.8024  -24000350.30147 -18485601.22563
 91  4  6 23 59 44.9930000  0  5G15G13G19G 2G 6
  21682040.903    -3806417.022 5  -2871148.92021
  20999001.0214   -5999018.88345  -4214625.56061
  20693346.505    -1056763.651 5   -776626.33321
  18713426.4274  -28893096.71948 -22369114.46164
  19147270.0674  -24039326.18747 -18515972.00763
 91  4  6 23 59 59.9930000  0  2G13G19
  20985648.536    -6069198.756 5
  20697623.3574   -1034277.45345
 91  4  7  0  0 14.9930000  0  5G15G13G19G 2G 6
  21670472.9114   -3867208.60545  -2918518.84761
  20972306.0214   -6139315.95845
  20701915.7554   -1011721.66645
  18708278.7554  -28920144.18947 -22390190.39764
  19132464.5604  -24117130.71847 -18576598.84063
 91  4  7  0  0 29.9930000  0  5G15G13G19G 2G 6
  21664721.388    -3897434.815 5  -2942071.67921
  20958972.794    -6209372.568 5
  20706222.107     -989098.462 5
  18705720.6464  -28933591.00447 -22400668.43264
  19125075.5524  -24155960.65247 -18606855.89463
 91  4  7  0  0 44.9930000  0  5G15G13G19G 2G 6
  21658990.3804   -3927547.68145  -2965536.19361
  20945652.0754   -6279367.97745  -4403853.10861
  20710539.427     -966407.483 5   -715543.25521
  18703172.3414  -28946986.77448 -22411106.69064
  19117695.9114  -24194742.34047 -18637075.35563
 91  4  7  0  0 59.9930000  0  5G15G13G19G 2G 6
  21653279.7084   -3957555.95145  -2988919.20761
  20932342.8494   -6349310.50245  -4458353.57461
  20714868.2554    -943657.54245   -697816.09061
  18700629.8804  -28960340.57247 -22421512.23464
  19110323.2714  -24233484.23647 -18667263.80963
 91  4  7  0  1 14.9930000  0  5G15G13G19G 2G 6
  21647593.567    -3987452.648 5  -3012215.27621
  20919045.9664   -6419192.94645  -4512807.24061
  20719210.4354    -920842.15745   -680037.95861
  18698097.700   -28973645.687 7 -22431879.84524
  19102959.1694  -24272179.51647 -18697415.93563
 91  4  7  0  1 29.9930000  0  5G15G13G19G 2G 6
  21641924.8574   -4017230.57045  -3035418.78761
  20905759.1694   -6489008.28545  -4567208.61061
  20723565.7394    -897954.68245   -662203.65061
  18695576.989   -28986895.401 7 -22442204.28424
  19095606.591   -24310821.171 7 -18727526.27623
 91  4  7  0  1 44.9930000  0  5G15G13G19G 2G 6
  21636279.786    -4046895.494 5  -3058534.24321
  20892485.872    -6558762.355 5  -4621562.25121
  20727933.200     -875001.293 5   -644317.98021
  18693065.5364  -29000096.05547 -22452490.49664
  19088262.4974  -24349415.08947 -18757599.41663
 91  4  7  0  1 59.9930000  0  5G15G13G19G 2G 6
  21630658.778    -4076439.742 5  -3081555.67421
  20879226.0444   -6628447.01745  -4675861.79161
  20732314.567     -851974.290 5   -626374.92921
  18690563.6854  -29013239.89847 -22462732.44064
  19080929.278   -24387953.392 7 -18787629.22323
 91  4  7  0  2 14.9930000  0  5G15G13G19G 2G 6
  21625057.1924   -4105872.59845  -3104490.31061
  20865973.802    -6698071.213 5  -4730114.24121
  20736709.271     -828883.432 5   -608382.13721
  18688071.232   -29026336.629 7 -22472937.67224
  19073604.0054  -24426445.34447 -18817622.91063
 91  4  7  0  2 29.9930000  0  5G15G13G19G 2G 6
  21619479.169    -4135186.733 5  -3127332.42521
  20852736.708    -6767627.536 5  -4784313.79021
  20741117.2784    -805721.39545   -590333.86261
  18685589.2324  -29039379.07147 -22483100.60464
  19066289.4894  -24464883.47247 -18847574.66463
 91  4  7  0  2 44.9930000  0  5G15G13G19G 2G 6
  21613923.317    -4164390.581 5  -3150088.60621
  20839512.7944   -6837124.55645  -4838467.12161
  20745538.482     -782497.263 5   -572237.21421
  18683116.4354  -29052376.11547 -22493228.15564
  19058983.1774  -24503276.48147 -18877491.25963
 91  4  7  0  2 59.9920000  0  5G15G13G19G 2G 6
  21608386.102    -4193477.177 5  -3172753.41321
  20826300.3674   -6906552.33745  -4892566.50861
  20749967.625     -759207.802 5   -554089.66921
  18680652.297   -29065322.172 7 -22503315.97924
  19051687.1174  -24541616.71747 -18907366.73363
 91  4  7  0  3 14.9920000  0  5G15G13G19G 2G 6
  21602874.547    -4222449.852 5  -3195329.46421
  20813101.6884   -6975919.33945  -4946618.54761
  20754413.7894    -735849.29645   -535888.31061
  18678199.024   -29078218.523 7 -22513365.06924
  19044400.3364  -24579908.50947 -18937204.46363
 91  4  7  0  3 29.9920000  0  5G15G13G19G 2G 6
  21597382.6884   -4251299.05445  -3217809.29161
  20799916.4774   -7045213.57445  -5000613.85661
  20758873.063     -712416.458 5   -517629.02521
  18675755.211   -29091057.378 7 -22523369.35924
  19037124.4304  -24618142.07847 -18966996.82563
 91  4  7  0  3 44.9920000  0  5G15G13G19G 2G 6
  21591913.914    -4280032.221 5  -3240198.71721
  20786741.320    -7114442.297 5  -5054558.14521
  20763344.242     -688917.022 5   -499317.87921
  18673322.399   -29103846.245 7 -22533334.69624
  19029859.1254  -24656324.67847 -18996749.46563
 91  4  7  0  3 59.9920000  0  5G15G13G19G 2G 6
  21586468.313    -4308651.976 5  -3262499.75721
  20773578.953    -7183607.937 5  -5108453.27021
  20767830.008     -665353.630 5   -480956.91321
  18670897.109   -29116588.160 7 -22543263.44824
  19022603.1024  -24694458.93547 -19026464.44063
 91  4  7  0  4 14.9920000  0  5G15G13G19G 2G 6
  21581046.961    -4337150.087 5  -3284706.02021
  20760430.9534   -7252702.43345  -5162292.96561
  20772326.274     -641718.621 5   -462540.13721
  18668483.6334  -29129275.29947 -22553149.52064
  19015356.5394  -24732536.77147 -19056135.43763
 91  4  7  0  4 29.9920000  0  5G15G13G19G 2G 6
  21575644.445    -4365536.577 5  -3306825.30921
  20747295.156    -7321735.602 5  -5216084.86821
  20776838.3444    -618022.32745   -444075.57461
  18666077.5554  -29141917.88548 -22563000.87564
  19008119.2974  -24770568.05047 -19085770.16963
 91  4  7  0  4 44.9920000  0  5G15G13G19G 2G 6
  21570261.7504   -4393811.48445  -3328857.65261
  20734168.4454   -7390707.27745  -5269828.84561
  20781359.094     -594265.260 5   -425563.68421
  18663679.625   -29154516.208 8 -22572817.73724
  19000891.5394  -24808552.92747 -19115368.73863
 91  4  7  0  4 59.9920000  0  5G15G13G19G 2G 6
  21564903.516    -4421970.384 5  -3350799.59921
  20721057.883    -7459612.797 5  -5323521.27721
  20785889.867     -570443.002 5   -407000.96621
  18661291.6024  -29167066.09548 -22582596.86264
  18993672.7274  -24846486.77347 -19144927.54763
 91  4  7  0  5 14.9920000  0  5G15G13G19G 2G 6
  21559569.5634   -4450011.82045  -3372650.01161
  20707959.0394   -7528450.44746  -5377160.83561
  20790436.516     -546554.263 5   -388386.43621
  18658912.438   -29179566.536 7 -22592337.45424
  18986464.0864  -24884368.23647 -19174445.53763
 91  4  7  0  5 29.9920000  0  5G15G13G19G 2G 6
  21554254.211    -4477931.876 5  -3394405.85121
  20694873.5394   -7597216.22345  -5430744.38861
  20794995.438     -522595.809 5   -369717.58221
  18656544.117   -29192013.905 7 -22602036.68624
  18979265.2034  -24922193.45047 -19203919.68763
 91  4  7  0  5 44.9920000  0  5G15G13G19G 2G 6
  21548966.7974   -4505730.38345  -3416066.96961
  20681800.008    -7665909.866 6  -5484271.72821
  20799567.8204    -498567.59845   -350994.40261
  18654185.7424  -29204408.18247 -22611694.55364
  18972078.3524  -24959962.11547 -19233349.79163
 91  4  7  0  5 59.9920000  0  5G15G13G19G 2G 6
  21543698.0944   -4533412.37845  -3437637.29461
  20668739.688    -7734536.478 6  -5537746.83921
  20804150.4924    -474475.09145   -332221.09061
  18651836.664   -29216754.953 8 -22621315.39824
  18964900.7424  -24997679.42947 -19262739.87163
 91  4  7  0  6 14.9920000  0  5G15G13G19G 2G 6
  21538450.086    -4560983.216 5  -3459121.01121
  20655693.0394   -7803101.11046  -5591173.64861
  20808747.445     -450324.056 5   -313402.18421
  18649494.9144  -29229059.67048 -22630903.47964
  18957732.2894  -25035350.62747 -19292094.01963
 91  4  7  0  6 29.9920000  0  5G15G13G19G 2G 6
  21533225.6094   -4588437.37145  -3480513.80061
  20642659.4454   -7871598.44746  -5644548.04561
  20813359.0394    -426109.27145   -294533.58261
  18647162.0164  -29241317.22748 -22640454.81364
  18950573.6564  -25072970.30147 -19321408.01663
 91  4  7  0  6 44.9920000  0  5G15G13G19G 2G 6
  21528025.1884   -4615773.07845  -3501814.29361
  20629635.336    -7940026.522 6  -5697868.44321
  20817977.070     -401829.190 5   -275614.12021
  18644838.758   -29253526.071 8 -22649968.18424
  18943425.5554  -25110536.59847 -19350680.42263
 91  4  7  0  6 59.9920000  0  5G15G13G19G 2G 6
  21522846.586    -4642996.196 5  -3523027.05521
  20616626.320    -8008391.139 6  -5751139.40821
  20822611.4534    -377490.16745   -256648.74861
  18642523.2344  -29265692.49148 -22659448.50264
  18936285.3674  -25148055.47347 -19379915.87863
 91  4  7  0  7 14.9920000  0  5G15G13G19G 2G 6
  21517688.703    -4670098.636 5  -3544145.79921
  20603632.766    -8076683.711 6  -5804354.24521
  20827252.7274    -353084.26145   -237631.25761
  18640218.2034  -29277808.75248 -22668889.73464
  18929156.7974  -25185518.75047 -19409108.00863
 91  4  7  0  7 29.9920000  0  5G15G13G19G 2G 6
  21512550.8204   -4697081.34045  -3565171.22161
  20590647.8444   -8144905.15346  -5857513.65561
  20831910.8994    -328612.76045   -218562.64861
  18637922.1414  -29289876.01448 -22678292.78864
  18922038.0244  -25222927.26947 -19438257.47363
 91  4  7  0  7 44.9920000  0  5G15G13G19G 2G 6
  21507441.8284   -4723944.09245  -3586103.18161
  20577678.7504   -8213054.98946  -5910617.25361
  20836580.133     -304075.774 5   -199443.02021
  18635634.4384  -29301894.25448 -22687657.63464
  18914929.7664  -25260280.81747 -19467364.09663
 91  4  7  0  7 59.9920000  0  5G15G13G19G 2G 6
  21502350.250    -4750691.349 5  -3606945.14321
  20564723.4844   -8281137.72646  -5963668.57961
  20841258.1804    -279478.14745   -180276.13561
  18633355.8444  -29313868.19348 -22696987.98564
  18907831.0704  -25297583.80147 -19496431.32563
 91  4  7  0  8 14.9920000  0  5G15G13G19G 2G 6
  21497283.8204   -4777319.05645  -3627693.94861
  20551781.4224   -8349149.22946  -6016664.39961
  20845950.828     -254815.861 5   -161058.84721
  18631086.1334  -29325794.05748 -22706280.85964
  18900742.7894  -25334832.17147 -19525455.99263
 91  4  7  0  8 29.9920000  0  5G15G13G19G 2G 6
  21492237.6724   -4803834.46245  -3648355.24661
  20538852.0244   -8417096.76046  -6069610.35361
  20850654.5394    -230096.69145   -141797.24661
  18628825.5554  -29337679.40148 -22715542.15764
  18893663.6254  -25372033.25947 -19554443.81963
 91  4  7  0  8 44.9920000  0  5G15G13G19G 2G 6
  21487214.4384   -4830230.10545  -3668923.22361
  20525935.4844   -8484972.56146  -6122500.44561
  20855370.945     -205313.573 5   -122485.83621
  18626572.7114  -29349517.10048 -22724766.33564
  18886594.9454  -25409179.56347 -19583388.95463
 91  4  7  0  8 59.9920000  0  5G15G13G19G 2G 6
  21482214.6334   -4856503.72045  -3689396.10561
  20513035.516    -8552774.516 6  -6175332.96021
  20860105.352     -180464.409 5   -103122.96121
  18624329.2194  -29361305.29248 -22733951.93964
  18879537.4614  -25446268.81147 -19612289.63163
 91  4  7  0  9 14.9920000  0  5G15G13G19G 2G 6
  21477242.016    -4882646.093 5  -3709766.72921
  20500148.6954   -8620493.06646  -6228100.52361
  20864844.266     -155540.300 5    -83701.68021
  18622097.2034  -29373035.11248 -22743092.05664
  18872491.8674  -25483291.66047 -19641138.57063
 91  4  7  0  9 29.9920000  0  5G15G13G19G 2G 6
  21472287.4064   -4908667.51445  -3730043.10461
  20487274.9304   -8688138.11846  -6280810.80461
  20869600.672     -130551.698 5    -64230.13121
  18619873.8524  -29384716.84148 -22752194.70164
  18865458.2814  -25520258.23247 -19669943.65363
 91  4  7  0  9 44.9920000  0  5G15G13G19G 2G 6
  21467358.570    -4934562.730 5  -3750221.14621
  20474417.102    -8755704.270 6  -6333459.60021
  20874367.6564    -105493.61545    -44704.43861
  18617660.7744  -29396345.44448 -22761255.94864
  18858435.7424  -25557163.16747 -19698700.71063
 91  4  7  0  9 59.9920000  0  5G15G13G19G 2G 6
  21462456.1414   -4960332.66845  -3770301.55861
  20461574.8524   -8823192.46546  -6386047.63561
  20879150.4384     -80367.54245    -25125.76561
  18615457.9304  -29407922.37348 -22770276.92964
  18851423.1494  -25594007.73947 -19727410.72763
 91  4  7  0 10 14.9920000  0  5G15G13G19G 2G 6
  21457574.6094   -4985979.96745  -3790286.41661
  20448746.9384   -8890605.10646  -6438576.81461
  20883944.0084     -55176.47045     -5496.44761
  18613264.5784  -29419450.53648 -22779259.90964
  18844423.9774  -25630794.41947 -19756075.63163
 91  4  7  0 10 29.9920000  0  5G15G13G19G 2G 6
  21452719.617    -5011505.782 5  -3810176.61221
  20435932.6174   -8957943.08646  -6491047.79561
  20888751.8134     -29921.66245     14182.50161
  18611079.6954  -29430931.14348 -22788205.82964
  18837433.4924  -25667524.26347 -19784696.25363
 91  4  7  0 10 44.9920000  0  5G15G13G19G 2G 6
  21447882.945    -5036909.721 5  -3829971.83521
  20423131.3754   -9025206.07146  -6543460.36161
  20893566.8914      -4602.93345     33911.26561
  18608903.8204  -29442363.98148 -22797114.52464
  18830454.8674  -25704196.80947 -19813272.23063
 91  4  7  0 10 59.9920000  0  5G15G13G19G 2G 6
  21443074.2664   -5062191.63545  -3849671.97361
  20410346.1954   -9092394.07446  -6595814.49661
  20898398.914       20779.547 5     53689.72521
  18606738.3754  -29453749.36648 -22805986.24564
  18823487.0244  -25740811.82347 -19841803.38163
 91  4  7  0 11 14.9920000  0  5G15G13G19G 2G 6
  21438287.1414   -5087349.01445  -3869275.06561
  20397576.195    -9159504.654 6  -6648108.29121
  20903240.461       46227.813 5     73519.44221
  18604580.2584  -29465085.20748 -22814819.36864
  18816531.0244  -25777367.02347 -19870287.91563
 91  4  7  0 11 29.9920000  0  5G15G13G19G 2G 6
  21433524.781    -5112378.915 5  -3888778.83421
  20384819.1644   -9226534.27346  -6700339.01061
  20908097.438       71744.563 5     93402.52221
  18602432.5394  -29476368.71448 -22823611.71364
  18809585.8594  -25813859.24047 -19898723.37163
 91  4  7  0 11 44.9920000  0  5G15G13G19G 2G 6
  21428784.289    -5137288.466 5  -3908188.84521
  20372077.5314   -9293489.62346  -6752511.85961
  20912963.6804      97322.34345    113333.16761
  18600294.8204  -29487607.20148 -22832368.97264
  18802652.7424  -25850295.57247 -19927115.28463
 91  4  7  0 11 59.9920000  0  5G15G13G19G 2G 6
  21424066.0634   -5162074.15245  -3927502.30461
  20359351.789    -9360367.306 6  -6804624.18321
  20917841.992      122964.272 5    133313.78521
  18598164.4614  -29498797.50748 -22841088.68564
  18795730.4534  -25886672.49947 -19955460.91163
 91  4  7  0 12 14.9920000  0  5G15G13G19G 2G 6
  21419375.961    -5186725.694 5  -3946711.25221
  20346644.2274   -9427157.00246  -6856667.94061
  20922735.906      148680.400 5    153352.21121
  18596046.6094  -29509929.65548 -22849763.08464
  18788821.8444  -25922979.70047 -19983752.20663
 91  4  7  0 12 29.9920000  0  5G15G13G19G 2G 6
  21414707.734    -5211251.979 5  -3965822.60021
  20333948.4454   -9493867.52546  -6908650.00861
  20927643.3444     174461.55045    173441.30661
  18593937.8364  -29521012.83848 -22858399.32664
  18781924.6954  -25959225.99547 -20011996.03563
 91  4  7  0 12 44.9920000  0  5G15G13G19G 2G 6
  21410062.0314   -5235660.68645  -3984842.33061
  20321267.9844   -9560506.26746  -6960576.15861
  20932559.344      200299.816 5    193574.95821
  18591836.1094  -29532054.78448 -22867003.44164
  18775037.6804  -25995419.02547 -20040198.36663
 91  4  7  0 12 59.9920000  0  5G15G13G19G 2G 6
  21405442.0004   -5259952.02945  -4003770.61861
  20308598.641    -9627073.230 6  -7012446.36021
  20937487.274      226194.671 5    213752.70921
  18589742.5474  -29543056.19248 -22875575.96564
  18768159.4844  -26031558.80747 -20068359.20763
 91  4  7  0 13 14.9920000  0  5G15G13G19G 2G 6
  21400842.5314   -5284116.77345  -4022600.24761
  20295947.9844   -9693559.34746  -7064253.56861
  20942427.2114     252154.77345    233981.26661
  18587658.8834  -29554008.14548 -22884109.95464
  18761294.6174  -26067636.35047 -20096471.54563
 91  4  7  0 13 29.9920000  0  5G15G13G19G 2G 6
  21396268.555    -5308150.853 5  -4041328.04521
  20283311.9304   -9759960.26646  -7115994.39161
  20947381.0084     278183.96145    254263.64861
  18585584.3204  -29564906.63948 -22892602.29364
  18754441.1564  -26103647.27047 -20124531.96863
 91  4  7  0 13 44.9920000  0  5G15G13G19G 2G 6
  21391718.1644   -5332057.52945  -4059956.58861
  20270690.2034   -9826278.89746  -7167671.09661
  20952346.1494     304278.94645    274597.31261
  18583520.5084  -29575755.19748 -22901055.71164
  18747601.1884  -26139594.88347 -20152543.05863
 91  4  7  0 13 59.9920000  0  5G15G13G19G 2G 6
  21387195.984    -5355835.271 5  -4078484.64521
  20258087.9384   -9892513.76246  -7219282.51861
  20957327.2424     330440.79345    294983.08061
  18581466.4384  -29586552.59148 -22909469.26064
  18740772.2344  -26175477.58647 -20180503.56763
 91  4  7  0 14 14.9920000  0  5G15G13G19G 2G 6
  21382695.578    -5379485.458 5  -4096913.31121
  20245499.164    -9958665.911 6  -7270829.50021
  20962314.274      356668.078 5    315419.82621
  18579420.4774  -29597300.39248 -22917844.16164
  18733957.3914  -26211296.58047 -20208414.43963
 91  4  7  0 14 29.9920000  0  5G15G13G19G 2G 6
  21378216.2664   -5403011.70145  -4115245.41661
  20232928.2664  -10024738.82746  -7322314.72961
  20967317.9304     382956.84845    335904.46061
  18577383.8054  -29608002.42848 -22926183.40364
  18727152.3204  -26247055.45047 -20236278.46463
 91  4  7  0 14 44.9920000  0  5G15G13G19G 2G 6
  21373765.766    -5426410.892 5  -4133478.51421
  20220368.5474  -10090729.27146  -7373735.70161
  20972331.563      409310.023 5    356439.28921
  18575356.5004  -29618655.83148 -22934484.75264
  18720360.1884  -26282751.05547 -20264093.19663
 91  4  7  0 14 59.9920000  0  5G15G13G19G 2G 6
  21369336.102    -5449682.791 5  -4151612.41521
  20207825.3674  -10156637.00746  -7425092.23661
  20977363.594      435727.176 5    377023.97721
  18573339.3364  -29629260.84248 -22942748.38964
  18713579.4614  -26318383.20747 -20291858.48363
 91  4  7  0 15 14.9920000  0  5G15G13G19G 2G 6
  21364930.633    -5472830.241 5  -4169649.35221
  20195298.9614  -10222464.64146  -7476386.34261
  20982399.2974     462205.18845    397656.06861
  18571329.2034  -29639820.31448 -22950976.54964
  18706809.891   -26353954.611 7 -20319576.43123
 91  4  7  0 15 29.9920000  0  5G15G13G19G 2G 6
  21360549.0314   -5495850.84445  -4187587.44861
  20182788.274   -10288209.626 6  -7527616.04021
  20987449.609      488746.002 5    418337.12421
  18569330.5314  -29650332.31448 -22959167.71764
  18700052.930   -26389462.792 7 -20347245.12123
 91  4  7  0 15 44.9920000  0  5G15G13G19G 2G 6
  21356193.813    -5518742.973 5  -4205425.43721
  20170292.0634  -10353870.29946  -7578780.05661
  20992512.109      515351.285 5    439068.38621
  18567338.1884  -29660795.22748 -22967320.63164
  18693307.789   -26424905.998 7 -20374863.18423
 91  4  7  0 15 59.9920000  0  5G15G13G19G 2G 6
  21351863.609    -5541498.785 5  -4223157.20721
  20157813.867   -10419438.316 6  -7629871.87121
  20997589.3364     542028.62745    459855.80961
  18565357.6724  -29671201.27448 -22975429.23964
  18686577.6494  -26460276.27147 -20402424.40063
 91  4  7  0 16 14.9920000  0  5G15G13G19G 2G 6
  21347555.7894   -5564136.59645  -4240797.02061
  20145351.844   -10484931.934 6  -7680905.69121
  21002676.2894     568759.57545    480684.99661
  18563384.7274  -29681569.07648 -22983508.04464
  18679857.438   -26495591.812 7 -20429942.98623
 91  4  7  0 16 29.9920000  0  5G15G13G19G 2G 6
  21343272.5704   -5586651.33245  -4258340.93661
  20132904.461   -10550345.990 6  -7731877.55321
  21007773.281      595548.572 5    501559.43521
  18561420.2664  -29691894.04548 -22991553.47564
  18673146.539   -26530847.700 7 -20457415.08523
 91  4  7  0 16 44.9920000  0  5G15G13G19G 2G 6
  21339012.4224   -5609042.06745  -4275788.21761
  20120472.3134  -10615679.86046  -7782786.91261
  21012884.953      622396.160 5    522479.53121
  18559463.5474  -29702175.77048 -22999565.20564
  18666451.813   -26566043.028 7 -20484839.99223
 91  4  7  0 16 59.9920000  0  5G15G13G19G 2G 6
  21334774.055    -5631303.375 5  -4293134.64421
  20108055.1884  -10680927.39446  -7833628.99661
  21018004.7584     649307.73144    543449.47061
  18557515.7114  -29712408.65048 -23007538.87764
  18659766.164   -26601171.913 7 -20512213.12423
 91  4  7  0 17 14.9920000  0  5G15G13G19G 2G 6
  21330563.859    -5653436.839 5  -4310381.45221
  20095654.6494  -10746090.25846  -7884405.10361
  21023137.8674     676281.45445    564467.84461
  18555577.7274  -29722594.55548 -23015475.94364
  18653093.742   -26636236.168 7 -20539535.89923
 91  4  7  0 17 29.9920000  0  5G15G13G19G 2G 6
  21326375.8054   -5675439.45945  -4327526.30961
  20083271.774   -10811165.402 6  -7935112.87021
  21028282.352      703319.852 5    585536.61421
  18553648.8834  -29732730.85548 -23023374.35464
  18646433.6954  -26671232.74147 -20566805.93663
 91  4  7  0 17 44.9920000  0  5G15G13G19G 2G 6
  21322212.859    -5697310.580 5  -4344568.71721
  20070903.4694  -10876151.59046  -7985751.30261
  21033439.727      730423.669 5    606656.37821
  18551729.2194  -29742816.76548 -23031233.50264
  18639787.828   -26706160.485 7 -20594022.33123
 91  4  7  0 17 59.9920000  0  5G15G13G19G 2G 6
  21318076.4224   -5719056.36545  -4361513.43961
  20058554.672   -10941055.037 6  -8036325.27121
  21038610.836      757586.097 5    627821.79421
  18549818.6494  -29752858.69748 -23039058.37864
  18633151.961   -26741025.583 7 -20621189.91823
 91  4  7  0 18 14.9920000  0  5G15G13G19G 2G 6
  21313962.5164   -5740671.32845  -4378356.23661
  20046220.2424  -11005870.08946  -8086830.36261
  21043788.2194     784812.48445    649037.04361
  18547918.4844  -29762851.62348 -23046845.06964
  18626530.4844  -26775822.66347 -20648304.49863
 91  4  7  0 18 29.9920000  0  5G15G13G19G 2G 6
  21309873.086    -5762162.247 5  -4395102.35021
  20033901.984   -11070603.568 6  -8137271.89621
  21048983.953      812095.846 5    670296.69921
  18546023.5084  -29772802.55248 -23054599.03164
  18619921.2584  -26810558.41047 -20675371.28763
 91  4  7  0 18 44.9920000  0  5G15G13G19G 2G 6
  21305804.7034   -5783526.00945  -4411749.37861
  20021599.125   -11135252.008 6  -8187647.16121
  21054186.125      839438.801 5    691602.78521
  18544138.7894  -29782708.56948 -23062317.99964
  18613323.258   -26845229.602 7 -20702387.76923
 91  4  7  0 18 59.9920000  0  5G15G13G19G 2G 6
  21301767.4144   -5804757.62645  -4428293.45561
  20009314.2194  -11199810.40246  -8237952.25761
  21059402.750      866845.983 4    712958.92321
  18542262.9304  -29792564.94648 -23069998.28564
  18606738.328   -26879831.221 7 -20729350.04823
 91  4  7  0 19 14.9920000  0  5G15G13G19G 2G 6
  21297751.000    -5825860.038 5  -4444736.84621
  19997045.242   -11264281.421 6  -8288189.28121
  21064629.9304     894314.35145    734362.72561
  18540396.0244  -29802374.90847 -23077642.40764
  18600167.602   -26914365.980 7 -20756260.23023
 91  4  7  0 19 29.9920000  0  5G15G13G19G 2G 6
  21293762.2034   -5846827.65045  -4461075.21161
  19984797.930   -11328659.263 6  -8338353.69321
  21069869.172      921849.205 5    755818.34721
  18538538.4064  -29812132.93947 -23085246.05964
  18593608.5084  -26948828.29647 -20783113.95263
 91  4  7  0 19 44.9920000  0  5G15G13G19G 2G 6
  21289795.5864   -5867668.58645  -4477314.86761
  19972560.9224  -11392951.83646  -8388451.66061
  21075120.0244     949442.07145    777319.15361
  18536690.3364  -29821847.47147 -23092815.81564
  18587063.4694  -26983226.13147 -20809917.43263
 91  4  7  0 19 59.9920000  0  5G15G13G19G 2G 6
  21285857.305    -5888375.124 5  -4493449.78521
  19960344.149   -11457151.253 6  -8438477.04021
  21080384.688      977100.454 5    798871.02321
  18534851.4384  -29831510.82747 -23100345.69664
  18580532.539   -27017551.626 7 -20836664.54523
 91  4  7  0 20 14.9920000  0  5G15G13G19G 2G 6
  21281939.266    -5908949.681 5  -4509481.86221
  19948144.641   -11521259.934 6  -8488431.72221
  21085655.367     1004821.813 5    820471.98021
  18533022.3364  -29841125.68447 -23107837.78664
  18574012.664   -27051807.132 7 -20863357.12323
 91  4  7  0 20 29.9920000  0  5G15G13G19G 2G 6
  21278047.0554   -5929397.95245  -4525415.53961
  19935963.000   -11585283.134 6  -8538319.79821
  21090942.0474    1032600.29845    842117.45761
  18531200.2894  -29850697.63247 -23115296.44164
  18567506.742   -27085997.960 7 -20889999.30023
 91  4  7  0 20 44.9920000  0  5G15G13G19G 2G 6
  21274182.063    -5949719.939 5  -4541250.80021
  19923794.4694  -11649220.90946  -8588141.29261
  21096240.688     1060435.305 5    863806.97521
  18529386.1954  -29860227.23547 -23122722.09964
  18561012.820   -27120124.342 7 -20916591.26323
 91  4  7  0 20 59.9920000  0  5G15G13G19G 2G 6
  21270338.203    -5969913.819 5  -4556986.24621
  19911644.117   -11713071.251 6  -8637894.66821
  21101547.656     1088328.380 5    885541.71821
  18527581.9224  -29869712.94447 -23130113.55464
  18554531.156   -27154184.361 7 -20943131.51023
 91  4  7  0 21 14.9920000  0  5G15G13G19G 2G 6
  21266523.4844   -5989979.22245  -4572621.57561
  19899508.688   -11776833.614 6  -8687579.49421
  21106867.1254    1116279.66445    907321.83761
  18525785.6644  -29879154.69247 -23137470.75164
  18548063.3914  -27188177.51147 -20969619.65063
 91  4  7  0 21 29.9920000  0  5G15G13G19G 2G 6
  21262728.6094   -6009906.29045  -4588149.12961
  19887394.234   -11840497.776 6  -8737187.79221
  21112202.219     1144299.018 5    929154.99521
  18523999.0474  -29888542.41347 -23144785.85164
  18541608.2814  -27222093.69447 -20996047.81863
 91  4  7  0 21 44.9920000  0  5G15G13G19G 2G 6
  21258961.039    -6029702.292 5  -4603574.54121
  19875299.5084  -11904071.02446  -8786725.25161
  21117542.031     1172378.701 5    951035.16321
  18522220.6954  -29897883.83247 -23152064.87264
  18535167.0704  -27255940.15447 -21022421.64863
 91  4  7  0 21 59.9920000  0  5G15G13G19G 2G 6
  21255219.750    -6049368.715 5  -4618898.97821
  19863216.8284  -11967554.86846  -8836193.05961
  21122899.0634    1200516.85445    972960.90061
  18520451.6954  -29907180.74947 -23159309.21864
  18528739.5394  -27289718.47047 -21048742.38563
 91  4  7  0 22 14.9920000  0  5G15G13G19G 2G 6
  21251500.086    -6068904.114 5  -4634121.32221
  19851152.719   -12030947.561 6  -8885589.82221
  21128262.3284    1228714.69845    994933.15761
  18518691.7814  -29916431.73147 -23166517.76864
  18522325.2274  -27323426.87947 -21075008.64863
 91  4  7  0 22 29.9920000  0  5G15G13G19G 2G 6
  21247811.9384   -6088291.88245  -4649228.65361
  19839111.0554  -12094231.98246  -8934902.23561
  21133645.484     1256988.834 5   1016964.83621
  18516943.1494  -29925620.17547 -23173677.59064
  18515926.8204  -27357048.49847 -21101207.28363
 91  4  7  0 22 44.9920000  0  5G15G13G19G 2G 6
  21244148.766    -6107550.822 5  -4664235.58021
  19827085.719   -12157427.022 6  -8984144.98921
  21139034.0314    1285319.94645   1039040.90561
  18515201.8914  -29934765.37347 -23180803.71064
  18509542.2974  -27390602.17347 -21127352.97363
 91  4  7  0 22 59.9920000  0  5G15G13G19G 2G 6
  21240506.9144   -6126678.37245  -4679140.12361
  19815075.8914  -12220530.28046  -9033316.24061
  21144442.016     1313709.919 5   1061162.83821
  18513470.7194  -29943865.31447 -23187894.56364
  18503170.3364  -27424085.66047 -21153443.96963
 91  4  7  0 23 14.9920000  0  5G15G13G19G 2G 6
  21236890.4224   -6145672.44345  -4693940.67161
  19803085.0554  -12283539.08646  -9082413.88661
  21149850.2504    1342160.83945   1083332.26261
  18511749.0164  -29952917.82647 -23194948.46064
  18496812.9144  -27457496.32647 -21179478.22263
 91  4  7  0 23 29.9920000  0  5G15G13G19G 2G 6
  21233301.4844   -6164533.72445  -4708637.72961
  19791114.4384  -12346453.78646  -9131438.20661
  21155278.3914    1370672.13645   1105548.73761
  18510034.6564  -29961923.50047 -23201965.86164
  18490467.6644  -27490834.70647 -21205456.14863
 91  4  7  0 23 44.9920000  0  5G15G13G19G 2G 6
  21229739.9454   -6183262.75145  -4723231.74861
  19779158.7424  -12409275.31046  -9180389.92061
  21160714.5394    1399242.78845   1127811.46361
  18508329.2114  -29970883.28047 -23208947.50164
  18484137.7194  -27524101.31147 -21231378.14663
 91  4  7  0 23 59.9920000  0  5G15G13G19G 2G 6
  21226202.1884   -6201859.79245  -4737722.91361
  19767222.4614  -12472003.23846  -9229268.69761
  21166166.2034    1427872.43944   1150120.19261
  18506633.0164  -29979797.44347 -23215893.59564
  18477820.5554  -27557296.07747 -21257244.16663
 91  4  7  0 24 14.9920000  0  5G15G13G19G 2G 6
  21222689.414    -6220320.834 5  -4752108.09221
  19755302.9614  -12534633.52046  -9278071.39761
  21171622.836     1456564.552 5   1172477.57121
  18504946.7274  -29988662.27447 -23222801.24964
  18471519.2744  -27590415.22147 -21283051.25663
 91  4  7  0 24 29.9920000  0  5G15G13G19G 2G 6
  21219199.4454   -6238653.35645  -4766393.13761
  19743402.0704  -12597173.52646  -9326803.75161
  21177092.399     1485311.369 4   1194877.56421
  18503267.5474  -29997485.49847 -23229676.47864
  18465229.8134  -27623465.88247 -21308804.98863
 91  4  7  0 24 44.9920000  0  5G15G13G19G 2G 6
  21215735.4534   -6256848.18745  -4780570.89561
  19731521.4924  -12659613.76146  -9375458.35861
  21182577.8134    1514122.05144   1217327.33661
  18501597.9224  -30006258.00947 -23236512.19264
  18458954.2814  -27656438.83047 -21334498.16863
 91  4  7  0 24 59.9920000  0  5G15G13G19G 2G 6
  21212298.766    -6274911.225 5  -4794645.94721
  19719656.6804  -12721959.55746  -9424039.37861
  21188068.703     1542990.711 4   1239822.28721
  18499937.0704  -30014985.51047 -23243312.83764
  18452693.9224  -27689339.43147 -21360134.96563
 91  4  7  0 25 14.9920000  0  5G15G13G19G 2G 6
  21208887.961    -6292833.373 5  -4808611.23821
  19707811.7194  -12784202.08946  -9472539.92561
  21193574.195     1571925.872 4   1262369.04721
  18498287.1094  -30023659.47647 -23250071.76764
  18446447.5864  -27722158.78947 -21385708.45863
 91  4  7  0 25 29.9920000  0  5G15G13G19G 2G 6
  21205502.4924   -6310622.78045  -4822473.08561
  19695986.086   -12846349.355 6  -9520966.25421
  21199092.5784    1600919.05843   1284961.02061
  18496644.7034  -30032288.27547 -23256795.49764
  18440216.6414  -27754904.92747 -21411224.89863
 91  4  7  0 25 44.9920000  0  5G15G13G19G 2G 6
  21202143.3134   -6328281.17245  -4836232.83861
  19684179.2274  -12908402.87246  -9569319.52461
  21204619.555     1629968.174 3   1307596.59121
  18495010.3914  -30040873.83047 -23263485.52864
  18433999.4384  -27787579.48047 -21436685.55563
 91  4  7  0 25 59.9920000  0  5G15G13G19G 2G 6
  21198806.742    -6345812.833 5  -4849893.83521
  19672385.3914  -12970366.93746  -9617603.09061
  21210159.9614    1659068.72543   1330272.21861
  18493384.5554  -30049420.54547 -23270145.29464
  18427794.4064  -27820186.60947 -21462093.67263
 91  4  7  0 26 14.9920000  0  5G15G13G19G 2G 6
  21195495.500    -6363208.072 5  -4863448.54221
  19660613.8054  -13032231.42646  -9665809.07261
  21215707.125     1688230.306 4   1352995.40521
  18491766.2814  -30057918.84547 -23276767.33864
  18421603.7114  -27852716.42647 -21487441.54963
 91  4  7  0 26 29.9920000  0  5G15G13G19G 2G 6
  21192213.984    -6380466.486 5  -4876896.61221
  19648859.6644  -13093995.78146  -9713937.02561
  21221269.719     1717453.100 3   1375766.30521
  18490158.8134  -30066368.47247 -23283351.46064
  18415428.2664  -27885168.37347 -21512728.75063
 91  4  7  0 26 44.9920000  0  5G15G13G19G 2G 6
  21188952.5554   -6397591.09945  -4890240.44061
  19637125.8994  -13155662.92946  -9761989.22961
  21226839.4774    1746733.68144   1398582.21061
  18488559.5704  -30074772.65147 -23289900.16664
  18409266.8914  -27917545.28247 -21537957.47763
 91  4  7  0 26 59.9920000  0  5G15G13G19G 2G 6
  21185720.6884   -6414578.40745  -4903477.26761
  19625409.2814  -13217228.95346  -9809962.63561
  21232424.547     1776075.388 4   1421445.76621
  18486969.7744  -30083128.00047 -23296410.81964
  18403120.6644  -27949843.65547 -21563125.01163
 91  4  7  0 27 14.9920000  0  5G15G13G19G 2G 6
  21182513.8444   -6431425.23145  -4916604.63361
  19613714.8054  -13278690.75346  -9857854.82761
  21238018.820     1805480.975 4   1444359.07821
  18485389.3914  -30091431.64947 -23302881.18864
  18396989.6254  -27982060.06847 -21588228.67663
 91  4  7  0 27 29.9920000  0  5G15G13G19G 2G 6
  21179333.453    -6448139.778 5  -4929628.93721
  19602035.828   -13340056.264 6  -9905671.99921
  21243626.719     1834942.189 4   1467315.75021
  18483817.3134  -30099691.81147 -23309317.67164
  18390874.2424  -28014202.57347 -21613274.75563
 91  4  7  0 27 44.9920000  0  5G15G13G19G 2G 6
  21176180.625    -6464718.455 5  -4942547.34521
  19590377.914   -13401321.654 6  -9953411.13921
  21249243.2274    1864462.31144   1490318.32061
  18482255.3674  -30107905.02447 -23315717.57064
  18384771.2744  -28046267.49647 -21638260.38163
 91  4  7  0 27 59.9920000  0  5G15G13G19G 2G 6
  21173051.070    -6481157.887 5  -4955357.27921
  19578739.6644  -13462483.21946 -10001069.39361
  21254872.7744    1894044.57244   1513369.32461
  18480700.8754  -30116068.13247 -23322078.42764
  18378685.9694  -28078251.17047 -21663182.69163
 91  4  7  0 28 14.9920000  0  5G15G13G19G 2G 6
  21169949.078    -6497454.428 5  -4968055.83821
  19567120.6254  -13523537.50346 -10048644.04061
  21260513.695     1923692.387 4   1536471.39121
  18479158.5244  -30124177.76247 -23328397.61664
  18372614.6414  -28110150.02647 -21688038.91763
 91  4  7  0 28 29.9920000  0  5G15G13G19G 2G 6
  21166874.141    -6513617.088 5  -4980650.10021
  19555521.5474  -13584493.25746 -10096141.90961
  21266166.375     1953396.191 4   1559617.08421
  18477623.6724  -30132243.09947 -23334682.28964
  18366559.7114  -28141972.94547 -21712835.96763
 91  4  7  0 28 44.9920000  0  5G15G13G19G 2G 6
  21163825.555    -6529645.243 5  -4993139.53121
  19543940.242   -13645349.603 6 -10143562.32421
  21271829.625     1983156.346 4   1582806.68221
  18476097.1254  -30140263.63847 -23340932.05464
  18360518.7274  -28173719.15247 -21737573.24463
 91  4  7  0 28 59.9920000  0  5G15G13G19G 2G 6
  21160802.8054   -6545532.27345  -5005518.99761
  19532381.6494  -13706099.79146 -10190900.01161
  21277509.070     2012979.397 4   1606045.30721
  18474581.4614  -30148232.72047 -23347141.72464
  18354493.8134  -28205381.58047 -21762245.23463
 91  4  7  0 29 14.9920000  0  5G15G13G19G 2G 6
  21157807.219    -6561282.655 5  -5017791.97721
  19520839.3284  -13766748.17646 -10238158.37661
  21283188.9224    2042860.42944   1629329.09661
  18473073.4384  -30156155.24147 -23353315.11464
  18348484.0474  -28236965.01747 -21786855.67163
 91  4  7  0 29 29.9920000  0  5G15G13G19G 2G 6
  21154833.586    -6576894.289 5  -5029956.84821
  19509319.1884  -13827292.12846 -10285335.35961
  21288889.070     2072801.545 4   1652659.70921
  18471574.3284  -30164029.09147 -23359450.57564
  18342488.3054  -28268466.71447 -21811402.41863
 91  4  7  0 29 44.9920000  0  5G15G13G19G 2G 6
  21151887.445    -6592373.960 5  -5042018.91321
  19497814.133   -13887738.422 6 -10332436.25321
  21294597.836     2102795.576 4   1676031.54721
  18470084.5704  -30171861.08847 -23365553.42464
  18336508.7034  -28299893.50747 -21835890.80263
 91  4  7  0 29 59.9920000  0  5G15G13G19G 2G 6
  21148964.813    -6607728.332 5  -5053983.31821
  19486330.9924  -13948093.68046 -10379466.19961
  21300315.0704    2132835.64744   1699439.27461
  18468600.9924  -30179658.31047 -23371629.18064
  18330541.8284  -28331252.06547 -21860326.01563
 91  4  7  0 30 14.9920000  0  5G15G13G19G 2G 6
  21146069.6804   -6622942.50245  -5065838.46361
  19474864.2814  -14008342.44346 -10426413.16861
  21306043.977     2162936.591 4   1722894.42821
  18467126.5634  -30187405.64247 -23377666.05964
  18324589.1414  -28362527.07847 -21884696.12763
 91  4  7  0 30 29.9920000  0  5G15G13G19G 2G 6
  21143201.149    -6638017.114 6  -5077584.90521
  19463420.3994  -14068485.29546 -10473277.61661
  21311781.7664    2193097.38143   1746396.22061
  18465662.2584  -30195104.07647 -23383664.83864
  18318654.086   -28393719.105 7 -21909001.57623
 91  4  7  0 30 44.9920000  0  5G15G13G19G 2G 6
  21140356.649    -6652960.378 5  -5089228.95721
  19451993.781   -14128530.021 6 -10520065.59521
  21317531.039     2223309.784 4   1769938.22721
  18464204.2974  -30202761.85447 -23389631.93364
  18312732.500   -28424836.079 7 -21933248.54423
 91  4  7  0 30 59.9920000  0  5G15G13G19G 2G 6
  21137542.008    -6667769.528 5  -5100768.51821
  19440587.305   -14188473.962 6 -10566775.04821
  21323293.930     2253576.332 3   1793522.41521
  18462754.8994  -30210376.47247 -23395565.40364
  18306826.500   -28455875.211 7 -21957434.85123
 91  4  7  0 31 14.9920000  0  5G15G13G19G 2G 6
  21134745.6494   -6682441.34445  -5112201.05961
  19429199.0474  -14248313.66046 -10613403.26561
  21329061.344     2283899.975 3   1817151.09721
  18461315.3054  -30217944.61447 -23401462.65864
  18300934.375   -28486832.910 7 -21981557.71623
 91  4  7  0 31 29.9920000  0  5G15G13G19G 2G 6
  21131985.305    -6696970.056 5  -5123522.11521
  19417834.3204  -14308042.78046 -10659945.32261
  21334847.266     2314286.244 3   1840828.59321
  18459884.7424  -30225460.63147 -23407319.29264
  18295060.195   -28517703.246 7 -22005612.50023
 91  4  7  0 31 44.9910000  0  5G15G13G19G 2G 6
  21129244.995    -6711360.181 5  -5134735.16121
  19406487.5504  -14367662.90746 -10706402.44461
  21340640.3314    2344727.36043   1864548.81061
  18458463.4564  -30232929.98547 -23413139.57064
  18289202.081   -28548489.829 7 -22029602.01723
 91  4  7  0 31 59.9910000  0  5G15G13G19G 2G 6
  21126534.066    -6725615.863 5  -5145843.44921
  19395162.1674  -14427184.06746 -10752782.45361
  21346436.7454    2375224.85443   1888312.96961
  18457049.9014  -30240355.79247 -23418925.91564
  18283357.691   -28579198.480 7 -22053530.81523
 91  4  7  0 32 14.9910000  0  5G15G13G19G 2G 6
  21123843.683    -6739738.000 5  -5156847.68021
  19383854.8704  -14486604.14346 -10799083.69861
  21352255.4174    2405774.40543   1912117.70961
  18455644.9954  -30247739.84647 -23424679.72064
  18277528.347   -28609829.089 7 -22077398.79723
 91  4  7  0 32 29.9910000  0  5G15G13G19G 2G 6
  21121180.5034   -6753728.49845  -5167749.31861
  19372566.2764  -14545924.83646 -10845307.49561
  21358078.737     2436374.099 3   1935961.51421
  18454247.8314  -30255083.99847 -23430402.43864
  18271715.573   -28640383.337 7 -22101207.27723
 91  4  7  0 32 44.9910000  0  5G15G13G19G 2G 6
  21118546.855    -6767584.341 5  -5178546.05121
  19361295.441   -14605142.624 6 -10891451.11521
  21363913.3084    2467026.80043   1959846.61161
  18452858.2374  -30262385.10447 -23436091.61064
  18265916.245   -28670857.772 7 -22124953.56623
 91  4  7  0 32 59.9910000  0  5G15G13G19G 2G 6
  21115936.3624   -6781302.13145  -5189235.20061
  19350047.5194  -14664253.89246 -10937511.72761
  21369750.5734    2497735.69143   1983775.50561
  18451477.6124  -30269639.80947 -23441744.62664
  18260132.355   -28701248.983 7 -22148635.00623
 91  4  7  0 33 14.9910000  0  5G15G13G19G 2G 6
  21113348.5504   -6794874.79545  -5199811.27761
  19338821.097   -14723251.396 6 -10983483.69721
  21375606.2694    2528507.54543   2007753.44961
  18450107.3474  -30276841.42047 -23447356.27564
  18254366.761   -28731549.620 7 -22172245.87723
 91  4  7  0 33 29.9910000  0  5G15G13G19G 2G 6
  21110796.1284   -6808312.59545  -5210282.24661
  19327611.941   -14782145.140 6 -11029374.80821
  21381473.6054    2559331.97343   2031772.36361
  18448746.0504  -30284000.18647 -23452934.53464
  18248616.636   -28761769.734 7 -22195793.99123
 91  4  7  0 33 44.9910000  0  5G15G13G19G 2G 6
  21108263.6284   -6821609.37645  -5220643.34261
  19316427.519   -14840929.156 6 -11075180.41821
  21387353.3004    2590214.70443   2055836.72561
  18447392.2764  -30291110.32047 -23458474.90164
  18242881.667   -28791903.333 7 -22219274.69723
 91  4  7  0 33 59.9910000  0  5G15G13G19G 2G 6
  21105758.589    -6834776.023 5  -5230903.01221
  19305259.4804  -14899613.66546 -11120908.49361
  21393239.9414    2621144.83043   2079937.98561
  18446045.9094  -30298182.67247 -23463985.82964
  18237162.339   -28821960.767 7 -22242696.05623
 91  4  7  0 34 14.9910000  0  5G15G13G19G 2G 6
  21103278.675    -6847809.906 5  -5241059.24221
  19294112.745   -14958195.904 6 -11166556.88121
  21399132.7844    2652124.71943   2104078.03661
  18444708.4804  -30305214.66847 -23469465.31364
  18231457.026   -28851939.251 7 -22266055.89223
 91  4  7  0 34 29.9910000  0  5G15G13G19G 2G 6
  21100827.823    -6860711.370 5  -5251112.30821
  19282984.401   -15016676.325 6 -11212125.92721
  21405039.5424    2683153.66443   2128256.33561
  18443377.8704  -30312206.91147 -23474913.81764
  18225768.097   -28881839.054 7 -22289354.41823
 91  4  7  0 34 44.9910000  0  5G15G13G19G 2G 6
  21098394.6364   -6873472.62345  -5261056.10961
  19271876.8554  -15075046.79646 -11257609.29661
  21410955.3314    2714239.24844   2152478.74161
  18442055.9414  -30319151.70847 -23480325.34564
  18220094.159   -28911652.219 7 -22312585.44023
 91  4  7  0 34 59.9910000  0  5G15G13G19G 2G 6
  21095995.4804   -6886091.39345  -5270888.85561
  19260789.456   -15133304.597 6 -11303004.88221
  21416882.2064    2745383.44643   2176746.83861
  18440743.6284  -30326046.80047 -23485698.14664
  18214439.816   -28941376.331 7 -22335747.06923
 91  4  7  0 35 14.9910000  0  5G15G13G19G 2G 6
  21093618.800    -6898571.276 5  -5280613.42521
  19249725.472   -15191453.456 6 -11348315.57021
  21422818.269     2776582.462 4   2201057.64521
  18439441.0584  -30332896.03547 -23491035.21664
  18208798.316   -28971014.783 7 -22358841.94923
 91  4  7  0 35 29.9910000  0  5G15G13G19G 2G 6
  21091272.370    -6910913.740 5  -5290230.88821
  19238678.605   -15249494.410 6 -11393542.18221
  21428767.5264    2807834.88543   2225410.06361
  18438145.8944  -30339700.75347 -23496337.59064
  18203173.573   -29000568.726 7 -22381870.97923
 91  4  7  0 35 44.9910000  0  5G15G13G19G 2G 6
  21088948.058    -6923115.345 5  -5299738.59221
  19227656.831   -15307423.889 6 -11438681.92721
  21434723.5114    2839143.73644   2249806.44261
  18436861.4334  -30346457.79747 -23501602.81864
  18197566.112   -29030034.684 7 -22404831.44923
 91  4  7  0 35 59.9910000  0  5G15G13G19G 2G 6
  21086656.659    -6935175.061 5  -5309135.73221
  19216654.081   -15365240.660 6 -11483733.84921
  21440691.3004    2870509.88744   2274247.49161
  18435583.1054  -30353166.04947 -23506830.03064
  18191977.284   -29059411.172 7 -22427722.20123
 91  4  7  0 36 14.9910000  0  5G15G13G19G 2G 6
  21084385.667    -6947094.125 5  -5318423.28621
  19205673.534   -15422945.993 6 -11528698.93621
  21446669.058     2901931.647 4   2298731.85221
  18434315.6284  -30359827.08247 -23512020.45164
  18186403.980   -29088699.607 7 -22450544.33823
 91  4  7  0 36 29.9910000  0  5G15G13G19G 2G 6
  21082144.144    -6958879.658 6  -5327606.78721
  19194710.847   -15480546.273 6 -11573582.17021
  21452665.5424    2933402.04943   2323254.12061
  18433056.2764  -30366447.80147 -23517179.44964
  18180846.144   -29117906.430 7 -22473302.88323
 91  4  7  0 36 44.9910000  0  5G15G13G19G 2G 6
  21079929.0114   -6970526.30745  -5336682.06861
  19183772.612   -15538036.242 6 -11618379.44321
  21458657.292     2964925.939 3   2347818.06921
  18431804.5734  -30373023.04047 -23522303.01364
  18175303.933   -29147026.410 7 -22495993.75823
 91  4  7  0 36 59.9910000  0  5G15G13G19G 2G 6
  21077738.347    -6982029.366 5  -5345645.46121
  19172853.089   -15595411.166 6 -11663087.07021
  21464666.3234    2996507.85243   2372427.20961
  18430563.7694  -30379548.29747 -23527387.62764
  18169779.776   -29176054.694 7 -22518613.17823
 91  4  7  0 37 14.9910000  0  5G15G13G19G 2G 6
  21075572.987    -6993394.575 5  -5354501.43121
  19161955.894   -15652676.486 6 -11707709.29421
  21470687.8164    3028141.95943   2397077.05061
  18429330.2764  -30386029.38947 -23532437.82764
  18164273.066   -29204996.757 7 -22541165.41223
 91  4  7  0 37 29.9910000  0  5G15G13G19G 2G 6
  21073434.7844   -7004626.23645  -5363253.35361
  19151078.917   -15709835.930 6 -11752249.02121
  21476715.3394    3059823.82843   2421764.09661
  18428103.8164  -30392470.65947 -23537457.00064
  18158781.901   -29233856.534 7 -22563653.53323
 91  4  7  0 37 44.9910000  0  5G15G13G19G 2G 6
  21071324.058    -7015722.204 5  -5371899.52821
  19140222.909   -15766887.220 6 -11796704.45921
  21482751.4804    3091555.45143
  18426887.5664  -30398870.02047 -23542443.51564
  18153305.237   -29262631.733 7 -22586075.74823
 91  4  7  0 37 59.9910000  0  4G15G13G 2G 6
  21069238.6204   -7026679.61845  -5380437.73561
  19129386.8944  -15823827.64546 -11841073.52861
  18425677.5504  -30405224.78047 -23547395.27764
  18147846.042   -29291319.390 7 -22608429.75023
 91  4  7  0 38 14.9910000  0  5G15G13G19G 2G 6
  21067180.011    -7037498.829 5  -5388868.27221
  19118572.948   -15880657.195 6 -11885356.19321
  21494861.2144         -0.34153
  18424476.6984  -30411535.23847 -23552312.52064
  18142404.245   -29319919.738 7 -22630715.71123
 91  4  7  0 38 29.9910000  0  5G15G13G19G 2G 6
  21065147.8784   -7048175.53845  -5397187.74861
  19107779.378   -15937371.180 6 -11929548.80521
  21500930.589       31890.707 3
  18423284.5974  -30417797.20947 -23557191.97764
  18136979.339   -29348428.110 7 -22652930.00923
 91  4  7  0 38 44.9910000  0  5G15G13G19G 2G 6
  21063144.1594   -7058714.87245  -5405400.21061
  19097009.4174  -15993974.53646 -11973655.21161
  21507007.1834      63832.29643        -0.46971
  18422100.5344  -30424015.83747 -23562037.66164
  18131570.136   -29376849.391 7 -22675076.44123
 91  4  7  0 38 59.9910000  0  4G15G13G 2G 6
  21061168.886    -7069116.950 5  -5413505.69421
  19086257.8004  -16050466.98046 -12017675.20461
  18420927.1054  -30430191.26047 -23566849.67464
  18126178.112   -29405183.308 7 -22697154.80123
 91  4  7  0 39 14.9910000  0  5G15G13G19G 2G 6
  21059210.5734   -7079380.52045  -5421503.25061
  19075530.097   -16106847.155 6 -12061607.70821
  21519191.3234         -0.56652
  18419760.1124  -30436322.46847 -23571627.24164
  18120803.792   -29433428.655 7 -22719164.14523
 91  4  7  0 39 29.9910000  0  5G15G13G19G 2G 6
  21057286.573    -7089501.028 5  -5429389.35121
  19064822.4484  -16163110.51246 -12105449.18761
  21525309.441       32098.060 2
  18418601.7534  -30442404.91347 -23576366.80464
  18115446.331   -29461580.566 7 -22741100.67923
 91  4  7  0 39 44.9910000  0  4G15G13G 2G 6
  21055389.003    -7099475.104 5  -5437161.32421
  19054140.1204  -16219253.60246 -12149196.95161
  18417455.3234  -30448435.53447 -23581065.99064
  18110106.964   -29489635.644 7 -22762961.75723
 91  4  7  0 39 59.9910000  0  4G15G13G 2G 6
  21053516.081    -7109316.973 5  -5444830.28121
  19043476.847   -16275290.153 6 -12192861.69921
  18416314.4874  -30454428.45947 -23585735.79564
  18104784.073   -29517607.618 7 -22784758.07823
 91  4  7  0 40 14.9910000  0  4G15G13G 2G 6
  21051666.4724   -7119023.32045  -5452393.65461
  19032834.2454  -16331216.56246 -12236440.61361
  18415181.9564  -30460380.09047 -23590373.42664
  18099479.347   -29545492.996 7 -22806486.91723
 91  4  7  0 40 29.9910000  0  4G15G13G 2G 6
  21049852.9094   -7128581.47545  -5459841.53561
  19022215.5584  -16387020.24246 -12279923.90461
  18414058.8394  -30466278.33847 -23594969.46064
  18094190.0504  -29573278.86847 -22828138.21763
 91  4  7  0 40 44.9910000  0  5G15G13G19G 2G 6
  21048056.4804   -7138002.15945  -5467182.30661
  19011616.2144  -16442711.54746 -12323319.63061
  21555995.394          -0.66413
  18412944.8784  -30472133.70747 -23599532.08164
  18088920.050   -29600975.913 7 -22849720.30523
 91  4  7  0 40 59.9910000  0  5G15G13G19G 2G 6
  21046288.0034   -7147284.32945  -5474415.13361
  19001041.8234  -16498289.11046 -12366626.72861
  21562162.4334      32406.99143
  18411839.3864  -30477945.32247 -23604060.60764
  18083665.8704  -29628582.82347 -22871232.15663
 91  4  7  0 41 14.9910000  0  5G15G13G19G 2G 6
  21044554.1754   -7156420.00445  -5481533.80561
  18990487.386   -16553744.804 6 -12409838.85221
  21568340.339       64872.289 3
  18410743.3084  -30483705.17447 -23608548.79964
  18078431.698   -29656091.343 7 -22892667.34423
 91  4  7  0 41 29.9910000  0  5G15G13G19G 2G 6
  21042842.6444   -7165411.73645  -5488540.31261
  18979958.1284  -16609081.03946 -12452957.90061
  21574527.3084      97392.50443        -0.18771
  18409655.9174  -30489415.94347 -23612998.74164
  18073215.456   -29683503.882 7 -22914027.74023
 91  4  7  0 41 44.9910000  0  5G15G13G19G 2G 6
  21041158.222    -7174264.190 5  -5495438.29521
  18969449.1054  -16664302.14346 -12495987.23761
  21580721.964      129962.546 3     25378.92621
  18408577.4014  -30495082.39147 -23617414.15564
  18068017.105   -29710824.915 7 -22935316.83123
 91  4  7  0 41 59.9910000  0  5G15G13G19G 2G 6
  21039498.355    -7182982.573 5  -5502231.79821
  18958961.2534  -16719412.83546 -12538930.53461
  21586933.7454     162577.17943     50792.80361
  18407507.0504  -30500709.55047 -23621798.95164
  18062833.7064  -29738059.26347 -22956538.37563
 91  4  7  0 42 14.9910000  0  5G15G13G19G 2G 6
  21037867.230    -7191565.480 5  -5508919.74521
  18948496.0504  -16774412.00646 -12581786.92561
  21593147.4254     195237.46043     76242.23861
  18406443.5424  -30506296.42847 -23626152.35564
  18057669.011   -29765205.568 7 -22977691.31723
 91  4  7  0 42 29.9910000  0  5G15G13G19G 2G 6
  21036260.2454   -7200002.61645  -5515494.09361
  18938053.4094  -16829288.77846 -12624547.95261
  21599371.9484     227953.67244    101735.25661
  18405390.5264  -30511832.46747 -23630466.14764
  18052521.7844  -29792252.97647 -22998767.18863
 91  4  7  0 42 44.9910000  0  5G15G13G19G 2G 6
  21034680.7844   -7208291.00845  -5521952.53861
  18927633.4014  -16884039.94346 -12667211.10361
  21605607.620      260728.700 4    127274.10821
  18404347.4414  -30517314.91347 -23634738.17864
  18047394.5344  -29819198.31747 -23019763.52963
 91  4  7  0 42 59.9910000  0  5G15G13G19G 2G 6
  21033130.6754   -7216443.87045  -5528305.38861
  18917236.2764  -16938678.70346 -12709786.66761
  21611854.1444     293549.08144    152848.32561
  18403311.7924  -30522757.00147 -23638978.76664
  18042282.9874  -29846054.71947 -23040690.56963
 91  4  7  0 43 14.9910000  0  5G15G13G19G 2G 6
  21031606.1834   -7224463.67945  -5534554.55861
  18906859.745   -16993207.289 6 -12752276.37521
  21618103.847      326412.195 4    178455.81221
  18402283.0504  -30528161.20347 -23643189.83164
  18037188.9874  -29872824.37247 -23061550.01363
 91  4  7  0 43 29.9910000  0  5G15G13G19G 2G 6
  21030103.8944   -7232339.12845  -5540691.24761
  18896505.5664  -17047614.24446 -12794671.31161
  21624370.9414     359328.99544    204105.13861
  18401264.2764  -30533516.23847 -23647362.58264
  18032113.019   -29899495.736 7 -23082332.87123
 91  4  7  0 43 44.9910000  0  5G15G13G19G 2G 6
  21028631.4014   -7240072.31745  -5546717.07161
  18886175.8554  -17101901.03046 -12836972.60461
  21630648.933      392297.416 4    229794.69921
  18400253.8004  -30538824.12447 -23651498.59664
  18027056.651   -29926070.533 7 -23103040.48123
 91  4  7  0 43 59.9910000  0  5G15G13G19G 2G 6
  21027191.5114   -7247668.51445  -5552636.17161
  18875867.7304  -17156072.81646 -12879184.29161
  21636929.925      425311.903 3    255520.15521
  18399251.2454  -30544090.08247 -23655601.93364
  18022017.1124  -29952553.69747 -23123676.68663
 91  4  7  0 44 14.9910000  0  5G15G13G19G 2G 6
  21025766.5734   -7255125.73345  -5558446.94661
  18865582.1054  -17210127.85646 -12921305.01261
  21643218.0504     458374.14143    281282.79661
  18398258.0344  -30549312.57447 -23659671.40364
  18016995.7144  -29978943.53247 -23144240.16863
 91  4  7  0 44 29.9910000  0  5G15G13G19G 2G 6
  21024375.206    -7262444.866 5  -5564150.13521
  18855316.9014  -17264066.63146 -12963335.13161
  21649523.2374     491483.07143    307081.87161
  18397273.2374  -30554492.49247 -23663707.69564
  18011990.573   -30005240.440 7 -23164731.23923
 91  4  7  0 44 44.9910000  0  5G15G13G19G 2G 6
  21023014.2534   -7269620.71745  -5569741.66161
  18845075.3704  -17317883.57646 -13005270.31561
  21655833.5894     524643.90643    332921.32561
  18396294.8864  -30559624.53847 -23667706.68664
  18007006.659   -30031438.819 7 -23185145.53823
 91  4  7  0 44 59.9910000  0  5G15G13G19G 2G 6
  21021671.3474   -7276658.03645  -5575225.25761
  18834856.5114  -17371583.02846 -13047113.95061
  21662150.456      557851.499 3    358797.27421
  18395325.9644  -30564713.46347 -23671672.08064
  18002038.0344  -30057543.31047 -23205486.66863
 91  4  7  0 45 14.9910000  0  5G15G13G19G 2G 6
  21020358.4254   -7283554.21745  -5580598.87461
  18824661.0194  -17425162.39446 -13088864.01061
  21668479.230      591108.279 3    384711.52221
  18394368.3474  -30569756.78947 -23675601.93864
  17997088.6204  -30083551.06047 -23225752.42463
 91  4  7  0 45 29.9910000  0  5G15G13G19G 2G 6
  21019071.0974   -7290312.63745  -5585865.14561
  18814488.1914  -17478624.59946 -13130522.78361
  21674811.3004     624410.84543    410661.44161
  18393415.5034  -30574757.61647 -23679498.68564
  17992157.620   -30109465.033 7 -23245945.10523
 91  4  7  0 45 44.9910000  0  5G15G13G19G 2G 6
  21017811.191    -7296933.843 5  -5591024.49421
  18804335.4014  -17531970.07746 -13172090.59061
  21681161.191      657758.509 3    436646.51721
  18392472.3394  -30579716.55147 -23683362.78864
  17987243.761   -30135285.575 7 -23266064.98123
 91  4  7  0 45 59.9910000  0  5G15G13G19G 2G 6
  21016576.8474   -7303417.40245  -5596076.58661
  18794206.8314  -17585198.19946 -13213566.96461
  21687521.7764     691151.46143    462666.87461
  18391536.3084  -30584633.25147 -23687193.97864
  17982349.026   -30161011.970 7 -23286111.50323
 91  4  7  0 46 14.9910000  0  4G15G13G 2G 6
  21015370.605    -7309758.105 5  -5601017.36421
  18784101.3784  -17638303.57046 -13254947.68261
  18390609.7224  -30589502.63047 -23690988.29564
  17977471.573   -30186638.824 7 -23306080.45623
 91  4  7  0 46 29.9910000  0  4G15G13G 2G 6
  21014192.0114   -7315956.79345  -5605847.47861
  18774018.4484  -17691286.71146 -13296233.15661
  18389691.3234  -30594325.56847 -23694746.42264
  17972614.230   -30212166.729 7 -23325972.30923
 91  4  7  0 46 44.9910000  0  4G15G13G 2G 6
  21013037.651    -7322011.167 5  -5610565.13521
  18763959.9804  -17744145.08946 -13337421.41061
  18388783.5584  -30599099.78647 -23698466.58864
  17967774.659   -30237593.072 7 -23345785.02223
 91  4  7  0 46 59.9910000  0  4G15G13G 2G 6
  21011915.800    -7327921.418 5  -5615170.49121
  18753926.1364  -17796878.83446 -13378512.55161
  18387883.8004  -30603825.40547 -23702148.88564
  17962956.230   -30262918.009 7 -23365518.71723
 91  4  7  0 47 14.9910000  0  4G15G13G 2G 6
  21010817.6594   -7333694.71045  -5619669.12861
  18743913.1364  -17849494.77846 -13419511.89661
  18386992.5894  -30608509.52147 -23705798.84264
  17958155.401   -30288148.258 7 -23385178.63123
 91  4  7  0 47 29.9910000  0  4G15G13G 2G 6
  21009744.847    -7339318.454 5  -5624051.24421
  18733925.1834  -17901979.94646 -13460409.33761
  18386112.9094  -30613139.66447 -23709406.74264
  17953374.144   -30313270.996 7 -23404754.76923
 91  4  7  0 47 44.9910000  0  4G15G13G 2G 6
  21008703.6284   -7344806.43245  -5628327.55461
  18723960.3164  -17954348.07747 -13501215.58661
  18385238.3234  -30617729.80047 -23712983.46764
  17948612.511   -30338299.844 7 -23424257.75223
 91  4  7  0 47 59.9910000  0  4G15G13G 2G 6
  21007684.4644   -7350156.19745  -5632496.18661
  18714016.8554  -18006596.49646 -13541928.55361
  18384372.6284  -30622277.39347 -23716527.03964
  17943866.956   -30363232.065 7 -23443685.43623
 91  4  7  0 48 14.9910000  0  4G15G13G 2G 6
  21006693.011    -7355367.070 5  -5636556.56521
  18704098.2144  -18058724.36547 -13582547.58161
  18383515.0114  -30626781.67647 -23720036.86964
  17939141.222   -30388066.708 7 -23463037.08523
 91  4  7  0 48 29.9910000  0  4G15G13G 2G 6
  21005724.2694   -7360436.61145  -5640506.83861
  18694201.175   -18110728.816 7 -13623070.44721
  18382667.0194  -30631240.08047 -23723510.94364
  17934434.308   -30412801.045 7 -23482310.57323
 91  4  7  0 48 44.9910000  0  4G15G13G 2G 6
  21004787.8164   -7365367.55345  -5644349.09661
  18684327.6984  -18162612.38147 -13663499.11561
  18381827.4724  -30635655.52447 -23726951.54564
  17929745.855   -30437437.546 7 -23501507.82723
 91  4  7  0 48 59.9910000  0  4G15G13G 2G 6
  21003881.792    -7370151.613 5  -5648076.91321
  18674479.925   -18214366.406 7 -13703826.84021
  18380996.5344  -30640019.79047 -23730352.26964
  17925077.948   -30461967.609 7 -23520622.14723
 91  4  7  0 49 14.9910000  0  4G15G13G 2G 6
  21002996.237    -7374799.409 5  -5651698.54221
  18664653.292   -18266001.145 7 -13744061.62221
  18380174.4254  -30644343.22747 -23733721.17764
  17920428.120   -30486401.379 7 -23539661.42923
 91  4  7  0 49 29.9910000  0  4G15G13G 2G 6
  21002133.605    -7379309.101 5  -5655212.57121
  18654851.464   -18317514.834 7 -13784202.07521
  18379359.5504  -30648624.19247 -23737056.98864
  17915798.191   -30510737.092 7 -23558624.30523
 91  4  7  0 49 44.9910000  0  4G15G13G 2G 6
  21001302.683    -7383675.166 5
  18645071.073   -18368901.632 7 -13824243.65121
  18378554.4094  -30652857.06247
  17911186.448   -30534968.889 7 -23577506.20323
 91  4  7  0 49 59.9910000  0  4G15G13G 2G 6
  21000498.331    -7387902.566 5
  18635317.3704  -18420166.52047 -13864190.23261
  18377757.0344  -30657047.14147
  17906593.073   -30559101.703 7 -23596310.97323
 91  4  7  0 50 14.9910000  0  4G15G13G 2G 6
  20999720.987    -7391985.712 5  -5665090.34521
  18625585.120   -18471303.617 7 -13904037.24121
  18376969.2844  -30661188.51347 -23746847.35364
  17902021.534   -30583129.442 7 -23615033.86923
